<?xml version="1.0" encoding="UTF-8" standalone="no" ?>
<gpx xmlns="http://www.topografix.com/GPX/1/1" xmlns:xsi="http://www.w3.org/2001/XMLSchema-instance" xsi:schemaLocation="http://www.topografix.com/GPX/1/1 http://www.topografix.com/GPX/1/1/gpx.xsd" version="1.1" creator="VisuGPX - https://www.visugpx.com">
  <metadata>
    <name>52 K fin 100 miles</name>
  </metadata>
  <trk>
    <name><![CDATA[52 K fin 100 miles_2]]></name>
    <trkseg>
      <trkpt lat="42.42611" lon="2.78599">
        <ele>543</ele>
        <time>2020-08-06T03:02:37Z</time>
      </trkpt>
      <trkpt lat="42.42652" lon="2.78603">
        <ele>538</ele>
        <time>2020-08-06T03:02:58Z</time>
      </trkpt>
      <trkpt lat="42.4266" lon="2.78606">
        <ele>537</ele>
        <time>2020-08-06T03:03:02Z</time>
      </trkpt>
      <trkpt lat="42.42711" lon="2.7865">
        <ele>537</ele>
        <time>2020-08-06T03:03:32Z</time>
      </trkpt>
      <trkpt lat="42.42749" lon="2.78669">
        <ele>536</ele>
        <time>2020-08-06T03:03:52Z</time>
      </trkpt>
      <trkpt lat="42.42784" lon="2.78694">
        <ele>538</ele>
        <time>2020-08-06T03:04:12Z</time>
      </trkpt>
      <trkpt lat="42.42807" lon="2.78703">
        <ele>539</ele>
        <time>2020-08-06T03:04:24Z</time>
      </trkpt>
      <trkpt lat="42.42778" lon="2.78704">
        <ele>542</ele>
        <time>2020-08-06T03:04:39Z</time>
      </trkpt>
      <trkpt lat="42.4276" lon="2.787">
        <ele>542</ele>
        <time>2020-08-06T03:04:48Z</time>
      </trkpt>
      <trkpt lat="42.42741" lon="2.78688">
        <ele>540</ele>
        <time>2020-08-06T03:04:58Z</time>
      </trkpt>
      <trkpt lat="42.42734" lon="2.78681">
        <ele>539</ele>
        <time>2020-08-06T03:05:03Z</time>
      </trkpt>
      <trkpt lat="42.42728" lon="2.7868">
        <ele>539</ele>
        <time>2020-08-06T03:05:06Z</time>
      </trkpt>
      <trkpt lat="42.42722" lon="2.78681">
        <ele>540</ele>
        <time>2020-08-06T03:05:09Z</time>
      </trkpt>
      <trkpt lat="42.42719" lon="2.78689">
        <ele>541</ele>
        <time>2020-08-06T03:05:12Z</time>
      </trkpt>
      <trkpt lat="42.4272" lon="2.78698">
        <ele>543</ele>
        <time>2020-08-06T03:05:15Z</time>
      </trkpt>
      <trkpt lat="42.42732" lon="2.78719">
        <ele>547</ele>
        <time>2020-08-06T03:05:25Z</time>
      </trkpt>
      <trkpt lat="42.4275" lon="2.78767">
        <ele>557</ele>
        <time>2020-08-06T03:05:45Z</time>
      </trkpt>
      <trkpt lat="42.42755" lon="2.78799">
        <ele>562</ele>
        <time>2020-08-06T03:05:57Z</time>
      </trkpt>
      <trkpt lat="42.42758" lon="2.78907">
        <ele>581</ele>
        <time>2020-08-06T03:06:37Z</time>
      </trkpt>
      <trkpt lat="42.4275" lon="2.78966">
        <ele>587</ele>
        <time>2020-08-06T03:06:59Z</time>
      </trkpt>
      <trkpt lat="42.42755" lon="2.79015">
        <ele>596</ele>
        <time>2020-08-06T03:07:17Z</time>
      </trkpt>
      <trkpt lat="42.42755" lon="2.7902">
        <ele>597</ele>
        <time>2020-08-06T03:07:19Z</time>
      </trkpt>
      <trkpt lat="42.42749" lon="2.79032">
        <ele>597</ele>
        <time>2020-08-06T03:07:25Z</time>
      </trkpt>
      <trkpt lat="42.42752" lon="2.79035">
        <ele>598</ele>
        <time>2020-08-06T03:07:26Z</time>
      </trkpt>
      <trkpt lat="42.42757" lon="2.79036">
        <ele>600</ele>
        <time>2020-08-06T03:07:29Z</time>
      </trkpt>
      <trkpt lat="42.42761" lon="2.79033">
        <ele>601</ele>
        <time>2020-08-06T03:07:31Z</time>
      </trkpt>
      <trkpt lat="42.4277" lon="2.78969">
        <ele>595</ele>
        <time>2020-08-06T03:07:55Z</time>
      </trkpt>
      <trkpt lat="42.42794" lon="2.78913">
        <ele>595</ele>
        <time>2020-08-06T03:08:19Z</time>
      </trkpt>
      <trkpt lat="42.42806" lon="2.78867">
        <ele>589</ele>
        <time>2020-08-06T03:08:37Z</time>
      </trkpt>
      <trkpt lat="42.42813" lon="2.78852">
        <ele>587</ele>
        <time>2020-08-06T03:08:44Z</time>
      </trkpt>
      <trkpt lat="42.42816" lon="2.78848">
        <ele>587</ele>
        <time>2020-08-06T03:08:46Z</time>
      </trkpt>
      <trkpt lat="42.4283" lon="2.78841">
        <ele>589</ele>
        <time>2020-08-06T03:08:53Z</time>
      </trkpt>
      <trkpt lat="42.42841" lon="2.78839">
        <ele>589</ele>
        <time>2020-08-06T03:08:59Z</time>
      </trkpt>
      <trkpt lat="42.42845" lon="2.78844">
        <ele>590</ele>
        <time>2020-08-06T03:09:02Z</time>
      </trkpt>
      <trkpt lat="42.42841" lon="2.78852">
        <ele>592</ele>
        <time>2020-08-06T03:09:05Z</time>
      </trkpt>
      <trkpt lat="42.42832" lon="2.78859">
        <ele>594</ele>
        <time>2020-08-06T03:09:10Z</time>
      </trkpt>
      <trkpt lat="42.42822" lon="2.78874">
        <ele>595</ele>
        <time>2020-08-06T03:09:18Z</time>
      </trkpt>
      <trkpt lat="42.4282" lon="2.78882">
        <ele>597</ele>
        <time>2020-08-06T03:09:21Z</time>
      </trkpt>
      <trkpt lat="42.42806" lon="2.78961">
        <ele>607</ele>
        <time>2020-08-06T03:09:51Z</time>
      </trkpt>
      <trkpt lat="42.42795" lon="2.79093">
        <ele>622</ele>
        <time>2020-08-06T03:10:40Z</time>
      </trkpt>
      <trkpt lat="42.42761" lon="2.79172">
        <ele>622</ele>
        <time>2020-08-06T03:11:14Z</time>
      </trkpt>
      <trkpt lat="42.42755" lon="2.79192">
        <ele>624</ele>
        <time>2020-08-06T03:11:22Z</time>
      </trkpt>
      <trkpt lat="42.42752" lon="2.79211">
        <ele>626</ele>
        <time>2020-08-06T03:11:29Z</time>
      </trkpt>
      <trkpt lat="42.42752" lon="2.79245">
        <ele>632</ele>
        <time>2020-08-06T03:11:42Z</time>
      </trkpt>
      <trkpt lat="42.42755" lon="2.79254">
        <ele>634</ele>
        <time>2020-08-06T03:11:45Z</time>
      </trkpt>
      <trkpt lat="42.42761" lon="2.79243">
        <ele>635</ele>
        <time>2020-08-06T03:11:50Z</time>
      </trkpt>
      <trkpt lat="42.42775" lon="2.79202">
        <ele>632</ele>
        <time>2020-08-06T03:12:07Z</time>
      </trkpt>
      <trkpt lat="42.42798" lon="2.79162">
        <ele>633</ele>
        <time>2020-08-06T03:12:26Z</time>
      </trkpt>
      <trkpt lat="42.42811" lon="2.79143">
        <ele>634</ele>
        <time>2020-08-06T03:12:35Z</time>
      </trkpt>
      <trkpt lat="42.42833" lon="2.7912">
        <ele>639</ele>
        <time>2020-08-06T03:12:49Z</time>
      </trkpt>
      <trkpt lat="42.42847" lon="2.79051">
        <ele>634</ele>
        <time>2020-08-06T03:13:16Z</time>
      </trkpt>
      <trkpt lat="42.42865" lon="2.79008">
        <ele>633</ele>
        <time>2020-08-06T03:13:34Z</time>
      </trkpt>
      <trkpt lat="42.4288" lon="2.78984">
        <ele>631</ele>
        <time>2020-08-06T03:13:46Z</time>
      </trkpt>
      <trkpt lat="42.42889" lon="2.78977">
        <ele>631</ele>
        <time>2020-08-06T03:13:51Z</time>
      </trkpt>
      <trkpt lat="42.42899" lon="2.78976">
        <ele>633</ele>
        <time>2020-08-06T03:13:56Z</time>
      </trkpt>
      <trkpt lat="42.42903" lon="2.78978">
        <ele>634</ele>
        <time>2020-08-06T03:13:58Z</time>
      </trkpt>
      <trkpt lat="42.4291" lon="2.78988">
        <ele>639</ele>
        <time>2020-08-06T03:14:03Z</time>
      </trkpt>
      <trkpt lat="42.42907" lon="2.78994">
        <ele>640</ele>
        <time>2020-08-06T03:14:06Z</time>
      </trkpt>
      <trkpt lat="42.42892" lon="2.79006">
        <ele>639</ele>
        <time>2020-08-06T03:14:14Z</time>
      </trkpt>
      <trkpt lat="42.42888" lon="2.79013">
        <ele>640</ele>
        <time>2020-08-06T03:14:18Z</time>
      </trkpt>
      <trkpt lat="42.42871" lon="2.79062">
        <ele>644</ele>
        <time>2020-08-06T03:14:38Z</time>
      </trkpt>
      <trkpt lat="42.42867" lon="2.79077">
        <ele>645</ele>
        <time>2020-08-06T03:14:43Z</time>
      </trkpt>
      <trkpt lat="42.42864" lon="2.79119">
        <ele>650</ele>
        <time>2020-08-06T03:14:59Z</time>
      </trkpt>
      <trkpt lat="42.42852" lon="2.79156">
        <ele>650</ele>
        <time>2020-08-06T03:15:14Z</time>
      </trkpt>
      <trkpt lat="42.42834" lon="2.79198">
        <ele>651</ele>
        <time>2020-08-06T03:15:32Z</time>
      </trkpt>
      <trkpt lat="42.42818" lon="2.79268">
        <ele>657</ele>
        <time>2020-08-06T03:15:59Z</time>
      </trkpt>
      <trkpt lat="42.42811" lon="2.79322">
        <ele>661</ele>
        <time>2020-08-06T03:16:19Z</time>
      </trkpt>
      <trkpt lat="42.42805" lon="2.79338">
        <ele>662</ele>
        <time>2020-08-06T03:16:26Z</time>
      </trkpt>
      <trkpt lat="42.42796" lon="2.7935">
        <ele>662</ele>
        <time>2020-08-06T03:16:32Z</time>
      </trkpt>
      <trkpt lat="42.42796" lon="2.79359">
        <ele>663</ele>
        <time>2020-08-06T03:16:36Z</time>
      </trkpt>
      <trkpt lat="42.42804" lon="2.79361">
        <ele>665</ele>
        <time>2020-08-06T03:16:40Z</time>
      </trkpt>
      <trkpt lat="42.42818" lon="2.79346">
        <ele>665</ele>
        <time>2020-08-06T03:16:49Z</time>
      </trkpt>
      <trkpt lat="42.42827" lon="2.79322">
        <ele>665</ele>
        <time>2020-08-06T03:16:58Z</time>
      </trkpt>
      <trkpt lat="42.42836" lon="2.79281">
        <ele>663</ele>
        <time>2020-08-06T03:17:14Z</time>
      </trkpt>
      <trkpt lat="42.42865" lon="2.79208">
        <ele>664</ele>
        <time>2020-08-06T03:17:45Z</time>
      </trkpt>
      <trkpt lat="42.42877" lon="2.79186">
        <ele>664</ele>
        <time>2020-08-06T03:17:55Z</time>
      </trkpt>
      <trkpt lat="42.42888" lon="2.79173">
        <ele>666</ele>
        <time>2020-08-06T03:18:02Z</time>
      </trkpt>
      <trkpt lat="42.42909" lon="2.7913">
        <ele>668</ele>
        <time>2020-08-06T03:18:21Z</time>
      </trkpt>
      <trkpt lat="42.42921" lon="2.79114">
        <ele>668</ele>
        <time>2020-08-06T03:18:30Z</time>
      </trkpt>
      <trkpt lat="42.42933" lon="2.7911">
        <ele>667</ele>
        <time>2020-08-06T03:18:36Z</time>
      </trkpt>
      <trkpt lat="42.42946" lon="2.79114">
        <ele>667</ele>
        <time>2020-08-06T03:18:43Z</time>
      </trkpt>
      <trkpt lat="42.42985" lon="2.79141">
        <ele>672</ele>
        <time>2020-08-06T03:19:05Z</time>
      </trkpt>
      <trkpt lat="42.43006" lon="2.7916">
        <ele>675</ele>
        <time>2020-08-06T03:19:17Z</time>
      </trkpt>
      <trkpt lat="42.43014" lon="2.79178">
        <ele>674</ele>
        <time>2020-08-06T03:19:25Z</time>
      </trkpt>
      <trkpt lat="42.43016" lon="2.7922">
        <ele>677</ele>
        <time>2020-08-06T03:19:41Z</time>
      </trkpt>
      <trkpt lat="42.43011" lon="2.79347">
        <ele>683</ele>
        <time>2020-08-06T03:20:27Z</time>
      </trkpt>
      <trkpt lat="42.42986" lon="2.79387">
        <ele>683</ele>
        <time>2020-08-06T03:20:47Z</time>
      </trkpt>
      <trkpt lat="42.42983" lon="2.79397">
        <ele>682</ele>
        <time>2020-08-06T03:20:51Z</time>
      </trkpt>
      <trkpt lat="42.42977" lon="2.79451">
        <ele>683</ele>
        <time>2020-08-06T03:21:11Z</time>
      </trkpt>
      <trkpt lat="42.42962" lon="2.79488">
        <ele>686</ele>
        <time>2020-08-06T03:21:27Z</time>
      </trkpt>
      <trkpt lat="42.42956" lon="2.79492">
        <ele>686</ele>
        <time>2020-08-06T03:21:30Z</time>
      </trkpt>
      <trkpt lat="42.42958" lon="2.79497">
        <ele>687</ele>
        <time>2020-08-06T03:21:32Z</time>
      </trkpt>
      <trkpt lat="42.42998" lon="2.79526">
        <ele>691</ele>
        <time>2020-08-06T03:21:55Z</time>
      </trkpt>
      <trkpt lat="42.43012" lon="2.79539">
        <ele>692</ele>
        <time>2020-08-06T03:22:03Z</time>
      </trkpt>
      <trkpt lat="42.43029" lon="2.79561">
        <ele>694</ele>
        <time>2020-08-06T03:22:15Z</time>
      </trkpt>
      <trkpt lat="42.43048" lon="2.796">
        <ele>699</ele>
        <time>2020-08-06T03:22:32Z</time>
      </trkpt>
      <trkpt lat="42.43063" lon="2.79617">
        <ele>701</ele>
        <time>2020-08-06T03:22:42Z</time>
      </trkpt>
      <trkpt lat="42.43101" lon="2.79646">
        <ele>702</ele>
        <time>2020-08-06T03:23:04Z</time>
      </trkpt>
      <trkpt lat="42.43123" lon="2.79657">
        <ele>704</ele>
        <time>2020-08-06T03:23:16Z</time>
      </trkpt>
      <trkpt lat="42.43173" lon="2.7969">
        <ele>707</ele>
        <time>2020-08-06T03:23:43Z</time>
      </trkpt>
      <trkpt lat="42.43189" lon="2.79709">
        <ele>709</ele>
        <time>2020-08-06T03:23:54Z</time>
      </trkpt>
      <trkpt lat="42.43191" lon="2.79721">
        <ele>711</ele>
        <time>2020-08-06T03:23:59Z</time>
      </trkpt>
      <trkpt lat="42.4319" lon="2.79734">
        <ele>712</ele>
        <time>2020-08-06T03:24:03Z</time>
      </trkpt>
      <trkpt lat="42.43179" lon="2.79767">
        <ele>716</ele>
        <time>2020-08-06T03:24:17Z</time>
      </trkpt>
      <trkpt lat="42.43168" lon="2.79823">
        <ele>719</ele>
        <time>2020-08-06T03:24:38Z</time>
      </trkpt>
      <trkpt lat="42.43175" lon="2.79851">
        <ele>718</ele>
        <time>2020-08-06T03:24:49Z</time>
      </trkpt>
      <trkpt lat="42.43172" lon="2.79897">
        <ele>717</ele>
        <time>2020-08-06T03:25:06Z</time>
      </trkpt>
      <trkpt lat="42.43168" lon="2.7992">
        <ele>717</ele>
        <time>2020-08-06T03:25:15Z</time>
      </trkpt>
      <trkpt lat="42.43168" lon="2.79943">
        <ele>718</ele>
        <time>2020-08-06T03:25:23Z</time>
      </trkpt>
      <trkpt lat="42.43188" lon="2.80024">
        <ele>721</ele>
        <time>2020-08-06T03:25:55Z</time>
      </trkpt>
      <trkpt lat="42.43194" lon="2.80032">
        <ele>722</ele>
        <time>2020-08-06T03:25:59Z</time>
      </trkpt>
      <trkpt lat="42.4321" lon="2.80033">
        <ele>721</ele>
        <time>2020-08-06T03:26:07Z</time>
      </trkpt>
      <trkpt lat="42.43225" lon="2.80042">
        <ele>722</ele>
        <time>2020-08-06T03:26:15Z</time>
      </trkpt>
      <trkpt lat="42.43233" lon="2.80043">
        <ele>722</ele>
        <time>2020-08-06T03:26:19Z</time>
      </trkpt>
      <trkpt lat="42.43251" lon="2.80036">
        <ele>720</ele>
        <time>2020-08-06T03:26:29Z</time>
      </trkpt>
      <trkpt lat="42.43271" lon="2.80039">
        <ele>720</ele>
        <time>2020-08-06T03:26:39Z</time>
      </trkpt>
      <trkpt lat="42.43282" lon="2.80045">
        <ele>721</ele>
        <time>2020-08-06T03:26:45Z</time>
      </trkpt>
      <trkpt lat="42.433" lon="2.80063">
        <ele>723</ele>
        <time>2020-08-06T03:26:56Z</time>
      </trkpt>
      <trkpt lat="42.43334" lon="2.80088">
        <ele>725</ele>
        <time>2020-08-06T03:27:15Z</time>
      </trkpt>
      <trkpt lat="42.43371" lon="2.80105">
        <ele>729</ele>
        <time>2020-08-06T03:27:35Z</time>
      </trkpt>
      <trkpt lat="42.43398" lon="2.80108">
        <ele>730</ele>
        <time>2020-08-06T03:27:48Z</time>
      </trkpt>
      <trkpt lat="42.43424" lon="2.80107">
        <ele>731</ele>
        <time>2020-08-06T03:28:01Z</time>
      </trkpt>
      <trkpt lat="42.43443" lon="2.80111">
        <ele>734</ele>
        <time>2020-08-06T03:28:11Z</time>
      </trkpt>
      <trkpt lat="42.43451" lon="2.80122">
        <ele>736</ele>
        <time>2020-08-06T03:28:17Z</time>
      </trkpt>
      <trkpt lat="42.43479" lon="2.80215">
        <ele>740</ele>
        <time>2020-08-06T03:28:54Z</time>
      </trkpt>
      <trkpt lat="42.43508" lon="2.80297">
        <ele>735</ele>
        <time>2020-08-06T03:29:27Z</time>
      </trkpt>
      <trkpt lat="42.43555" lon="2.80386">
        <ele>724</ele>
        <time>2020-08-06T03:30:08Z</time>
      </trkpt>
      <trkpt lat="42.4356" lon="2.804">
        <ele>722</ele>
        <time>2020-08-06T03:30:14Z</time>
      </trkpt>
      <trkpt lat="42.43562" lon="2.80426">
        <ele>719</ele>
        <time>2020-08-06T03:30:23Z</time>
      </trkpt>
      <trkpt lat="42.43551" lon="2.80468">
        <ele>718</ele>
        <time>2020-08-06T03:30:40Z</time>
      </trkpt>
      <trkpt lat="42.43535" lon="2.80547">
        <ele>718</ele>
        <time>2020-08-06T03:31:10Z</time>
      </trkpt>
      <trkpt lat="42.4353" lon="2.80596">
        <ele>718</ele>
        <time>2020-08-06T03:31:28Z</time>
      </trkpt>
      <trkpt lat="42.43532" lon="2.80611">
        <ele>718</ele>
        <time>2020-08-06T03:31:34Z</time>
      </trkpt>
      <trkpt lat="42.43539" lon="2.80623">
        <ele>717</ele>
        <time>2020-08-06T03:31:40Z</time>
      </trkpt>
      <trkpt lat="42.4355" lon="2.80626">
        <ele>716</ele>
        <time>2020-08-06T03:31:45Z</time>
      </trkpt>
      <trkpt lat="42.43559" lon="2.80624">
        <ele>715</ele>
        <time>2020-08-06T03:31:50Z</time>
      </trkpt>
      <trkpt lat="42.43609" lon="2.80573">
        <ele>703</ele>
        <time>2020-08-06T03:32:21Z</time>
      </trkpt>
      <trkpt lat="42.4362" lon="2.8057">
        <ele>702</ele>
        <time>2020-08-06T03:32:27Z</time>
      </trkpt>
      <trkpt lat="42.43678" lon="2.8059">
        <ele>700</ele>
        <time>2020-08-06T03:32:57Z</time>
      </trkpt>
      <trkpt lat="42.43719" lon="2.8061">
        <ele>697</ele>
        <time>2020-08-06T03:33:18Z</time>
      </trkpt>
      <trkpt lat="42.43752" lon="2.80633">
        <ele>695</ele>
        <time>2020-08-06T03:33:37Z</time>
      </trkpt>
      <trkpt lat="42.43789" lon="2.80664">
        <ele>691</ele>
        <time>2020-08-06T03:33:59Z</time>
      </trkpt>
      <trkpt lat="42.43821" lon="2.80695">
        <ele>687</ele>
        <time>2020-08-06T03:34:18Z</time>
      </trkpt>
      <trkpt lat="42.43832" lon="2.80714">
        <ele>686</ele>
        <time>2020-08-06T03:34:27Z</time>
      </trkpt>
      <trkpt lat="42.43841" lon="2.80757">
        <ele>688</ele>
        <time>2020-08-06T03:34:44Z</time>
      </trkpt>
      <trkpt lat="42.43859" lon="2.80873">
        <ele>683</ele>
        <time>2020-08-06T03:35:28Z</time>
      </trkpt>
      <trkpt lat="42.43861" lon="2.80906">
        <ele>680</ele>
        <time>2020-08-06T03:35:40Z</time>
      </trkpt>
      <trkpt lat="42.43859" lon="2.80938">
        <ele>679</ele>
        <time>2020-08-06T03:35:52Z</time>
      </trkpt>
      <trkpt lat="42.43854" lon="2.80955">
        <ele>680</ele>
        <time>2020-08-06T03:35:59Z</time>
      </trkpt>
      <trkpt lat="42.43844" lon="2.80974">
        <ele>682</ele>
        <time>2020-08-06T03:36:07Z</time>
      </trkpt>
      <trkpt lat="42.4384" lon="2.81">
        <ele>682</ele>
        <time>2020-08-06T03:36:17Z</time>
      </trkpt>
      <trkpt lat="42.43842" lon="2.81009">
        <ele>683</ele>
        <time>2020-08-06T03:36:20Z</time>
      </trkpt>
      <trkpt lat="42.43847" lon="2.81017">
        <ele>682</ele>
        <time>2020-08-06T03:36:24Z</time>
      </trkpt>
      <trkpt lat="42.4386" lon="2.81027">
        <ele>680</ele>
        <time>2020-08-06T03:36:32Z</time>
      </trkpt>
      <trkpt lat="42.43926" lon="2.81111">
        <ele>681</ele>
        <time>2020-08-06T03:37:17Z</time>
      </trkpt>
      <trkpt lat="42.43933" lon="2.81115">
        <ele>681</ele>
        <time>2020-08-06T03:37:21Z</time>
      </trkpt>
      <trkpt lat="42.43961" lon="2.81115">
        <ele>677</ele>
        <time>2020-08-06T03:37:35Z</time>
      </trkpt>
      <trkpt lat="42.43992" lon="2.81106">
        <ele>671</ele>
        <time>2020-08-06T03:37:51Z</time>
      </trkpt>
      <trkpt lat="42.44008" lon="2.81107">
        <ele>670</ele>
        <time>2020-08-06T03:37:59Z</time>
      </trkpt>
      <trkpt lat="42.44035" lon="2.81115">
        <ele>669</ele>
        <time>2020-08-06T03:38:13Z</time>
      </trkpt>
      <trkpt lat="42.44042" lon="2.81122">
        <ele>670</ele>
        <time>2020-08-06T03:38:17Z</time>
      </trkpt>
      <trkpt lat="42.44062" lon="2.81162">
        <ele>673</ele>
        <time>2020-08-06T03:38:35Z</time>
      </trkpt>
      <trkpt lat="42.44103" lon="2.81232">
        <ele>673</ele>
        <time>2020-08-06T03:39:08Z</time>
      </trkpt>
      <trkpt lat="42.44107" lon="2.81243">
        <ele>673</ele>
        <time>2020-08-06T03:39:12Z</time>
      </trkpt>
      <trkpt lat="42.44104" lon="2.81262">
        <ele>674</ele>
        <time>2020-08-06T03:39:20Z</time>
      </trkpt>
      <trkpt lat="42.44079" lon="2.81301">
        <ele>679</ele>
        <time>2020-08-06T03:39:39Z</time>
      </trkpt>
      <trkpt lat="42.44075" lon="2.81323">
        <ele>681</ele>
        <time>2020-08-06T03:39:47Z</time>
      </trkpt>
      <trkpt lat="42.44079" lon="2.81343">
        <ele>682</ele>
        <time>2020-08-06T03:39:55Z</time>
      </trkpt>
      <trkpt lat="42.44091" lon="2.81364">
        <ele>681</ele>
        <time>2020-08-06T03:40:04Z</time>
      </trkpt>
      <trkpt lat="42.44107" lon="2.81385">
        <ele>679</ele>
        <time>2020-08-06T03:40:16Z</time>
      </trkpt>
      <trkpt lat="42.44145" lon="2.8146">
        <ele>676</ele>
        <time>2020-08-06T03:40:49Z</time>
      </trkpt>
      <trkpt lat="42.44147" lon="2.81472">
        <ele>676</ele>
        <time>2020-08-06T03:40:54Z</time>
      </trkpt>
      <trkpt lat="42.44149" lon="2.81495">
        <ele>677</ele>
        <time>2020-08-06T03:41:02Z</time>
      </trkpt>
      <trkpt lat="42.44148" lon="2.81519">
        <ele>677</ele>
        <time>2020-08-06T03:41:11Z</time>
      </trkpt>
      <trkpt lat="42.4413" lon="2.8157">
        <ele>681</ele>
        <time>2020-08-06T03:41:32Z</time>
      </trkpt>
      <trkpt lat="42.44126" lon="2.81595">
        <ele>681</ele>
        <time>2020-08-06T03:41:41Z</time>
      </trkpt>
      <trkpt lat="42.44126" lon="2.81621">
        <ele>680</ele>
        <time>2020-08-06T03:41:51Z</time>
      </trkpt>
      <trkpt lat="42.44132" lon="2.81671">
        <ele>678</ele>
        <time>2020-08-06T03:42:10Z</time>
      </trkpt>
      <trkpt lat="42.44141" lon="2.8169">
        <ele>679</ele>
        <time>2020-08-06T03:42:18Z</time>
      </trkpt>
      <trkpt lat="42.44148" lon="2.81697">
        <ele>679</ele>
        <time>2020-08-06T03:42:22Z</time>
      </trkpt>
      <trkpt lat="42.44192" lon="2.81726">
        <ele>678</ele>
        <time>2020-08-06T03:42:47Z</time>
      </trkpt>
      <trkpt lat="42.44197" lon="2.81731">
        <ele>678</ele>
        <time>2020-08-06T03:42:50Z</time>
      </trkpt>
      <trkpt lat="42.44201" lon="2.81742">
        <ele>678</ele>
        <time>2020-08-06T03:42:55Z</time>
      </trkpt>
      <trkpt lat="42.44213" lon="2.8181">
        <ele>676</ele>
        <time>2020-08-06T03:43:20Z</time>
      </trkpt>
      <trkpt lat="42.44212" lon="2.8183">
        <ele>676</ele>
        <time>2020-08-06T03:43:28Z</time>
      </trkpt>
      <trkpt lat="42.44202" lon="2.81861">
        <ele>678</ele>
        <time>2020-08-06T03:43:40Z</time>
      </trkpt>
      <trkpt lat="42.44203" lon="2.81883">
        <ele>679</ele>
        <time>2020-08-06T03:43:48Z</time>
      </trkpt>
      <trkpt lat="42.44227" lon="2.81895">
        <ele>676</ele>
        <time>2020-08-06T03:44:01Z</time>
      </trkpt>
      <trkpt lat="42.4425" lon="2.81898">
        <ele>674</ele>
        <time>2020-08-06T03:44:13Z</time>
      </trkpt>
      <trkpt lat="42.44259" lon="2.81902">
        <ele>673</ele>
        <time>2020-08-06T03:44:18Z</time>
      </trkpt>
      <trkpt lat="42.44269" lon="2.81913">
        <ele>672</ele>
        <time>2020-08-06T03:44:24Z</time>
      </trkpt>
      <trkpt lat="42.44277" lon="2.81929">
        <ele>672</ele>
        <time>2020-08-06T03:44:31Z</time>
      </trkpt>
      <trkpt lat="42.4429" lon="2.81943">
        <ele>671</ele>
        <time>2020-08-06T03:44:39Z</time>
      </trkpt>
      <trkpt lat="42.44299" lon="2.8196">
        <ele>671</ele>
        <time>2020-08-06T03:44:47Z</time>
      </trkpt>
      <trkpt lat="42.44306" lon="2.81987">
        <ele>672</ele>
        <time>2020-08-06T03:44:58Z</time>
      </trkpt>
      <trkpt lat="42.44307" lon="2.82065">
        <ele>672</ele>
        <time>2020-08-06T03:45:27Z</time>
      </trkpt>
      <trkpt lat="42.44312" lon="2.82126">
        <ele>671</ele>
        <time>2020-08-06T03:45:49Z</time>
      </trkpt>
      <trkpt lat="42.44312" lon="2.82164">
        <ele>670</ele>
        <time>2020-08-06T03:46:03Z</time>
      </trkpt>
      <trkpt lat="42.44311" lon="2.82192">
        <ele>669</ele>
        <time>2020-08-06T03:46:14Z</time>
      </trkpt>
      <trkpt lat="42.44304" lon="2.82234">
        <ele>669</ele>
        <time>2020-08-06T03:46:29Z</time>
      </trkpt>
      <trkpt lat="42.44286" lon="2.82277">
        <ele>669</ele>
        <time>2020-08-06T03:46:48Z</time>
      </trkpt>
      <trkpt lat="42.44262" lon="2.82314">
        <ele>668</ele>
        <time>2020-08-06T03:47:06Z</time>
      </trkpt>
      <trkpt lat="42.44224" lon="2.82359">
        <ele>670</ele>
        <time>2020-08-06T03:47:31Z</time>
      </trkpt>
      <trkpt lat="42.44217" lon="2.824">
        <ele>663</ele>
        <time>2020-08-06T03:47:47Z</time>
      </trkpt>
      <trkpt lat="42.44213" lon="2.8241">
        <ele>662</ele>
        <time>2020-08-06T03:47:51Z</time>
      </trkpt>
      <trkpt lat="42.44193" lon="2.82437">
        <ele>665</ele>
        <time>2020-08-06T03:48:05Z</time>
      </trkpt>
      <trkpt lat="42.4419" lon="2.82453">
        <ele>664</ele>
        <time>2020-08-06T03:48:11Z</time>
      </trkpt>
      <trkpt lat="42.44191" lon="2.82466">
        <ele>663</ele>
        <time>2020-08-06T03:48:16Z</time>
      </trkpt>
      <trkpt lat="42.44199" lon="2.82487">
        <ele>659</ele>
        <time>2020-08-06T03:48:25Z</time>
      </trkpt>
      <trkpt lat="42.44197" lon="2.82509">
        <ele>659</ele>
        <time>2020-08-06T03:48:33Z</time>
      </trkpt>
      <trkpt lat="42.44198" lon="2.82513">
        <ele>659</ele>
        <time>2020-08-06T03:48:34Z</time>
      </trkpt>
      <trkpt lat="42.4421" lon="2.82524">
        <ele>658</ele>
        <time>2020-08-06T03:48:42Z</time>
      </trkpt>
      <trkpt lat="42.44212" lon="2.8255">
        <ele>660</ele>
        <time>2020-08-06T03:48:51Z</time>
      </trkpt>
      <trkpt lat="42.44255" lon="2.82549">
        <ele>654</ele>
        <time>2020-08-06T03:49:13Z</time>
      </trkpt>
      <trkpt lat="42.44267" lon="2.82555">
        <ele>654</ele>
        <time>2020-08-06T03:49:19Z</time>
      </trkpt>
      <trkpt lat="42.44335" lon="2.82604">
        <ele>658</ele>
        <time>2020-08-06T03:49:58Z</time>
      </trkpt>
      <trkpt lat="42.44367" lon="2.82622">
        <ele>657</ele>
        <time>2020-08-06T03:50:15Z</time>
      </trkpt>
      <trkpt lat="42.44385" lon="2.8264">
        <ele>657</ele>
        <time>2020-08-06T03:50:26Z</time>
      </trkpt>
      <trkpt lat="42.44391" lon="2.82652">
        <ele>658</ele>
        <time>2020-08-06T03:50:32Z</time>
      </trkpt>
      <trkpt lat="42.44401" lon="2.82784">
        <ele>666</ele>
        <time>2020-08-06T03:51:21Z</time>
      </trkpt>
      <trkpt lat="42.44413" lon="2.82847">
        <ele>666</ele>
        <time>2020-08-06T03:51:45Z</time>
      </trkpt>
      <trkpt lat="42.4443" lon="2.82879">
        <ele>667</ele>
        <time>2020-08-06T03:51:59Z</time>
      </trkpt>
      <trkpt lat="42.44443" lon="2.82892">
        <ele>667</ele>
        <time>2020-08-06T03:52:07Z</time>
      </trkpt>
      <trkpt lat="42.44475" lon="2.82913">
        <ele>665</ele>
        <time>2020-08-06T03:52:25Z</time>
      </trkpt>
      <trkpt lat="42.44523" lon="2.82954">
        <ele>663</ele>
        <time>2020-08-06T03:52:54Z</time>
      </trkpt>
      <trkpt lat="42.44532" lon="2.82967">
        <ele>663</ele>
        <time>2020-08-06T03:53:00Z</time>
      </trkpt>
      <trkpt lat="42.44538" lon="2.82984">
        <ele>663</ele>
        <time>2020-08-06T03:53:07Z</time>
      </trkpt>
      <trkpt lat="42.44539" lon="2.83012">
        <ele>664</ele>
        <time>2020-08-06T03:53:17Z</time>
      </trkpt>
      <trkpt lat="42.44501" lon="2.83105">
        <ele>668</ele>
        <time>2020-08-06T03:53:57Z</time>
      </trkpt>
      <trkpt lat="42.44489" lon="2.83125">
        <ele>669</ele>
        <time>2020-08-06T03:54:06Z</time>
      </trkpt>
      <trkpt lat="42.44502" lon="2.83135">
        <ele>669</ele>
        <time>2020-08-06T03:54:14Z</time>
      </trkpt>
      <trkpt lat="42.44508" lon="2.83137">
        <ele>669</ele>
        <time>2020-08-06T03:54:17Z</time>
      </trkpt>
      <trkpt lat="42.4454" lon="2.83136">
        <ele>669</ele>
        <time>2020-08-06T03:54:33Z</time>
      </trkpt>
      <trkpt lat="42.44597" lon="2.83147">
        <ele>669</ele>
        <time>2020-08-06T03:55:02Z</time>
      </trkpt>
      <trkpt lat="42.4462" lon="2.83155">
        <ele>670</ele>
        <time>2020-08-06T03:55:14Z</time>
      </trkpt>
      <trkpt lat="42.44628" lon="2.83162">
        <ele>670</ele>
        <time>2020-08-06T03:55:18Z</time>
      </trkpt>
      <trkpt lat="42.44642" lon="2.83167">
        <ele>669</ele>
        <time>2020-08-06T03:55:26Z</time>
      </trkpt>
      <trkpt lat="42.44661" lon="2.83166">
        <ele>668</ele>
        <time>2020-08-06T03:55:35Z</time>
      </trkpt>
      <trkpt lat="42.4469" lon="2.83159">
        <ele>663</ele>
        <time>2020-08-06T03:55:50Z</time>
      </trkpt>
      <trkpt lat="42.44745" lon="2.83125">
        <ele>658</ele>
        <time>2020-08-06T03:56:20Z</time>
      </trkpt>
      <trkpt lat="42.44792" lon="2.83086">
        <ele>655</ele>
        <time>2020-08-06T03:56:48Z</time>
      </trkpt>
      <trkpt lat="42.44829" lon="2.83044">
        <ele>654</ele>
        <time>2020-08-06T03:57:12Z</time>
      </trkpt>
      <trkpt lat="42.44882" lon="2.82998">
        <ele>649</ele>
        <time>2020-08-06T03:57:43Z</time>
      </trkpt>
      <trkpt lat="42.44889" lon="2.82988">
        <ele>648</ele>
        <time>2020-08-06T03:57:48Z</time>
      </trkpt>
      <trkpt lat="42.44903" lon="2.82975">
        <ele>647</ele>
        <time>2020-08-06T03:57:57Z</time>
      </trkpt>
      <trkpt lat="42.44922" lon="2.82947">
        <ele>649</ele>
        <time>2020-08-06T03:58:11Z</time>
      </trkpt>
      <trkpt lat="42.44926" lon="2.82944">
        <ele>648</ele>
        <time>2020-08-06T03:58:13Z</time>
      </trkpt>
      <trkpt lat="42.44931" lon="2.82946">
        <ele>647</ele>
        <time>2020-08-06T03:58:16Z</time>
      </trkpt>
      <trkpt lat="42.44932" lon="2.82952">
        <ele>645</ele>
        <time>2020-08-06T03:58:18Z</time>
      </trkpt>
      <trkpt lat="42.44924" lon="2.82964">
        <ele>644</ele>
        <time>2020-08-06T03:58:24Z</time>
      </trkpt>
      <trkpt lat="42.44904" lon="2.83008">
        <ele>640</ele>
        <time>2020-08-06T03:58:43Z</time>
      </trkpt>
      <trkpt lat="42.44865" lon="2.83076">
        <ele>638</ele>
        <time>2020-08-06T03:59:15Z</time>
      </trkpt>
      <trkpt lat="42.44854" lon="2.83128">
        <ele>631</ele>
        <time>2020-08-06T03:59:35Z</time>
      </trkpt>
      <trkpt lat="42.44837" lon="2.83183">
        <ele>625</ele>
        <time>2020-08-06T03:59:57Z</time>
      </trkpt>
      <trkpt lat="42.44824" lon="2.83217">
        <ele>623</ele>
        <time>2020-08-06T04:00:11Z</time>
      </trkpt>
      <trkpt lat="42.44806" lon="2.83246">
        <ele>623</ele>
        <time>2020-08-06T04:00:25Z</time>
      </trkpt>
      <trkpt lat="42.44806" lon="2.83282">
        <ele>621</ele>
        <time>2020-08-06T04:00:38Z</time>
      </trkpt>
      <trkpt lat="42.44811" lon="2.83295">
        <ele>620</ele>
        <time>2020-08-06T04:00:44Z</time>
      </trkpt>
      <trkpt lat="42.44816" lon="2.83303">
        <ele>619</ele>
        <time>2020-08-06T04:00:48Z</time>
      </trkpt>
      <trkpt lat="42.44825" lon="2.8331">
        <ele>617</ele>
        <time>2020-08-06T04:00:53Z</time>
      </trkpt>
      <trkpt lat="42.4484" lon="2.83311">
        <ele>616</ele>
        <time>2020-08-06T04:01:00Z</time>
      </trkpt>
      <trkpt lat="42.44854" lon="2.83306">
        <ele>615</ele>
        <time>2020-08-06T04:01:08Z</time>
      </trkpt>
      <trkpt lat="42.44872" lon="2.83292">
        <ele>614</ele>
        <time>2020-08-06T04:01:18Z</time>
      </trkpt>
      <trkpt lat="42.44901" lon="2.83291">
        <ele>612</ele>
        <time>2020-08-06T04:01:32Z</time>
      </trkpt>
      <trkpt lat="42.44919" lon="2.83283">
        <ele>610</ele>
        <time>2020-08-06T04:01:42Z</time>
      </trkpt>
      <trkpt lat="42.44945" lon="2.83258">
        <ele>607</ele>
        <time>2020-08-06T04:01:58Z</time>
      </trkpt>
      <trkpt lat="42.44965" lon="2.83234">
        <ele>605</ele>
        <time>2020-08-06T04:02:11Z</time>
      </trkpt>
      <trkpt lat="42.45004" lon="2.83207">
        <ele>600</ele>
        <time>2020-08-06T04:02:33Z</time>
      </trkpt>
      <trkpt lat="42.45032" lon="2.83197">
        <ele>596</ele>
        <time>2020-08-06T04:02:48Z</time>
      </trkpt>
      <trkpt lat="42.4505" lon="2.83198">
        <ele>595</ele>
        <time>2020-08-06T04:02:57Z</time>
      </trkpt>
      <trkpt lat="42.45083" lon="2.83206">
        <ele>593</ele>
        <time>2020-08-06T04:03:13Z</time>
      </trkpt>
      <trkpt lat="42.45099" lon="2.8319">
        <ele>591</ele>
        <time>2020-08-06T04:03:23Z</time>
      </trkpt>
      <trkpt lat="42.45117" lon="2.83149">
        <ele>587</ele>
        <time>2020-08-06T04:03:41Z</time>
      </trkpt>
      <trkpt lat="42.45149" lon="2.83126">
        <ele>585</ele>
        <time>2020-08-06T04:03:59Z</time>
      </trkpt>
      <trkpt lat="42.45205" lon="2.83054">
        <ele>572</ele>
        <time>2020-08-06T04:04:38Z</time>
      </trkpt>
      <trkpt lat="42.45219" lon="2.83042">
        <ele>570</ele>
        <time>2020-08-06T04:04:46Z</time>
      </trkpt>
      <trkpt lat="42.45227" lon="2.83039">
        <ele>569</ele>
        <time>2020-08-06T04:04:50Z</time>
      </trkpt>
      <trkpt lat="42.45246" lon="2.83038">
        <ele>567</ele>
        <time>2020-08-06T04:05:00Z</time>
      </trkpt>
      <trkpt lat="42.45269" lon="2.83017">
        <ele>560</ele>
        <time>2020-08-06T04:05:14Z</time>
      </trkpt>
      <trkpt lat="42.45286" lon="2.83017">
        <ele>557</ele>
        <time>2020-08-06T04:05:22Z</time>
      </trkpt>
      <trkpt lat="42.453" lon="2.83024">
        <ele>556</ele>
        <time>2020-08-06T04:05:30Z</time>
      </trkpt>
      <trkpt lat="42.45314" lon="2.83044">
        <ele>557</ele>
        <time>2020-08-06T04:05:40Z</time>
      </trkpt>
      <trkpt lat="42.45329" lon="2.83086">
        <ele>559</ele>
        <time>2020-08-06T04:05:57Z</time>
      </trkpt>
      <trkpt lat="42.45364" lon="2.83112">
        <ele>553</ele>
        <time>2020-08-06T04:06:17Z</time>
      </trkpt>
      <trkpt lat="42.45398" lon="2.83153">
        <ele>548</ele>
        <time>2020-08-06T04:06:40Z</time>
      </trkpt>
      <trkpt lat="42.45404" lon="2.83165">
        <ele>548</ele>
        <time>2020-08-06T04:06:45Z</time>
      </trkpt>
      <trkpt lat="42.45411" lon="2.83202">
        <ele>548</ele>
        <time>2020-08-06T04:06:59Z</time>
      </trkpt>
      <trkpt lat="42.45439" lon="2.83265">
        <ele>539</ele>
        <time>2020-08-06T04:07:26Z</time>
      </trkpt>
      <trkpt lat="42.45441" lon="2.83272">
        <ele>538</ele>
        <time>2020-08-06T04:07:29Z</time>
      </trkpt>
      <trkpt lat="42.45441" lon="2.833">
        <ele>541</ele>
        <time>2020-08-06T04:07:39Z</time>
      </trkpt>
      <trkpt lat="42.45445" lon="2.83311">
        <ele>540</ele>
        <time>2020-08-06T04:07:44Z</time>
      </trkpt>
      <trkpt lat="42.45459" lon="2.83331">
        <ele>535</ele>
        <time>2020-08-06T04:07:54Z</time>
      </trkpt>
      <trkpt lat="42.45469" lon="2.83354">
        <ele>533</ele>
        <time>2020-08-06T04:08:04Z</time>
      </trkpt>
      <trkpt lat="42.45497" lon="2.83399">
        <ele>528</ele>
        <time>2020-08-06T04:08:26Z</time>
      </trkpt>
      <trkpt lat="42.45536" lon="2.83455">
        <ele>529</ele>
        <time>2020-08-06T04:08:54Z</time>
      </trkpt>
      <trkpt lat="42.4554" lon="2.83455">
        <ele>529</ele>
        <time>2020-08-06T04:08:56Z</time>
      </trkpt>
      <trkpt lat="42.45564" lon="2.8344">
        <ele>521</ele>
        <time>2020-08-06T04:09:09Z</time>
      </trkpt>
      <trkpt lat="42.45573" lon="2.83437">
        <ele>518</ele>
        <time>2020-08-06T04:09:14Z</time>
      </trkpt>
      <trkpt lat="42.45628" lon="2.83439">
        <ele>514</ele>
        <time>2020-08-06T04:09:42Z</time>
      </trkpt>
      <trkpt lat="42.45664" lon="2.83415">
        <ele>509</ele>
        <time>2020-08-06T04:10:02Z</time>
      </trkpt>
      <trkpt lat="42.4568" lon="2.834">
        <ele>505</ele>
        <time>2020-08-06T04:10:11Z</time>
      </trkpt>
      <trkpt lat="42.45703" lon="2.83373">
        <ele>502</ele>
        <time>2020-08-06T04:10:27Z</time>
      </trkpt>
      <trkpt lat="42.4572" lon="2.8334">
        <ele>499</ele>
        <time>2020-08-06T04:10:42Z</time>
      </trkpt>
      <trkpt lat="42.45734" lon="2.83322">
        <ele>498</ele>
        <time>2020-08-06T04:10:51Z</time>
      </trkpt>
      <trkpt lat="42.45759" lon="2.83297">
        <ele>493</ele>
        <time>2020-08-06T04:11:07Z</time>
      </trkpt>
      <trkpt lat="42.45772" lon="2.83289">
        <ele>490</ele>
        <time>2020-08-06T04:11:14Z</time>
      </trkpt>
      <trkpt lat="42.45785" lon="2.83288">
        <ele>488</ele>
        <time>2020-08-06T04:11:20Z</time>
      </trkpt>
      <trkpt lat="42.45804" lon="2.83301">
        <ele>489</ele>
        <time>2020-08-06T04:11:31Z</time>
      </trkpt>
      <trkpt lat="42.45817" lon="2.8333">
        <ele>491</ele>
        <time>2020-08-06T04:11:44Z</time>
      </trkpt>
      <trkpt lat="42.45819" lon="2.83343">
        <ele>491</ele>
        <time>2020-08-06T04:11:48Z</time>
      </trkpt>
      <trkpt lat="42.45818" lon="2.83376">
        <ele>489</ele>
        <time>2020-08-06T04:12:01Z</time>
      </trkpt>
      <trkpt lat="42.45805" lon="2.83481">
        <ele>485</ele>
        <time>2020-08-06T04:12:40Z</time>
      </trkpt>
      <trkpt lat="42.45799" lon="2.83551">
        <ele>481</ele>
        <time>2020-08-06T04:13:06Z</time>
      </trkpt>
      <trkpt lat="42.45807" lon="2.83593">
        <ele>473</ele>
        <time>2020-08-06T04:13:22Z</time>
      </trkpt>
      <trkpt lat="42.45808" lon="2.83618">
        <ele>470</ele>
        <time>2020-08-06T04:13:31Z</time>
      </trkpt>
      <trkpt lat="42.45802" lon="2.83651">
        <ele>469</ele>
        <time>2020-08-06T04:13:44Z</time>
      </trkpt>
      <trkpt lat="42.45792" lon="2.83678">
        <ele>470</ele>
        <time>2020-08-06T04:13:55Z</time>
      </trkpt>
      <trkpt lat="42.45788" lon="2.83683">
        <ele>471</ele>
        <time>2020-08-06T04:13:58Z</time>
      </trkpt>
      <trkpt lat="42.45785" lon="2.83696">
        <ele>471</ele>
        <time>2020-08-06T04:14:03Z</time>
      </trkpt>
      <trkpt lat="42.45787" lon="2.83707">
        <ele>470</ele>
        <time>2020-08-06T04:14:07Z</time>
      </trkpt>
      <trkpt lat="42.45802" lon="2.83734">
        <ele>465</ele>
        <time>2020-08-06T04:14:19Z</time>
      </trkpt>
      <trkpt lat="42.45804" lon="2.83763">
        <ele>465</ele>
        <time>2020-08-06T04:14:30Z</time>
      </trkpt>
      <trkpt lat="42.45808" lon="2.83781">
        <ele>464</ele>
        <time>2020-08-06T04:14:37Z</time>
      </trkpt>
      <trkpt lat="42.45812" lon="2.83785">
        <ele>464</ele>
        <time>2020-08-06T04:14:40Z</time>
      </trkpt>
      <trkpt lat="42.4582" lon="2.83787">
        <ele>463</ele>
        <time>2020-08-06T04:14:44Z</time>
      </trkpt>
      <trkpt lat="42.45832" lon="2.83781">
        <ele>462</ele>
        <time>2020-08-06T04:14:50Z</time>
      </trkpt>
      <trkpt lat="42.45862" lon="2.83756">
        <ele>461</ele>
        <time>2020-08-06T04:15:08Z</time>
      </trkpt>
      <trkpt lat="42.45879" lon="2.83748">
        <ele>460</ele>
        <time>2020-08-06T04:15:17Z</time>
      </trkpt>
      <trkpt lat="42.45903" lon="2.83721">
        <ele>455</ele>
        <time>2020-08-06T04:15:32Z</time>
      </trkpt>
      <trkpt lat="42.45939" lon="2.83688">
        <ele>446</ele>
        <time>2020-08-06T04:15:54Z</time>
      </trkpt>
      <trkpt lat="42.45975" lon="2.83668">
        <ele>440</ele>
        <time>2020-08-06T04:16:13Z</time>
      </trkpt>
      <trkpt lat="42.45988" lon="2.83666">
        <ele>439</ele>
        <time>2020-08-06T04:16:20Z</time>
      </trkpt>
      <trkpt lat="42.46017" lon="2.83681">
        <ele>439</ele>
        <time>2020-08-06T04:16:36Z</time>
      </trkpt>
      <trkpt lat="42.46035" lon="2.83687">
        <ele>438</ele>
        <time>2020-08-06T04:16:45Z</time>
      </trkpt>
      <trkpt lat="42.46064" lon="2.83684">
        <ele>433</ele>
        <time>2020-08-06T04:16:59Z</time>
      </trkpt>
      <trkpt lat="42.4608" lon="2.83691">
        <ele>433</ele>
        <time>2020-08-06T04:17:08Z</time>
      </trkpt>
      <trkpt lat="42.46093" lon="2.83693">
        <ele>432</ele>
        <time>2020-08-06T04:17:14Z</time>
      </trkpt>
      <trkpt lat="42.46123" lon="2.8368">
        <ele>426</ele>
        <time>2020-08-06T04:17:30Z</time>
      </trkpt>
      <trkpt lat="42.4614" lon="2.83683">
        <ele>424</ele>
        <time>2020-08-06T04:17:39Z</time>
      </trkpt>
      <trkpt lat="42.46168" lon="2.83727">
        <ele>427</ele>
        <time>2020-08-06T04:18:00Z</time>
      </trkpt>
      <trkpt lat="42.46182" lon="2.83733">
        <ele>426</ele>
        <time>2020-08-06T04:18:07Z</time>
      </trkpt>
      <trkpt lat="42.46191" lon="2.8373">
        <ele>424</ele>
        <time>2020-08-06T04:18:12Z</time>
      </trkpt>
      <trkpt lat="42.46198" lon="2.83724">
        <ele>422</ele>
        <time>2020-08-06T04:18:16Z</time>
      </trkpt>
      <trkpt lat="42.46216" lon="2.83687">
        <ele>415</ele>
        <time>2020-08-06T04:18:33Z</time>
      </trkpt>
      <trkpt lat="42.46227" lon="2.83681">
        <ele>412</ele>
        <time>2020-08-06T04:18:39Z</time>
      </trkpt>
      <trkpt lat="42.46236" lon="2.8368">
        <ele>411</ele>
        <time>2020-08-06T04:18:43Z</time>
      </trkpt>
      <trkpt lat="42.46242" lon="2.83705">
        <ele>413</ele>
        <time>2020-08-06T04:18:53Z</time>
      </trkpt>
      <trkpt lat="42.46234" lon="2.83733">
        <ele>418</ele>
        <time>2020-08-06T04:19:04Z</time>
      </trkpt>
      <trkpt lat="42.46238" lon="2.83758">
        <ele>419</ele>
        <time>2020-08-06T04:19:13Z</time>
      </trkpt>
      <trkpt lat="42.46235" lon="2.83811">
        <ele>417</ele>
        <time>2020-08-06T04:19:33Z</time>
      </trkpt>
      <trkpt lat="42.46203" lon="2.83872">
        <ele>417</ele>
        <time>2020-08-06T04:20:01Z</time>
      </trkpt>
      <trkpt lat="42.46182" lon="2.83885">
        <ele>421</ele>
        <time>2020-08-06T04:20:12Z</time>
      </trkpt>
      <trkpt lat="42.4617" lon="2.83901">
        <ele>421</ele>
        <time>2020-08-06T04:20:21Z</time>
      </trkpt>
      <trkpt lat="42.46161" lon="2.83905">
        <ele>424</ele>
        <time>2020-08-06T04:20:25Z</time>
      </trkpt>
      <trkpt lat="42.46158" lon="2.83913">
        <ele>424</ele>
        <time>2020-08-06T04:20:29Z</time>
      </trkpt>
      <trkpt lat="42.46168" lon="2.83963">
        <ele>418</ele>
        <time>2020-08-06T04:20:48Z</time>
      </trkpt>
      <trkpt lat="42.46168" lon="2.83985">
        <ele>418</ele>
        <time>2020-08-06T04:20:56Z</time>
      </trkpt>
      <trkpt lat="42.46177" lon="2.84">
        <ele>414</ele>
        <time>2020-08-06T04:21:03Z</time>
      </trkpt>
      <trkpt lat="42.46181" lon="2.84019">
        <ele>412</ele>
        <time>2020-08-06T04:21:10Z</time>
      </trkpt>
      <trkpt lat="42.46181" lon="2.84035">
        <ele>411</ele>
        <time>2020-08-06T04:21:16Z</time>
      </trkpt>
      <trkpt lat="42.46177" lon="2.84046">
        <ele>412</ele>
        <time>2020-08-06T04:21:21Z</time>
      </trkpt>
      <trkpt lat="42.46174" lon="2.84085">
        <ele>410</ele>
        <time>2020-08-06T04:21:35Z</time>
      </trkpt>
      <trkpt lat="42.46163" lon="2.84103">
        <ele>410</ele>
        <time>2020-08-06T04:21:44Z</time>
      </trkpt>
      <trkpt lat="42.46143" lon="2.8412">
        <ele>412</ele>
        <time>2020-08-06T04:21:56Z</time>
      </trkpt>
      <trkpt lat="42.46132" lon="2.84143">
        <ele>410</ele>
        <time>2020-08-06T04:22:06Z</time>
      </trkpt>
      <trkpt lat="42.46131" lon="2.84223">
        <ele>397</ele>
        <time>2020-08-06T04:22:35Z</time>
      </trkpt>
      <trkpt lat="42.4614" lon="2.8426">
        <ele>389</ele>
        <time>2020-08-06T04:22:50Z</time>
      </trkpt>
      <trkpt lat="42.46146" lon="2.84268">
        <ele>387</ele>
        <time>2020-08-06T04:22:54Z</time>
      </trkpt>
      <trkpt lat="42.46156" lon="2.84273">
        <ele>385</ele>
        <time>2020-08-06T04:22:59Z</time>
      </trkpt>
      <trkpt lat="42.46174" lon="2.84292">
        <ele>379</ele>
        <time>2020-08-06T04:23:11Z</time>
      </trkpt>
      <trkpt lat="42.46192" lon="2.84331">
        <ele>373</ele>
        <time>2020-08-06T04:23:28Z</time>
      </trkpt>
      <trkpt lat="42.46198" lon="2.8434">
        <ele>371</ele>
        <time>2020-08-06T04:23:32Z</time>
      </trkpt>
      <trkpt lat="42.46204" lon="2.84343">
        <ele>370</ele>
        <time>2020-08-06T04:23:35Z</time>
      </trkpt>
      <trkpt lat="42.46205" lon="2.84347">
        <ele>369</ele>
        <time>2020-08-06T04:23:37Z</time>
      </trkpt>
      <trkpt lat="42.46205" lon="2.84377">
        <ele>365</ele>
        <time>2020-08-06T04:23:48Z</time>
      </trkpt>
      <trkpt lat="42.46201" lon="2.84418">
        <ele>360</ele>
        <time>2020-08-06T04:24:03Z</time>
      </trkpt>
      <trkpt lat="42.46192" lon="2.8445">
        <ele>355</ele>
        <time>2020-08-06T04:24:16Z</time>
      </trkpt>
      <trkpt lat="42.46188" lon="2.8446">
        <ele>354</ele>
        <time>2020-08-06T04:24:20Z</time>
      </trkpt>
      <trkpt lat="42.46162" lon="2.84486">
        <ele>351</ele>
        <time>2020-08-06T04:24:36Z</time>
      </trkpt>
      <trkpt lat="42.46153" lon="2.8449">
        <ele>350</ele>
        <time>2020-08-06T04:24:41Z</time>
      </trkpt>
      <trkpt lat="42.46149" lon="2.84489">
        <ele>350</ele>
        <time>2020-08-06T04:24:43Z</time>
      </trkpt>
      <trkpt lat="42.46142" lon="2.8448">
        <ele>352</ele>
        <time>2020-08-06T04:24:48Z</time>
      </trkpt>
      <trkpt lat="42.46129" lon="2.84429">
        <ele>364</ele>
        <time>2020-08-06T04:25:08Z</time>
      </trkpt>
      <trkpt lat="42.46123" lon="2.84418">
        <ele>366</ele>
        <time>2020-08-06T04:25:13Z</time>
      </trkpt>
      <trkpt lat="42.46114" lon="2.84416">
        <ele>367</ele>
        <time>2020-08-06T04:25:17Z</time>
      </trkpt>
      <trkpt lat="42.46099" lon="2.8443">
        <ele>365</ele>
        <time>2020-08-06T04:25:26Z</time>
      </trkpt>
      <trkpt lat="42.46091" lon="2.84444">
        <ele>362</ele>
        <time>2020-08-06T04:25:33Z</time>
      </trkpt>
      <trkpt lat="42.46078" lon="2.84459">
        <ele>360</ele>
        <time>2020-08-06T04:25:42Z</time>
      </trkpt>
      <trkpt lat="42.46043" lon="2.84475">
        <ele>365</ele>
        <time>2020-08-06T04:26:00Z</time>
      </trkpt>
      <trkpt lat="42.46028" lon="2.84492">
        <ele>364</ele>
        <time>2020-08-06T04:26:10Z</time>
      </trkpt>
      <trkpt lat="42.46016" lon="2.84523">
        <ele>361</ele>
        <time>2020-08-06T04:26:23Z</time>
      </trkpt>
      <trkpt lat="42.46007" lon="2.84563">
        <ele>358</ele>
        <time>2020-08-06T04:26:38Z</time>
      </trkpt>
      <trkpt lat="42.45987" lon="2.84591">
        <ele>361</ele>
        <time>2020-08-06T04:26:53Z</time>
      </trkpt>
      <trkpt lat="42.45967" lon="2.84629">
        <ele>362</ele>
        <time>2020-08-06T04:27:10Z</time>
      </trkpt>
      <trkpt lat="42.45979" lon="2.8467">
        <ele>353</ele>
        <time>2020-08-06T04:27:26Z</time>
      </trkpt>
      <trkpt lat="42.45977" lon="2.84687">
        <ele>353</ele>
        <time>2020-08-06T04:27:32Z</time>
      </trkpt>
      <trkpt lat="42.45969" lon="2.8471">
        <ele>354</ele>
        <time>2020-08-06T04:27:42Z</time>
      </trkpt>
      <trkpt lat="42.45963" lon="2.84738">
        <ele>354</ele>
        <time>2020-08-06T04:27:53Z</time>
      </trkpt>
      <trkpt lat="42.45974" lon="2.84744">
        <ele>353</ele>
        <time>2020-08-06T04:27:59Z</time>
      </trkpt>
      <trkpt lat="42.45978" lon="2.8475">
        <ele>353</ele>
        <time>2020-08-06T04:28:02Z</time>
      </trkpt>
      <trkpt lat="42.45978" lon="2.84762">
        <ele>352</ele>
        <time>2020-08-06T04:28:06Z</time>
      </trkpt>
      <trkpt lat="42.45967" lon="2.848">
        <ele>351</ele>
        <time>2020-08-06T04:28:21Z</time>
      </trkpt>
      <trkpt lat="42.45961" lon="2.84818">
        <ele>349</ele>
        <time>2020-08-06T04:28:28Z</time>
      </trkpt>
      <trkpt lat="42.45953" lon="2.84831">
        <ele>348</ele>
        <time>2020-08-06T04:28:35Z</time>
      </trkpt>
      <trkpt lat="42.45921" lon="2.84838">
        <ele>346</ele>
        <time>2020-08-06T04:28:51Z</time>
      </trkpt>
      <trkpt lat="42.45914" lon="2.84847">
        <ele>344</ele>
        <time>2020-08-06T04:28:56Z</time>
      </trkpt>
      <trkpt lat="42.45913" lon="2.84856">
        <ele>343</ele>
        <time>2020-08-06T04:28:59Z</time>
      </trkpt>
      <trkpt lat="42.45932" lon="2.84879">
        <ele>340</ele>
        <time>2020-08-06T04:29:12Z</time>
      </trkpt>
      <trkpt lat="42.45932" lon="2.84895">
        <ele>338</ele>
        <time>2020-08-06T04:29:18Z</time>
      </trkpt>
      <trkpt lat="42.45919" lon="2.84905">
        <ele>336</ele>
        <time>2020-08-06T04:29:25Z</time>
      </trkpt>
      <trkpt lat="42.45898" lon="2.84911">
        <ele>336</ele>
        <time>2020-08-06T04:29:36Z</time>
      </trkpt>
      <trkpt lat="42.45887" lon="2.84917">
        <ele>336</ele>
        <time>2020-08-06T04:29:42Z</time>
      </trkpt>
      <trkpt lat="42.45862" lon="2.84943">
        <ele>333</ele>
        <time>2020-08-06T04:29:58Z</time>
      </trkpt>
      <trkpt lat="42.4585" lon="2.84958">
        <ele>332</ele>
        <time>2020-08-06T04:30:06Z</time>
      </trkpt>
      <trkpt lat="42.45836" lon="2.84992">
        <ele>327</ele>
        <time>2020-08-06T04:30:20Z</time>
      </trkpt>
      <trkpt lat="42.45822" lon="2.85006">
        <ele>327</ele>
        <time>2020-08-06T04:30:29Z</time>
      </trkpt>
      <trkpt lat="42.45807" lon="2.85015">
        <ele>328</ele>
        <time>2020-08-06T04:30:37Z</time>
      </trkpt>
      <trkpt lat="42.45798" lon="2.85041">
        <ele>326</ele>
        <time>2020-08-06T04:30:48Z</time>
      </trkpt>
      <trkpt lat="42.45781" lon="2.8507">
        <ele>325</ele>
        <time>2020-08-06T04:31:01Z</time>
      </trkpt>
      <trkpt lat="42.4578" lon="2.8509">
        <ele>323</ele>
        <time>2020-08-06T04:31:09Z</time>
      </trkpt>
      <trkpt lat="42.45784" lon="2.85122">
        <ele>322</ele>
        <time>2020-08-06T04:31:21Z</time>
      </trkpt>
      <trkpt lat="42.45794" lon="2.8514">
        <ele>321</ele>
        <time>2020-08-06T04:31:29Z</time>
      </trkpt>
      <trkpt lat="42.4582" lon="2.85163">
        <ele>319</ele>
        <time>2020-08-06T04:31:45Z</time>
      </trkpt>
      <trkpt lat="42.4583" lon="2.85175">
        <ele>317</ele>
        <time>2020-08-06T04:31:51Z</time>
      </trkpt>
      <trkpt lat="42.45833" lon="2.85183">
        <ele>316</ele>
        <time>2020-08-06T04:31:55Z</time>
      </trkpt>
      <trkpt lat="42.45832" lon="2.85195">
        <ele>315</ele>
        <time>2020-08-06T04:31:59Z</time>
      </trkpt>
      <trkpt lat="42.45825" lon="2.85213">
        <ele>313</ele>
        <time>2020-08-06T04:32:06Z</time>
      </trkpt>
      <trkpt lat="42.45819" lon="2.85223">
        <ele>313</ele>
        <time>2020-08-06T04:32:11Z</time>
      </trkpt>
      <trkpt lat="42.45813" lon="2.85227">
        <ele>313</ele>
        <time>2020-08-06T04:32:15Z</time>
      </trkpt>
      <trkpt lat="42.45807" lon="2.85229">
        <ele>314</ele>
        <time>2020-08-06T04:32:18Z</time>
      </trkpt>
      <trkpt lat="42.45785" lon="2.85229">
        <ele>317</ele>
        <time>2020-08-06T04:32:29Z</time>
      </trkpt>
      <trkpt lat="42.45777" lon="2.85235">
        <ele>317</ele>
        <time>2020-08-06T04:32:33Z</time>
      </trkpt>
      <trkpt lat="42.45751" lon="2.85275">
        <ele>315</ele>
        <time>2020-08-06T04:32:53Z</time>
      </trkpt>
      <trkpt lat="42.45727" lon="2.85299">
        <ele>315</ele>
        <time>2020-08-06T04:33:08Z</time>
      </trkpt>
      <trkpt lat="42.45714" lon="2.85321">
        <ele>313</ele>
        <time>2020-08-06T04:33:18Z</time>
      </trkpt>
      <trkpt lat="42.45682" lon="2.85388">
        <ele>309</ele>
        <time>2020-08-06T04:33:48Z</time>
      </trkpt>
      <trkpt lat="42.45677" lon="2.85417">
        <ele>306</ele>
        <time>2020-08-06T04:33:59Z</time>
      </trkpt>
      <trkpt lat="42.45673" lon="2.85427">
        <ele>306</ele>
        <time>2020-08-06T04:34:03Z</time>
      </trkpt>
      <trkpt lat="42.45664" lon="2.85432">
        <ele>307</ele>
        <time>2020-08-06T04:34:08Z</time>
      </trkpt>
      <trkpt lat="42.4564" lon="2.85428">
        <ele>310</ele>
        <time>2020-08-06T04:34:20Z</time>
      </trkpt>
      <trkpt lat="42.45627" lon="2.85434">
        <ele>311</ele>
        <time>2020-08-06T04:34:27Z</time>
      </trkpt>
      <trkpt lat="42.45603" lon="2.85483">
        <ele>311</ele>
        <time>2020-08-06T04:34:48Z</time>
      </trkpt>
      <trkpt lat="42.45593" lon="2.85497">
        <ele>311</ele>
        <time>2020-08-06T04:34:56Z</time>
      </trkpt>
      <trkpt lat="42.45587" lon="2.85496">
        <ele>312</ele>
        <time>2020-08-06T04:34:59Z</time>
      </trkpt>
      <trkpt lat="42.45567" lon="2.85537">
        <ele>314</ele>
        <time>2020-08-06T04:35:17Z</time>
      </trkpt>
      <trkpt lat="42.45516" lon="2.85618">
        <ele>321</ele>
        <time>2020-08-06T04:35:56Z</time>
      </trkpt>
      <trkpt lat="42.45476" lon="2.8571">
        <ele>321</ele>
        <time>2020-08-06T04:36:36Z</time>
      </trkpt>
      <trkpt lat="42.45461" lon="2.85735">
        <ele>321</ele>
        <time>2020-08-06T04:36:47Z</time>
      </trkpt>
      <trkpt lat="42.45449" lon="2.85762">
        <ele>321</ele>
        <time>2020-08-06T04:36:59Z</time>
      </trkpt>
      <trkpt lat="42.45446" lon="2.85757">
        <ele>320</ele>
        <time>2020-08-06T04:37:02Z</time>
      </trkpt>
      <trkpt lat="42.45434" lon="2.85772">
        <ele>320</ele>
        <time>2020-08-06T04:37:10Z</time>
      </trkpt>
      <trkpt lat="42.45432" lon="2.85781">
        <ele>320</ele>
        <time>2020-08-06T04:37:13Z</time>
      </trkpt>
      <trkpt lat="42.45438" lon="2.85799">
        <ele>322</ele>
        <time>2020-08-06T04:37:20Z</time>
      </trkpt>
      <trkpt lat="42.4545" lon="2.85808">
        <ele>324</ele>
        <time>2020-08-06T04:37:27Z</time>
      </trkpt>
      <trkpt lat="42.45458" lon="2.85841">
        <ele>328</ele>
        <time>2020-08-06T04:37:40Z</time>
      </trkpt>
      <trkpt lat="42.45463" lon="2.85845">
        <ele>330</ele>
        <time>2020-08-06T04:37:43Z</time>
      </trkpt>
      <trkpt lat="42.45469" lon="2.85842">
        <ele>330</ele>
        <time>2020-08-06T04:37:46Z</time>
      </trkpt>
      <trkpt lat="42.45487" lon="2.85864">
        <ele>337</ele>
        <time>2020-08-06T04:37:58Z</time>
      </trkpt>
      <trkpt lat="42.4549" lon="2.85865">
        <ele>338</ele>
        <time>2020-08-06T04:38:00Z</time>
      </trkpt>
      <trkpt lat="42.45491" lon="2.85874">
        <ele>339</ele>
        <time>2020-08-06T04:38:03Z</time>
      </trkpt>
      <trkpt lat="42.45496" lon="2.85882">
        <ele>342</ele>
        <time>2020-08-06T04:38:07Z</time>
      </trkpt>
      <trkpt lat="42.45497" lon="2.85898">
        <ele>344</ele>
        <time>2020-08-06T04:38:13Z</time>
      </trkpt>
      <trkpt lat="42.45495" lon="2.85901">
        <ele>344</ele>
        <time>2020-08-06T04:38:15Z</time>
      </trkpt>
      <trkpt lat="42.45499" lon="2.85909">
        <ele>347</ele>
        <time>2020-08-06T04:38:18Z</time>
      </trkpt>
      <trkpt lat="42.45505" lon="2.85912">
        <ele>348</ele>
        <time>2020-08-06T04:38:21Z</time>
      </trkpt>
      <trkpt lat="42.45513" lon="2.85903">
        <ele>348</ele>
        <time>2020-08-06T04:38:27Z</time>
      </trkpt>
      <trkpt lat="42.45517" lon="2.85905">
        <ele>349</ele>
        <time>2020-08-06T04:38:29Z</time>
      </trkpt>
      <trkpt lat="42.45528" lon="2.85932">
        <ele>355</ele>
        <time>2020-08-06T04:38:40Z</time>
      </trkpt>
      <trkpt lat="42.4554" lon="2.85945">
        <ele>359</ele>
        <time>2020-08-06T04:38:48Z</time>
      </trkpt>
      <trkpt lat="42.45544" lon="2.85962">
        <ele>362</ele>
        <time>2020-08-06T04:38:54Z</time>
      </trkpt>
      <trkpt lat="42.45551" lon="2.85965">
        <ele>364</ele>
        <time>2020-08-06T04:38:58Z</time>
      </trkpt>
      <trkpt lat="42.45554" lon="2.85971">
        <ele>366</ele>
        <time>2020-08-06T04:39:01Z</time>
      </trkpt>
      <trkpt lat="42.45557" lon="2.85971">
        <ele>366</ele>
        <time>2020-08-06T04:39:02Z</time>
      </trkpt>
      <trkpt lat="42.45566" lon="2.85983">
        <ele>370</ele>
        <time>2020-08-06T04:39:09Z</time>
      </trkpt>
      <trkpt lat="42.45573" lon="2.85987">
        <ele>372</ele>
        <time>2020-08-06T04:39:12Z</time>
      </trkpt>
      <trkpt lat="42.45572" lon="2.85995">
        <ele>374</ele>
        <time>2020-08-06T04:39:15Z</time>
      </trkpt>
      <trkpt lat="42.45579" lon="2.86008">
        <ele>376</ele>
        <time>2020-08-06T04:39:21Z</time>
      </trkpt>
      <trkpt lat="42.45583" lon="2.8601">
        <ele>377</ele>
        <time>2020-08-06T04:39:23Z</time>
      </trkpt>
      <trkpt lat="42.45605" lon="2.86008">
        <ele>379</ele>
        <time>2020-08-06T04:39:34Z</time>
      </trkpt>
      <trkpt lat="42.45609" lon="2.86004">
        <ele>379</ele>
        <time>2020-08-06T04:39:37Z</time>
      </trkpt>
      <trkpt lat="42.45643" lon="2.85994">
        <ele>382</ele>
        <time>2020-08-06T04:39:54Z</time>
      </trkpt>
      <trkpt lat="42.45648" lon="2.86014">
        <ele>383</ele>
        <time>2020-08-06T04:40:02Z</time>
      </trkpt>
      <trkpt lat="42.45668" lon="2.8604">
        <ele>383</ele>
        <time>2020-08-06T04:40:16Z</time>
      </trkpt>
      <trkpt lat="42.45677" lon="2.8604">
        <ele>384</ele>
        <time>2020-08-06T04:40:20Z</time>
      </trkpt>
      <trkpt lat="42.45729" lon="2.85963">
        <ele>397</ele>
        <time>2020-08-06T04:40:59Z</time>
      </trkpt>
      <trkpt lat="42.45757" lon="2.85943">
        <ele>405</ele>
        <time>2020-08-06T04:41:15Z</time>
      </trkpt>
      <trkpt lat="42.45764" lon="2.85934">
        <ele>407</ele>
        <time>2020-08-06T04:41:20Z</time>
      </trkpt>
      <trkpt lat="42.4575" lon="2.85906">
        <ele>405</ele>
        <time>2020-08-06T04:41:32Z</time>
      </trkpt>
      <trkpt lat="42.45764" lon="2.85881">
        <ele>406</ele>
        <time>2020-08-06T04:41:44Z</time>
      </trkpt>
      <trkpt lat="42.45768" lon="2.85868">
        <ele>406</ele>
        <time>2020-08-06T04:41:49Z</time>
      </trkpt>
      <trkpt lat="42.45763" lon="2.8583">
        <ele>401</ele>
        <time>2020-08-06T04:42:03Z</time>
      </trkpt>
      <trkpt lat="42.45779" lon="2.85826">
        <ele>403</ele>
        <time>2020-08-06T04:42:11Z</time>
      </trkpt>
      <trkpt lat="42.45789" lon="2.85815">
        <ele>402</ele>
        <time>2020-08-06T04:42:18Z</time>
      </trkpt>
      <trkpt lat="42.45794" lon="2.85789">
        <ele>398</ele>
        <time>2020-08-06T04:42:28Z</time>
      </trkpt>
      <trkpt lat="42.45813" lon="2.858">
        <ele>403</ele>
        <time>2020-08-06T04:42:38Z</time>
      </trkpt>
      <trkpt lat="42.45822" lon="2.85799">
        <ele>404</ele>
        <time>2020-08-06T04:42:43Z</time>
      </trkpt>
      <trkpt lat="42.45849" lon="2.85774">
        <ele>399</ele>
        <time>2020-08-06T04:42:59Z</time>
      </trkpt>
      <trkpt lat="42.4588" lon="2.85822">
        <ele>405</ele>
        <time>2020-08-06T04:43:22Z</time>
      </trkpt>
      <trkpt lat="42.45901" lon="2.8585">
        <ele>407</ele>
        <time>2020-08-06T04:43:37Z</time>
      </trkpt>
      <trkpt lat="42.45895" lon="2.85847">
        <ele>407</ele>
        <time>2020-08-06T04:43:40Z</time>
      </trkpt>
      <trkpt lat="42.45905" lon="2.85864">
        <ele>408</ele>
        <time>2020-08-06T04:43:48Z</time>
      </trkpt>
      <trkpt lat="42.45922" lon="2.85867">
        <ele>406</ele>
        <time>2020-08-06T04:43:57Z</time>
      </trkpt>
      <trkpt lat="42.45939" lon="2.85862">
        <ele>400</ele>
        <time>2020-08-06T04:44:06Z</time>
      </trkpt>
      <trkpt lat="42.45953" lon="2.85861">
        <ele>396</ele>
        <time>2020-08-06T04:44:13Z</time>
      </trkpt>
      <trkpt lat="42.45966" lon="2.8587">
        <ele>393</ele>
        <time>2020-08-06T04:44:20Z</time>
      </trkpt>
      <trkpt lat="42.45975" lon="2.85882">
        <ele>391</ele>
        <time>2020-08-06T04:44:26Z</time>
      </trkpt>
      <trkpt lat="42.45988" lon="2.85937">
        <ele>386</ele>
        <time>2020-08-06T04:44:48Z</time>
      </trkpt>
      <trkpt lat="42.46033" lon="2.85959">
        <ele>370</ele>
        <time>2020-08-06T04:45:12Z</time>
      </trkpt>
      <trkpt lat="42.46054" lon="2.86001">
        <ele>359</ele>
        <time>2020-08-06T04:45:30Z</time>
      </trkpt>
      <trkpt lat="42.46069" lon="2.86008">
        <ele>354</ele>
        <time>2020-08-06T04:45:38Z</time>
      </trkpt>
      <trkpt lat="42.46086" lon="2.86022">
        <ele>347</ele>
        <time>2020-08-06T04:45:48Z</time>
      </trkpt>
      <trkpt lat="42.46109" lon="2.86051">
        <ele>341</ele>
        <time>2020-08-06T04:46:04Z</time>
      </trkpt>
      <trkpt lat="42.4612" lon="2.86072">
        <ele>338</ele>
        <time>2020-08-06T04:46:14Z</time>
      </trkpt>
      <trkpt lat="42.46132" lon="2.86083">
        <ele>337</ele>
        <time>2020-08-06T04:46:21Z</time>
      </trkpt>
      <trkpt lat="42.46156" lon="2.86071">
        <ele>338</ele>
        <time>2020-08-06T04:46:34Z</time>
      </trkpt>
      <trkpt lat="42.4619" lon="2.86189">
        <ele>320</ele>
        <time>2020-08-06T04:47:20Z</time>
      </trkpt>
      <trkpt lat="42.46203" lon="2.86215">
        <ele>314</ele>
        <time>2020-08-06T04:47:32Z</time>
      </trkpt>
      <trkpt lat="42.46217" lon="2.86216">
        <ele>315</ele>
        <time>2020-08-06T04:47:39Z</time>
      </trkpt>
      <trkpt lat="42.46229" lon="2.86211">
        <ele>317</ele>
        <time>2020-08-06T04:47:45Z</time>
      </trkpt>
      <trkpt lat="42.46242" lon="2.86202">
        <ele>320</ele>
        <time>2020-08-06T04:47:53Z</time>
      </trkpt>
      <trkpt lat="42.46266" lon="2.86178">
        <ele>323</ele>
        <time>2020-08-06T04:48:07Z</time>
      </trkpt>
      <trkpt lat="42.46287" lon="2.86164">
        <ele>321</ele>
        <time>2020-08-06T04:48:19Z</time>
      </trkpt>
      <trkpt lat="42.46301" lon="2.8615">
        <ele>319</ele>
        <time>2020-08-06T04:48:28Z</time>
      </trkpt>
      <trkpt lat="42.46315" lon="2.86133">
        <ele>318</ele>
        <time>2020-08-06T04:48:37Z</time>
      </trkpt>
      <trkpt lat="42.46336" lon="2.86101">
        <ele>316</ele>
        <time>2020-08-06T04:48:53Z</time>
      </trkpt>
      <trkpt lat="42.46344" lon="2.86082">
        <ele>316</ele>
        <time>2020-08-06T04:49:01Z</time>
      </trkpt>
      <trkpt lat="42.46353" lon="2.86049">
        <ele>315</ele>
        <time>2020-08-06T04:49:14Z</time>
      </trkpt>
      <trkpt lat="42.46359" lon="2.86044">
        <ele>313</ele>
        <time>2020-08-06T04:49:18Z</time>
      </trkpt>
      <trkpt lat="42.46364" lon="2.8605">
        <ele>312</ele>
        <time>2020-08-06T04:49:21Z</time>
      </trkpt>
      <trkpt lat="42.46374" lon="2.86083">
        <ele>310</ele>
        <time>2020-08-06T04:49:34Z</time>
      </trkpt>
      <trkpt lat="42.46391" lon="2.8611">
        <ele>305</ele>
        <time>2020-08-06T04:49:47Z</time>
      </trkpt>
      <trkpt lat="42.46437" lon="2.8615">
        <ele>300</ele>
        <time>2020-08-06T04:50:15Z</time>
      </trkpt>
      <trkpt lat="42.46443" lon="2.86159">
        <ele>300</ele>
        <time>2020-08-06T04:50:19Z</time>
      </trkpt>
      <trkpt lat="42.46443" lon="2.86229">
        <ele>292</ele>
        <time>2020-08-06T04:50:45Z</time>
      </trkpt>
      <trkpt lat="42.46451" lon="2.86232">
        <ele>292</ele>
        <time>2020-08-06T04:50:49Z</time>
      </trkpt>
      <trkpt lat="42.46452" lon="2.86235">
        <ele>292</ele>
        <time>2020-08-06T04:50:50Z</time>
      </trkpt>
      <trkpt lat="42.46481" lon="2.8623">
        <ele>294</ele>
        <time>2020-08-06T04:51:05Z</time>
      </trkpt>
      <trkpt lat="42.46507" lon="2.8623">
        <ele>294</ele>
        <time>2020-08-06T04:51:18Z</time>
      </trkpt>
      <trkpt lat="42.46522" lon="2.86234">
        <ele>293</ele>
        <time>2020-08-06T04:51:26Z</time>
      </trkpt>
      <trkpt lat="42.46523" lon="2.86319">
        <ele>287</ele>
        <time>2020-08-06T04:51:57Z</time>
      </trkpt>
      <trkpt lat="42.46562" lon="2.86318">
        <ele>287</ele>
        <time>2020-08-06T04:52:17Z</time>
      </trkpt>
      <trkpt lat="42.46594" lon="2.86306">
        <ele>286</ele>
        <time>2020-08-06T04:52:33Z</time>
      </trkpt>
      <trkpt lat="42.46601" lon="2.86309">
        <ele>285</ele>
        <time>2020-08-06T04:52:37Z</time>
      </trkpt>
      <trkpt lat="42.46619" lon="2.86298">
        <ele>284</ele>
        <time>2020-08-06T04:52:47Z</time>
      </trkpt>
      <trkpt lat="42.46627" lon="2.86298">
        <ele>283</ele>
        <time>2020-08-06T04:52:51Z</time>
      </trkpt>
      <trkpt lat="42.46635" lon="2.86309">
        <ele>282</ele>
        <time>2020-08-06T04:52:56Z</time>
      </trkpt>
      <trkpt lat="42.46642" lon="2.86306">
        <ele>282</ele>
        <time>2020-08-06T04:53:00Z</time>
      </trkpt>
      <trkpt lat="42.46654" lon="2.8632">
        <ele>280</ele>
        <time>2020-08-06T04:53:08Z</time>
      </trkpt>
      <trkpt lat="42.46652" lon="2.86323">
        <ele>281</ele>
        <time>2020-08-06T04:53:09Z</time>
      </trkpt>
      <trkpt lat="42.46672" lon="2.86345">
        <ele>279</ele>
        <time>2020-08-06T04:53:22Z</time>
      </trkpt>
      <trkpt lat="42.46654" lon="2.86335">
        <ele>280</ele>
        <time>2020-08-06T04:53:32Z</time>
      </trkpt>
      <trkpt lat="42.46609" lon="2.86328">
        <ele>284</ele>
        <time>2020-08-06T04:53:55Z</time>
      </trkpt>
      <trkpt lat="42.46603" lon="2.86322">
        <ele>285</ele>
        <time>2020-08-06T04:53:58Z</time>
      </trkpt>
      <trkpt lat="42.46594" lon="2.86306">
        <ele>286</ele>
        <time>2020-08-06T04:54:06Z</time>
      </trkpt>
      <trkpt lat="42.46601" lon="2.86309">
        <ele>285</ele>
        <time>2020-08-06T04:54:10Z</time>
      </trkpt>
      <trkpt lat="42.46619" lon="2.86298">
        <ele>284</ele>
        <time>2020-08-06T04:54:19Z</time>
      </trkpt>
      <trkpt lat="42.46627" lon="2.86298">
        <ele>283</ele>
        <time>2020-08-06T04:54:23Z</time>
      </trkpt>
      <trkpt lat="42.46635" lon="2.86309">
        <ele>282</ele>
        <time>2020-08-06T04:54:29Z</time>
      </trkpt>
      <trkpt lat="42.46642" lon="2.86306">
        <ele>282</ele>
        <time>2020-08-06T04:54:33Z</time>
      </trkpt>
      <trkpt lat="42.46693" lon="2.86361">
        <ele>275</ele>
        <time>2020-08-06T04:55:05Z</time>
      </trkpt>
      <trkpt lat="42.46694" lon="2.86369">
        <ele>275</ele>
        <time>2020-08-06T04:55:08Z</time>
      </trkpt>
      <trkpt lat="42.46685" lon="2.864">
        <ele>282</ele>
        <time>2020-08-06T04:55:21Z</time>
      </trkpt>
      <trkpt lat="42.46677" lon="2.86443">
        <ele>288</ele>
        <time>2020-08-06T04:55:37Z</time>
      </trkpt>
      <trkpt lat="42.46677" lon="2.86491">
        <ele>287</ele>
        <time>2020-08-06T04:55:55Z</time>
      </trkpt>
      <trkpt lat="42.46671" lon="2.86511">
        <ele>289</ele>
        <time>2020-08-06T04:56:03Z</time>
      </trkpt>
      <trkpt lat="42.4666" lon="2.86535">
        <ele>291</ele>
        <time>2020-08-06T04:56:13Z</time>
      </trkpt>
      <trkpt lat="42.46656" lon="2.86535">
        <ele>292</ele>
        <time>2020-08-06T04:56:15Z</time>
      </trkpt>
      <trkpt lat="42.46648" lon="2.86546">
        <ele>293</ele>
        <time>2020-08-06T04:56:21Z</time>
      </trkpt>
      <trkpt lat="42.46639" lon="2.86579">
        <ele>295</ele>
        <time>2020-08-06T04:56:34Z</time>
      </trkpt>
      <trkpt lat="42.46634" lon="2.86588">
        <ele>297</ele>
        <time>2020-08-06T04:56:38Z</time>
      </trkpt>
      <trkpt lat="42.46618" lon="2.86605">
        <ele>303</ele>
        <time>2020-08-06T04:56:48Z</time>
      </trkpt>
      <trkpt lat="42.46619" lon="2.86652">
        <ele>310</ele>
        <time>2020-08-06T04:57:06Z</time>
      </trkpt>
      <trkpt lat="42.46616" lon="2.86654">
        <ele>311</ele>
        <time>2020-08-06T04:57:07Z</time>
      </trkpt>
      <trkpt lat="42.46611" lon="2.86651">
        <ele>311</ele>
        <time>2020-08-06T04:57:10Z</time>
      </trkpt>
      <trkpt lat="42.46596" lon="2.86607">
        <ele>308</ele>
        <time>2020-08-06T04:57:28Z</time>
      </trkpt>
      <trkpt lat="42.46588" lon="2.86596">
        <ele>309</ele>
        <time>2020-08-06T04:57:34Z</time>
      </trkpt>
      <trkpt lat="42.46581" lon="2.86602">
        <ele>310</ele>
        <time>2020-08-06T04:57:38Z</time>
      </trkpt>
      <trkpt lat="42.46576" lon="2.86613">
        <ele>311</ele>
        <time>2020-08-06T04:57:43Z</time>
      </trkpt>
      <trkpt lat="42.46575" lon="2.86622">
        <ele>312</ele>
        <time>2020-08-06T04:57:46Z</time>
      </trkpt>
      <trkpt lat="42.46576" lon="2.86656">
        <ele>315</ele>
        <time>2020-08-06T04:57:58Z</time>
      </trkpt>
      <trkpt lat="42.46574" lon="2.86673">
        <ele>317</ele>
        <time>2020-08-06T04:58:05Z</time>
      </trkpt>
      <trkpt lat="42.4659" lon="2.86697">
        <ele>321</ele>
        <time>2020-08-06T04:58:17Z</time>
      </trkpt>
      <trkpt lat="42.46593" lon="2.86709">
        <ele>324</ele>
        <time>2020-08-06T04:58:21Z</time>
      </trkpt>
      <trkpt lat="42.46597" lon="2.86711">
        <ele>324</ele>
        <time>2020-08-06T04:58:24Z</time>
      </trkpt>
      <trkpt lat="42.46596" lon="2.86724">
        <ele>327</ele>
        <time>2020-08-06T04:58:28Z</time>
      </trkpt>
      <trkpt lat="42.46604" lon="2.86737">
        <ele>331</ele>
        <time>2020-08-06T04:58:35Z</time>
      </trkpt>
      <trkpt lat="42.46608" lon="2.86755">
        <ele>335</ele>
        <time>2020-08-06T04:58:42Z</time>
      </trkpt>
      <trkpt lat="42.46604" lon="2.86883">
        <ele>357</ele>
        <time>2020-08-06T04:59:29Z</time>
      </trkpt>
      <trkpt lat="42.46595" lon="2.86923">
        <ele>362</ele>
        <time>2020-08-06T04:59:44Z</time>
      </trkpt>
      <trkpt lat="42.466" lon="2.86976">
        <ele>374</ele>
        <time>2020-08-06T05:00:04Z</time>
      </trkpt>
      <trkpt lat="42.46606" lon="2.86996">
        <ele>379</ele>
        <time>2020-08-06T05:00:12Z</time>
      </trkpt>
      <trkpt lat="42.46622" lon="2.87033">
        <ele>388</ele>
        <time>2020-08-06T05:00:28Z</time>
      </trkpt>
      <trkpt lat="42.46624" lon="2.87046">
        <ele>390</ele>
        <time>2020-08-06T05:00:33Z</time>
      </trkpt>
      <trkpt lat="42.46623" lon="2.87084">
        <ele>396</ele>
        <time>2020-08-06T05:00:47Z</time>
      </trkpt>
      <trkpt lat="42.46624" lon="2.87099">
        <ele>398</ele>
        <time>2020-08-06T05:00:52Z</time>
      </trkpt>
      <trkpt lat="42.46626" lon="2.87101">
        <ele>399</ele>
        <time>2020-08-06T05:00:54Z</time>
      </trkpt>
      <trkpt lat="42.46642" lon="2.87022">
        <ele>390</ele>
        <time>2020-08-06T05:01:24Z</time>
      </trkpt>
      <trkpt lat="42.46646" lon="2.87014">
        <ele>389</ele>
        <time>2020-08-06T05:01:27Z</time>
      </trkpt>
      <trkpt lat="42.46686" lon="2.86966">
        <ele>390</ele>
        <time>2020-08-06T05:01:54Z</time>
      </trkpt>
      <trkpt lat="42.46698" lon="2.86956">
        <ele>391</ele>
        <time>2020-08-06T05:02:01Z</time>
      </trkpt>
      <trkpt lat="42.46729" lon="2.86944">
        <ele>395</ele>
        <time>2020-08-06T05:02:17Z</time>
      </trkpt>
      <trkpt lat="42.46736" lon="2.86943">
        <ele>397</ele>
        <time>2020-08-06T05:02:21Z</time>
      </trkpt>
      <trkpt lat="42.46738" lon="2.86946">
        <ele>398</ele>
        <time>2020-08-06T05:02:22Z</time>
      </trkpt>
      <trkpt lat="42.46736" lon="2.86953">
        <ele>399</ele>
        <time>2020-08-06T05:02:25Z</time>
      </trkpt>
      <trkpt lat="42.46715" lon="2.86981">
        <ele>400</ele>
        <time>2020-08-06T05:02:40Z</time>
      </trkpt>
      <trkpt lat="42.46704" lon="2.8702">
        <ele>403</ele>
        <time>2020-08-06T05:02:55Z</time>
      </trkpt>
      <trkpt lat="42.46698" lon="2.87052">
        <ele>405</ele>
        <time>2020-08-06T05:03:07Z</time>
      </trkpt>
      <trkpt lat="42.46695" lon="2.87113">
        <ele>410</ele>
        <time>2020-08-06T05:03:30Z</time>
      </trkpt>
      <trkpt lat="42.46675" lon="2.8714">
        <ele>411</ele>
        <time>2020-08-06T05:03:44Z</time>
      </trkpt>
      <trkpt lat="42.46669" lon="2.87154">
        <ele>412</ele>
        <time>2020-08-06T05:03:50Z</time>
      </trkpt>
      <trkpt lat="42.46651" lon="2.87216">
        <ele>419</ele>
        <time>2020-08-06T05:04:15Z</time>
      </trkpt>
      <trkpt lat="42.46628" lon="2.87279">
        <ele>426</ele>
        <time>2020-08-06T05:04:41Z</time>
      </trkpt>
      <trkpt lat="42.46607" lon="2.87398">
        <ele>443</ele>
        <time>2020-08-06T05:05:26Z</time>
      </trkpt>
      <trkpt lat="42.46601" lon="2.87417">
        <ele>446</ele>
        <time>2020-08-06T05:05:33Z</time>
      </trkpt>
      <trkpt lat="42.46575" lon="2.87465">
        <ele>457</ele>
        <time>2020-08-06T05:05:55Z</time>
      </trkpt>
      <trkpt lat="42.4655" lon="2.87504">
        <ele>465</ele>
        <time>2020-08-06T05:06:15Z</time>
      </trkpt>
      <trkpt lat="42.46535" lon="2.87522">
        <ele>468</ele>
        <time>2020-08-06T05:06:25Z</time>
      </trkpt>
      <trkpt lat="42.46521" lon="2.87533">
        <ele>470</ele>
        <time>2020-08-06T05:06:33Z</time>
      </trkpt>
      <trkpt lat="42.46515" lon="2.87638">
        <ele>488</ele>
        <time>2020-08-06T05:07:12Z</time>
      </trkpt>
      <trkpt lat="42.46492" lon="2.87701">
        <ele>496</ele>
        <time>2020-08-06T05:07:37Z</time>
      </trkpt>
      <trkpt lat="42.46458" lon="2.87755">
        <ele>502</ele>
        <time>2020-08-06T05:08:04Z</time>
      </trkpt>
      <trkpt lat="42.46457" lon="2.87763">
        <ele>502</ele>
        <time>2020-08-06T05:08:07Z</time>
      </trkpt>
      <trkpt lat="42.46464" lon="2.87823">
        <ele>502</ele>
        <time>2020-08-06T05:08:29Z</time>
      </trkpt>
      <trkpt lat="42.46432" lon="2.8794">
        <ele>511</ele>
        <time>2020-08-06T05:09:15Z</time>
      </trkpt>
      <trkpt lat="42.46427" lon="2.8801">
        <ele>510</ele>
        <time>2020-08-06T05:09:41Z</time>
      </trkpt>
      <trkpt lat="42.46403" lon="2.87982">
        <ele>522</ele>
        <time>2020-08-06T05:09:57Z</time>
      </trkpt>
      <trkpt lat="42.46397" lon="2.87979">
        <ele>524</ele>
        <time>2020-08-06T05:10:00Z</time>
      </trkpt>
      <trkpt lat="42.46354" lon="2.88082">
        <ele>537</ele>
        <time>2020-08-06T05:10:44Z</time>
      </trkpt>
      <trkpt lat="42.46345" lon="2.88076">
        <ele>541</ele>
        <time>2020-08-06T05:10:49Z</time>
      </trkpt>
      <trkpt lat="42.46337" lon="2.88108">
        <ele>540</ele>
        <time>2020-08-06T05:11:01Z</time>
      </trkpt>
      <trkpt lat="42.4632" lon="2.88138">
        <ele>544</ele>
        <time>2020-08-06T05:11:15Z</time>
      </trkpt>
      <trkpt lat="42.46293" lon="2.88177">
        <ele>551</ele>
        <time>2020-08-06T05:11:35Z</time>
      </trkpt>
      <trkpt lat="42.46274" lon="2.88217">
        <ele>555</ele>
        <time>2020-08-06T05:11:53Z</time>
      </trkpt>
      <trkpt lat="42.46245" lon="2.88261">
        <ele>563</ele>
        <time>2020-08-06T05:12:14Z</time>
      </trkpt>
      <trkpt lat="42.46236" lon="2.88281">
        <ele>566</ele>
        <time>2020-08-06T05:12:23Z</time>
      </trkpt>
      <trkpt lat="42.46226" lon="2.88317">
        <ele>569</ele>
        <time>2020-08-06T05:12:37Z</time>
      </trkpt>
      <trkpt lat="42.46226" lon="2.88327">
        <ele>568</ele>
        <time>2020-08-06T05:12:41Z</time>
      </trkpt>
      <trkpt lat="42.46235" lon="2.88363">
        <ele>564</ele>
        <time>2020-08-06T05:12:55Z</time>
      </trkpt>
      <trkpt lat="42.46227" lon="2.88449">
        <ele>568</ele>
        <time>2020-08-06T05:13:27Z</time>
      </trkpt>
      <trkpt lat="42.46217" lon="2.88466">
        <ele>571</ele>
        <time>2020-08-06T05:13:35Z</time>
      </trkpt>
      <trkpt lat="42.462" lon="2.88487">
        <ele>577</ele>
        <time>2020-08-06T05:13:47Z</time>
      </trkpt>
      <trkpt lat="42.46176" lon="2.8851">
        <ele>585</ele>
        <time>2020-08-06T05:14:01Z</time>
      </trkpt>
      <trkpt lat="42.4616" lon="2.88532">
        <ele>589</ele>
        <time>2020-08-06T05:14:13Z</time>
      </trkpt>
      <trkpt lat="42.46148" lon="2.88556">
        <ele>591</ele>
        <time>2020-08-06T05:14:23Z</time>
      </trkpt>
      <trkpt lat="42.46121" lon="2.88638">
        <ele>596</ele>
        <time>2020-08-06T05:14:56Z</time>
      </trkpt>
      <trkpt lat="42.46108" lon="2.88705">
        <ele>599</ele>
        <time>2020-08-06T05:15:22Z</time>
      </trkpt>
      <trkpt lat="42.461" lon="2.88729">
        <ele>601</ele>
        <time>2020-08-06T05:15:32Z</time>
      </trkpt>
      <trkpt lat="42.46133" lon="2.88789">
        <ele>603</ele>
        <time>2020-08-06T05:15:59Z</time>
      </trkpt>
      <trkpt lat="42.46155" lon="2.88788">
        <ele>604</ele>
        <time>2020-08-06T05:16:10Z</time>
      </trkpt>
      <trkpt lat="42.46204" lon="2.88773">
        <ele>598</ele>
        <time>2020-08-06T05:16:36Z</time>
      </trkpt>
      <trkpt lat="42.46238" lon="2.88784">
        <ele>599</ele>
        <time>2020-08-06T05:16:53Z</time>
      </trkpt>
      <trkpt lat="42.46265" lon="2.88801">
        <ele>599</ele>
        <time>2020-08-06T05:17:08Z</time>
      </trkpt>
      <trkpt lat="42.46284" lon="2.8883">
        <ele>600</ele>
        <time>2020-08-06T05:17:22Z</time>
      </trkpt>
      <trkpt lat="42.46294" lon="2.88853">
        <ele>597</ele>
        <time>2020-08-06T05:17:32Z</time>
      </trkpt>
      <trkpt lat="42.46288" lon="2.88891">
        <ele>599</ele>
        <time>2020-08-06T05:17:46Z</time>
      </trkpt>
      <trkpt lat="42.46277" lon="2.8892">
        <ele>603</ele>
        <time>2020-08-06T05:17:59Z</time>
      </trkpt>
      <trkpt lat="42.46254" lon="2.88968">
        <ele>610</ele>
        <time>2020-08-06T05:18:20Z</time>
      </trkpt>
      <trkpt lat="42.46247" lon="2.88999">
        <ele>610</ele>
        <time>2020-08-06T05:18:32Z</time>
      </trkpt>
      <trkpt lat="42.46248" lon="2.89008">
        <ele>610</ele>
        <time>2020-08-06T05:18:35Z</time>
      </trkpt>
      <trkpt lat="42.46255" lon="2.89021">
        <ele>608</ele>
        <time>2020-08-06T05:18:41Z</time>
      </trkpt>
      <trkpt lat="42.46266" lon="2.89064">
        <ele>606</ele>
        <time>2020-08-06T05:18:58Z</time>
      </trkpt>
      <trkpt lat="42.4627" lon="2.89169">
        <ele>605</ele>
        <time>2020-08-06T05:19:37Z</time>
      </trkpt>
      <trkpt lat="42.46269" lon="2.89202">
        <ele>606</ele>
        <time>2020-08-06T05:19:49Z</time>
      </trkpt>
      <trkpt lat="42.46262" lon="2.89246">
        <ele>610</ele>
        <time>2020-08-06T05:20:05Z</time>
      </trkpt>
      <trkpt lat="42.46262" lon="2.89262">
        <ele>610</ele>
        <time>2020-08-06T05:20:11Z</time>
      </trkpt>
      <trkpt lat="42.46272" lon="2.89306">
        <ele>604</ele>
        <time>2020-08-06T05:20:28Z</time>
      </trkpt>
      <trkpt lat="42.46275" lon="2.89334">
        <ele>603</ele>
        <time>2020-08-06T05:20:39Z</time>
      </trkpt>
      <trkpt lat="42.46274" lon="2.89344">
        <ele>602</ele>
        <time>2020-08-06T05:20:42Z</time>
      </trkpt>
      <trkpt lat="42.46269" lon="2.89353">
        <ele>604</ele>
        <time>2020-08-06T05:20:47Z</time>
      </trkpt>
      <trkpt lat="42.46246" lon="2.89385">
        <ele>610</ele>
        <time>2020-08-06T05:21:03Z</time>
      </trkpt>
      <trkpt lat="42.46237" lon="2.89402">
        <ele>612</ele>
        <time>2020-08-06T05:21:11Z</time>
      </trkpt>
      <trkpt lat="42.46231" lon="2.89417">
        <ele>613</ele>
        <time>2020-08-06T05:21:17Z</time>
      </trkpt>
      <trkpt lat="42.46227" lon="2.89436">
        <ele>614</ele>
        <time>2020-08-06T05:21:24Z</time>
      </trkpt>
      <trkpt lat="42.46225" lon="2.89462">
        <ele>614</ele>
        <time>2020-08-06T05:21:34Z</time>
      </trkpt>
      <trkpt lat="42.46238" lon="2.89542">
        <ele>605</ele>
        <time>2020-08-06T05:22:04Z</time>
      </trkpt>
      <trkpt lat="42.4623" lon="2.89569">
        <ele>606</ele>
        <time>2020-08-06T05:22:15Z</time>
      </trkpt>
      <trkpt lat="42.4619" lon="2.89601">
        <ele>617</ele>
        <time>2020-08-06T05:22:38Z</time>
      </trkpt>
      <trkpt lat="42.46172" lon="2.8965">
        <ele>616</ele>
        <time>2020-08-06T05:22:58Z</time>
      </trkpt>
      <trkpt lat="42.46141" lon="2.89701">
        <ele>618</ele>
        <time>2020-08-06T05:23:23Z</time>
      </trkpt>
      <trkpt lat="42.46131" lon="2.89728">
        <ele>617</ele>
        <time>2020-08-06T05:23:34Z</time>
      </trkpt>
      <trkpt lat="42.46093" lon="2.8986">
        <ele>619</ele>
        <time>2020-08-06T05:24:26Z</time>
      </trkpt>
      <trkpt lat="42.46098" lon="2.89928">
        <ele>614</ele>
        <time>2020-08-06T05:24:52Z</time>
      </trkpt>
      <trkpt lat="42.46093" lon="2.89959">
        <ele>614</ele>
        <time>2020-08-06T05:25:03Z</time>
      </trkpt>
      <trkpt lat="42.46072" lon="2.90002">
        <ele>616</ele>
        <time>2020-08-06T05:25:22Z</time>
      </trkpt>
      <trkpt lat="42.46039" lon="2.90022">
        <ele>621</ele>
        <time>2020-08-06T05:25:40Z</time>
      </trkpt>
      <trkpt lat="42.46023" lon="2.90058">
        <ele>618</ele>
        <time>2020-08-06T05:25:56Z</time>
      </trkpt>
      <trkpt lat="42.46019" lon="2.90074">
        <ele>617</ele>
        <time>2020-08-06T05:26:02Z</time>
      </trkpt>
      <trkpt lat="42.46" lon="2.90087">
        <ele>618</ele>
        <time>2020-08-06T05:26:13Z</time>
      </trkpt>
      <trkpt lat="42.45965" lon="2.90103">
        <ele>625</ele>
        <time>2020-08-06T05:26:31Z</time>
      </trkpt>
      <trkpt lat="42.45939" lon="2.90122">
        <ele>629</ele>
        <time>2020-08-06T05:26:46Z</time>
      </trkpt>
      <trkpt lat="42.45927" lon="2.90162">
        <ele>627</ele>
        <time>2020-08-06T05:27:02Z</time>
      </trkpt>
      <trkpt lat="42.45923" lon="2.90211">
        <ele>628</ele>
        <time>2020-08-06T05:27:20Z</time>
      </trkpt>
      <trkpt lat="42.45951" lon="2.90274">
        <ele>621</ele>
        <time>2020-08-06T05:27:47Z</time>
      </trkpt>
      <trkpt lat="42.45968" lon="2.90301">
        <ele>617</ele>
        <time>2020-08-06T05:28:00Z</time>
      </trkpt>
      <trkpt lat="42.45966" lon="2.90348">
        <ele>619</ele>
        <time>2020-08-06T05:28:18Z</time>
      </trkpt>
      <trkpt lat="42.45957" lon="2.9038">
        <ele>619</ele>
        <time>2020-08-06T05:28:31Z</time>
      </trkpt>
      <trkpt lat="42.45933" lon="2.90388">
        <ele>626</ele>
        <time>2020-08-06T05:28:43Z</time>
      </trkpt>
      <trkpt lat="42.45906" lon="2.90409">
        <ele>632</ele>
        <time>2020-08-06T05:28:58Z</time>
      </trkpt>
      <trkpt lat="42.45902" lon="2.90443">
        <ele>634</ele>
        <time>2020-08-06T05:29:11Z</time>
      </trkpt>
      <trkpt lat="42.45922" lon="2.90487">
        <ele>629</ele>
        <time>2020-08-06T05:29:30Z</time>
      </trkpt>
      <trkpt lat="42.45928" lon="2.90519">
        <ele>629</ele>
        <time>2020-08-06T05:29:42Z</time>
      </trkpt>
      <trkpt lat="42.45923" lon="2.90606">
        <ele>636</ele>
        <time>2020-08-06T05:30:15Z</time>
      </trkpt>
      <trkpt lat="42.45929" lon="2.90635">
        <ele>638</ele>
        <time>2020-08-06T05:30:26Z</time>
      </trkpt>
      <trkpt lat="42.45985" lon="2.90652">
        <ele>628</ele>
        <time>2020-08-06T05:30:54Z</time>
      </trkpt>
      <trkpt lat="42.46004" lon="2.90683">
        <ele>632</ele>
        <time>2020-08-06T05:31:09Z</time>
      </trkpt>
      <trkpt lat="42.46036" lon="2.90713">
        <ele>631</ele>
        <time>2020-08-06T05:31:29Z</time>
      </trkpt>
      <trkpt lat="42.46068" lon="2.90739">
        <ele>628</ele>
        <time>2020-08-06T05:31:48Z</time>
      </trkpt>
      <trkpt lat="42.4609" lon="2.90834">
        <ele>638</ele>
        <time>2020-08-06T05:32:24Z</time>
      </trkpt>
      <trkpt lat="42.46116" lon="2.90874">
        <ele>634</ele>
        <time>2020-08-06T05:32:44Z</time>
      </trkpt>
      <trkpt lat="42.46124" lon="2.90909">
        <ele>635</ele>
        <time>2020-08-06T05:32:57Z</time>
      </trkpt>
      <trkpt lat="42.46097" lon="2.91001">
        <ele>650</ele>
        <time>2020-08-06T05:33:34Z</time>
      </trkpt>
      <trkpt lat="42.46106" lon="2.91021">
        <ele>650</ele>
        <time>2020-08-06T05:33:43Z</time>
      </trkpt>
      <trkpt lat="42.46161" lon="2.91018">
        <ele>636</ele>
        <time>2020-08-06T05:34:10Z</time>
      </trkpt>
      <trkpt lat="42.4619" lon="2.91021">
        <ele>631</ele>
        <time>2020-08-06T05:34:25Z</time>
      </trkpt>
      <trkpt lat="42.46189" lon="2.91056">
        <ele>637</ele>
        <time>2020-08-06T05:34:38Z</time>
      </trkpt>
      <trkpt lat="42.46193" lon="2.9109">
        <ele>641</ele>
        <time>2020-08-06T05:34:50Z</time>
      </trkpt>
      <trkpt lat="42.46227" lon="2.91135">
        <ele>640</ele>
        <time>2020-08-06T05:35:14Z</time>
      </trkpt>
      <trkpt lat="42.46255" lon="2.91159">
        <ele>636</ele>
        <time>2020-08-06T05:35:31Z</time>
      </trkpt>
      <trkpt lat="42.46281" lon="2.91246">
        <ele>641</ele>
        <time>2020-08-06T05:36:05Z</time>
      </trkpt>
      <trkpt lat="42.46273" lon="2.91307">
        <ele>645</ele>
        <time>2020-08-06T05:36:28Z</time>
      </trkpt>
      <trkpt lat="42.46255" lon="2.9137">
        <ele>652</ele>
        <time>2020-08-06T05:36:53Z</time>
      </trkpt>
      <trkpt lat="42.46247" lon="2.91496">
        <ele>663</ele>
        <time>2020-08-06T05:37:40Z</time>
      </trkpt>
      <trkpt lat="42.46253" lon="2.91509">
        <ele>665</ele>
        <time>2020-08-06T05:37:46Z</time>
      </trkpt>
      <trkpt lat="42.46332" lon="2.91428">
        <ele>650</ele>
        <time>2020-08-06T05:38:35Z</time>
      </trkpt>
      <trkpt lat="42.4637" lon="2.91401">
        <ele>645</ele>
        <time>2020-08-06T05:38:57Z</time>
      </trkpt>
      <trkpt lat="42.46396" lon="2.91401">
        <ele>646</ele>
        <time>2020-08-06T05:39:10Z</time>
      </trkpt>
      <trkpt lat="42.46427" lon="2.91402">
        <ele>647</ele>
        <time>2020-08-06T05:39:25Z</time>
      </trkpt>
      <trkpt lat="42.46456" lon="2.91429">
        <ele>652</ele>
        <time>2020-08-06T05:39:43Z</time>
      </trkpt>
      <trkpt lat="42.46473" lon="2.91457">
        <ele>656</ele>
        <time>2020-08-06T05:39:56Z</time>
      </trkpt>
      <trkpt lat="42.46551" lon="2.91511">
        <ele>670</ele>
        <time>2020-08-06T05:40:40Z</time>
      </trkpt>
      <trkpt lat="42.466" lon="2.91435">
        <ele>677</ele>
        <time>2020-08-06T05:41:17Z</time>
      </trkpt>
      <trkpt lat="42.46653" lon="2.91434">
        <ele>698</ele>
        <time>2020-08-06T05:41:44Z</time>
      </trkpt>
      <trkpt lat="42.46819" lon="2.91324">
        <ele>714</ele>
        <time>2020-08-06T05:43:16Z</time>
      </trkpt>
      <trkpt lat="42.46818" lon="2.91321">
        <ele>713</ele>
        <time>2020-08-06T05:43:17Z</time>
      </trkpt>
      <trkpt lat="42.46825" lon="2.91318">
        <ele>714</ele>
        <time>2020-08-06T05:43:21Z</time>
      </trkpt>
      <trkpt lat="42.46841" lon="2.91334">
        <ele>716</ele>
        <time>2020-08-06T05:43:31Z</time>
      </trkpt>
      <trkpt lat="42.46852" lon="2.91362">
        <ele>722</ele>
        <time>2020-08-06T05:43:43Z</time>
      </trkpt>
      <trkpt lat="42.46856" lon="2.91367">
        <ele>722</ele>
        <time>2020-08-06T05:43:45Z</time>
      </trkpt>
      <trkpt lat="42.46862" lon="2.91387">
        <ele>727</ele>
        <time>2020-08-06T05:43:53Z</time>
      </trkpt>
      <trkpt lat="42.46861" lon="2.91391">
        <ele>728</ele>
        <time>2020-08-06T05:43:55Z</time>
      </trkpt>
      <trkpt lat="42.46871" lon="2.9142">
        <ele>734</ele>
        <time>2020-08-06T05:44:07Z</time>
      </trkpt>
      <trkpt lat="42.46879" lon="2.91466">
        <ele>745</ele>
        <time>2020-08-06T05:44:24Z</time>
      </trkpt>
      <trkpt lat="42.46884" lon="2.91482">
        <ele>748</ele>
        <time>2020-08-06T05:44:31Z</time>
      </trkpt>
      <trkpt lat="42.46879" lon="2.91523">
        <ele>757</ele>
        <time>2020-08-06T05:44:46Z</time>
      </trkpt>
      <trkpt lat="42.46879" lon="2.91541">
        <ele>760</ele>
        <time>2020-08-06T05:44:53Z</time>
      </trkpt>
      <trkpt lat="42.4687" lon="2.91597">
        <ele>770</ele>
        <time>2020-08-06T05:45:14Z</time>
      </trkpt>
      <trkpt lat="42.46874" lon="2.91624">
        <ele>773</ele>
        <time>2020-08-06T05:45:24Z</time>
      </trkpt>
      <trkpt lat="42.46886" lon="2.9165">
        <ele>776</ele>
        <time>2020-08-06T05:45:35Z</time>
      </trkpt>
      <trkpt lat="42.46895" lon="2.9168">
        <ele>780</ele>
        <time>2020-08-06T05:45:47Z</time>
      </trkpt>
      <trkpt lat="42.46912" lon="2.91714">
        <ele>787</ele>
        <time>2020-08-06T05:46:02Z</time>
      </trkpt>
      <trkpt lat="42.46923" lon="2.9173">
        <ele>791</ele>
        <time>2020-08-06T05:46:11Z</time>
      </trkpt>
      <trkpt lat="42.46929" lon="2.91733">
        <ele>792</ele>
        <time>2020-08-06T05:46:14Z</time>
      </trkpt>
      <trkpt lat="42.4697" lon="2.91775">
        <ele>802</ele>
        <time>2020-08-06T05:46:39Z</time>
      </trkpt>
      <trkpt lat="42.46984" lon="2.91806">
        <ele>809</ele>
        <time>2020-08-06T05:46:53Z</time>
      </trkpt>
      <trkpt lat="42.47019" lon="2.91977">
        <ele>835</ele>
        <time>2020-08-06T05:47:58Z</time>
      </trkpt>
      <trkpt lat="42.47018" lon="2.92021">
        <ele>839</ele>
        <time>2020-08-06T05:48:15Z</time>
      </trkpt>
      <trkpt lat="42.4702" lon="2.92044">
        <ele>841</ele>
        <time>2020-08-06T05:48:23Z</time>
      </trkpt>
      <trkpt lat="42.47036" lon="2.92155">
        <ele>853</ele>
        <time>2020-08-06T05:49:05Z</time>
      </trkpt>
      <trkpt lat="42.47049" lon="2.92211">
        <ele>861</ele>
        <time>2020-08-06T05:49:27Z</time>
      </trkpt>
      <trkpt lat="42.47055" lon="2.92214">
        <ele>863</ele>
        <time>2020-08-06T05:49:30Z</time>
      </trkpt>
      <trkpt lat="42.47059" lon="2.92213">
        <ele>864</ele>
        <time>2020-08-06T05:49:32Z</time>
      </trkpt>
      <trkpt lat="42.47071" lon="2.9218">
        <ele>865</ele>
        <time>2020-08-06T05:49:45Z</time>
      </trkpt>
      <trkpt lat="42.47075" lon="2.92175">
        <ele>865</ele>
        <time>2020-08-06T05:49:48Z</time>
      </trkpt>
      <trkpt lat="42.47083" lon="2.92174">
        <ele>868</ele>
        <time>2020-08-06T05:49:52Z</time>
      </trkpt>
      <trkpt lat="42.47091" lon="2.92178">
        <ele>868</ele>
        <time>2020-08-06T05:49:56Z</time>
      </trkpt>
      <trkpt lat="42.47101" lon="2.92233">
        <ele>874</ele>
        <time>2020-08-06T05:50:17Z</time>
      </trkpt>
      <trkpt lat="42.47123" lon="2.92314">
        <ele>890</ele>
        <time>2020-08-06T05:50:49Z</time>
      </trkpt>
      <trkpt lat="42.47123" lon="2.92323">
        <ele>892</ele>
        <time>2020-08-06T05:50:52Z</time>
      </trkpt>
      <trkpt lat="42.47139" lon="2.92336">
        <ele>897</ele>
        <time>2020-08-06T05:51:02Z</time>
      </trkpt>
      <trkpt lat="42.47176" lon="2.92356">
        <ele>907</ele>
        <time>2020-08-06T05:51:22Z</time>
      </trkpt>
      <trkpt lat="42.47191" lon="2.92374">
        <ele>912</ele>
        <time>2020-08-06T05:51:32Z</time>
      </trkpt>
      <trkpt lat="42.4721" lon="2.92388">
        <ele>916</ele>
        <time>2020-08-06T05:51:43Z</time>
      </trkpt>
      <trkpt lat="42.47245" lon="2.92423">
        <ele>927</ele>
        <time>2020-08-06T05:52:04Z</time>
      </trkpt>
      <trkpt lat="42.4728" lon="2.92448">
        <ele>925</ele>
        <time>2020-08-06T05:52:24Z</time>
      </trkpt>
      <trkpt lat="42.47294" lon="2.92463">
        <ele>925</ele>
        <time>2020-08-06T05:52:33Z</time>
      </trkpt>
      <trkpt lat="42.47322" lon="2.92476">
        <ele>922</ele>
        <time>2020-08-06T05:52:48Z</time>
      </trkpt>
      <trkpt lat="42.47359" lon="2.92508">
        <ele>920</ele>
        <time>2020-08-06T05:53:10Z</time>
      </trkpt>
      <trkpt lat="42.47361" lon="2.92507">
        <ele>919</ele>
        <time>2020-08-06T05:53:11Z</time>
      </trkpt>
      <trkpt lat="42.47369" lon="2.92513">
        <ele>918</ele>
        <time>2020-08-06T05:53:16Z</time>
      </trkpt>
      <trkpt lat="42.47373" lon="2.92518">
        <ele>919</ele>
        <time>2020-08-06T05:53:18Z</time>
      </trkpt>
      <trkpt lat="42.47382" lon="2.9255">
        <ele>927</ele>
        <time>2020-08-06T05:53:31Z</time>
      </trkpt>
      <trkpt lat="42.474" lon="2.92576">
        <ele>929</ele>
        <time>2020-08-06T05:53:44Z</time>
      </trkpt>
      <trkpt lat="42.47404" lon="2.92594">
        <ele>933</ele>
        <time>2020-08-06T05:53:51Z</time>
      </trkpt>
      <trkpt lat="42.47413" lon="2.92613">
        <ele>935</ele>
        <time>2020-08-06T05:53:59Z</time>
      </trkpt>
      <trkpt lat="42.47422" lon="2.92623">
        <ele>937</ele>
        <time>2020-08-06T05:54:05Z</time>
      </trkpt>
      <trkpt lat="42.47426" lon="2.92634">
        <ele>940</ele>
        <time>2020-08-06T05:54:10Z</time>
      </trkpt>
      <trkpt lat="42.4743" lon="2.92633">
        <ele>940</ele>
        <time>2020-08-06T05:54:12Z</time>
      </trkpt>
      <trkpt lat="42.4744" lon="2.92637">
        <ele>942</ele>
        <time>2020-08-06T05:54:17Z</time>
      </trkpt>
      <trkpt lat="42.47446" lon="2.92636">
        <ele>942</ele>
        <time>2020-08-06T05:54:20Z</time>
      </trkpt>
      <trkpt lat="42.47458" lon="2.92619">
        <ele>937</ele>
        <time>2020-08-06T05:54:29Z</time>
      </trkpt>
      <trkpt lat="42.47466" lon="2.92615">
        <ele>936</ele>
        <time>2020-08-06T05:54:33Z</time>
      </trkpt>
      <trkpt lat="42.475" lon="2.92607">
        <ele>934</ele>
        <time>2020-08-06T05:54:50Z</time>
      </trkpt>
      <trkpt lat="42.47509" lon="2.92609">
        <ele>937</ele>
        <time>2020-08-06T05:54:55Z</time>
      </trkpt>
      <trkpt lat="42.47514" lon="2.92605">
        <ele>937</ele>
        <time>2020-08-06T05:54:58Z</time>
      </trkpt>
      <trkpt lat="42.4753" lon="2.92602">
        <ele>941</ele>
        <time>2020-08-06T05:55:06Z</time>
      </trkpt>
      <trkpt lat="42.47539" lon="2.92595">
        <ele>940</ele>
        <time>2020-08-06T05:55:11Z</time>
      </trkpt>
      <trkpt lat="42.47561" lon="2.92587">
        <ele>944</ele>
        <time>2020-08-06T05:55:22Z</time>
      </trkpt>
      <trkpt lat="42.47574" lon="2.92575">
        <ele>943</ele>
        <time>2020-08-06T05:55:30Z</time>
      </trkpt>
      <trkpt lat="42.47578" lon="2.92568">
        <ele>941</ele>
        <time>2020-08-06T05:55:33Z</time>
      </trkpt>
      <trkpt lat="42.47591" lon="2.92558">
        <ele>942</ele>
        <time>2020-08-06T05:55:41Z</time>
      </trkpt>
      <trkpt lat="42.47598" lon="2.92541">
        <ele>938</ele>
        <time>2020-08-06T05:55:48Z</time>
      </trkpt>
      <trkpt lat="42.47608" lon="2.92532">
        <ele>938</ele>
        <time>2020-08-06T05:55:54Z</time>
      </trkpt>
      <trkpt lat="42.47613" lon="2.92522">
        <ele>936</ele>
        <time>2020-08-06T05:55:59Z</time>
      </trkpt>
      <trkpt lat="42.47623" lon="2.92512">
        <ele>936</ele>
        <time>2020-08-06T05:56:05Z</time>
      </trkpt>
      <trkpt lat="42.47626" lon="2.92512">
        <ele>937</ele>
        <time>2020-08-06T05:56:06Z</time>
      </trkpt>
      <trkpt lat="42.47632" lon="2.92501">
        <ele>935</ele>
        <time>2020-08-06T05:56:11Z</time>
      </trkpt>
      <trkpt lat="42.47637" lon="2.92497">
        <ele>935</ele>
        <time>2020-08-06T05:56:14Z</time>
      </trkpt>
      <trkpt lat="42.47646" lon="2.92496">
        <ele>938</ele>
        <time>2020-08-06T05:56:19Z</time>
      </trkpt>
      <trkpt lat="42.47658" lon="2.92491">
        <ele>941</ele>
        <time>2020-08-06T05:56:25Z</time>
      </trkpt>
      <trkpt lat="42.47666" lon="2.92483">
        <ele>941</ele>
        <time>2020-08-06T05:56:30Z</time>
      </trkpt>
      <trkpt lat="42.47673" lon="2.92482">
        <ele>943</ele>
        <time>2020-08-06T05:56:34Z</time>
      </trkpt>
      <trkpt lat="42.47679" lon="2.92477">
        <ele>943</ele>
        <time>2020-08-06T05:56:37Z</time>
      </trkpt>
      <trkpt lat="42.47694" lon="2.92471">
        <ele>944</ele>
        <time>2020-08-06T05:56:45Z</time>
      </trkpt>
      <trkpt lat="42.47713" lon="2.92447">
        <ele>941</ele>
        <time>2020-08-06T05:56:58Z</time>
      </trkpt>
      <trkpt lat="42.4772" lon="2.92433">
        <ele>939</ele>
        <time>2020-08-06T05:57:04Z</time>
      </trkpt>
      <trkpt lat="42.47738" lon="2.92428">
        <ele>943</ele>
        <time>2020-08-06T05:57:13Z</time>
      </trkpt>
      <trkpt lat="42.47742" lon="2.92424">
        <ele>943</ele>
        <time>2020-08-06T05:57:16Z</time>
      </trkpt>
      <trkpt lat="42.47752" lon="2.92427">
        <ele>947</ele>
        <time>2020-08-06T05:57:21Z</time>
      </trkpt>
      <trkpt lat="42.47759" lon="2.92421">
        <ele>946</ele>
        <time>2020-08-06T05:57:25Z</time>
      </trkpt>
      <trkpt lat="42.47771" lon="2.92418">
        <ele>948</ele>
        <time>2020-08-06T05:57:31Z</time>
      </trkpt>
      <trkpt lat="42.4778" lon="2.9241">
        <ele>947</ele>
        <time>2020-08-06T05:57:37Z</time>
      </trkpt>
      <trkpt lat="42.47779" lon="2.92407">
        <ele>946</ele>
        <time>2020-08-06T05:57:38Z</time>
      </trkpt>
      <trkpt lat="42.47847" lon="2.92361">
        <ele>946</ele>
        <time>2020-08-06T05:58:16Z</time>
      </trkpt>
      <trkpt lat="42.47857" lon="2.92351">
        <ele>945</ele>
        <time>2020-08-06T05:58:22Z</time>
      </trkpt>
      <trkpt lat="42.47883" lon="2.92293">
        <ele>937</ele>
        <time>2020-08-06T05:58:47Z</time>
      </trkpt>
      <trkpt lat="42.47894" lon="2.92283">
        <ele>938</ele>
        <time>2020-08-06T05:58:54Z</time>
      </trkpt>
      <trkpt lat="42.47936" lon="2.92259">
        <ele>944</ele>
        <time>2020-08-06T05:59:17Z</time>
      </trkpt>
      <trkpt lat="42.47941" lon="2.92275">
        <ele>947</ele>
        <time>2020-08-06T05:59:23Z</time>
      </trkpt>
      <trkpt lat="42.4795" lon="2.92347">
        <ele>955</ele>
        <time>2020-08-06T05:59:50Z</time>
      </trkpt>
      <trkpt lat="42.47956" lon="2.92448">
        <ele>967</ele>
        <time>2020-08-06T06:00:27Z</time>
      </trkpt>
      <trkpt lat="42.47981" lon="2.92521">
        <ele>967</ele>
        <time>2020-08-06T06:00:57Z</time>
      </trkpt>
      <trkpt lat="42.47985" lon="2.92584">
        <ele>964</ele>
        <time>2020-08-06T06:01:20Z</time>
      </trkpt>
      <trkpt lat="42.48011" lon="2.92615">
        <ele>962</ele>
        <time>2020-08-06T06:01:38Z</time>
      </trkpt>
      <trkpt lat="42.48016" lon="2.92633">
        <ele>963</ele>
        <time>2020-08-06T06:01:45Z</time>
      </trkpt>
      <trkpt lat="42.48016" lon="2.92657">
        <ele>967</ele>
        <time>2020-08-06T06:01:54Z</time>
      </trkpt>
      <trkpt lat="42.48011" lon="2.92699">
        <ele>974</ele>
        <time>2020-08-06T06:02:09Z</time>
      </trkpt>
      <trkpt lat="42.48011" lon="2.92723">
        <ele>978</ele>
        <time>2020-08-06T06:02:18Z</time>
      </trkpt>
      <trkpt lat="42.48013" lon="2.9273">
        <ele>979</ele>
        <time>2020-08-06T06:02:21Z</time>
      </trkpt>
      <trkpt lat="42.4802" lon="2.92741">
        <ele>980</ele>
        <time>2020-08-06T06:02:26Z</time>
      </trkpt>
      <trkpt lat="42.48037" lon="2.92751">
        <ele>980</ele>
        <time>2020-08-06T06:02:36Z</time>
      </trkpt>
      <trkpt lat="42.48091" lon="2.92757">
        <ele>975</ele>
        <time>2020-08-06T06:03:03Z</time>
      </trkpt>
      <trkpt lat="42.48112" lon="2.92765">
        <ele>970</ele>
        <time>2020-08-06T06:03:14Z</time>
      </trkpt>
      <trkpt lat="42.48123" lon="2.92776">
        <ele>967</ele>
        <time>2020-08-06T06:03:20Z</time>
      </trkpt>
      <trkpt lat="42.48126" lon="2.92784">
        <ele>966</ele>
        <time>2020-08-06T06:03:24Z</time>
      </trkpt>
      <trkpt lat="42.48126" lon="2.92795">
        <ele>966</ele>
        <time>2020-08-06T06:03:28Z</time>
      </trkpt>
      <trkpt lat="42.48121" lon="2.92808">
        <ele>966</ele>
        <time>2020-08-06T06:03:33Z</time>
      </trkpt>
      <trkpt lat="42.48114" lon="2.92818">
        <ele>968</ele>
        <time>2020-08-06T06:03:38Z</time>
      </trkpt>
      <trkpt lat="42.48093" lon="2.92839">
        <ele>973</ele>
        <time>2020-08-06T06:03:51Z</time>
      </trkpt>
      <trkpt lat="42.48078" lon="2.9285">
        <ele>975</ele>
        <time>2020-08-06T06:04:00Z</time>
      </trkpt>
      <trkpt lat="42.48024" lon="2.92855">
        <ele>984</ele>
        <time>2020-08-06T06:04:27Z</time>
      </trkpt>
      <trkpt lat="42.47996" lon="2.9286">
        <ele>988</ele>
        <time>2020-08-06T06:04:41Z</time>
      </trkpt>
      <trkpt lat="42.47956" lon="2.92877">
        <ele>990</ele>
        <time>2020-08-06T06:05:02Z</time>
      </trkpt>
      <trkpt lat="42.47918" lon="2.9289">
        <ele>994</ele>
        <time>2020-08-06T06:05:22Z</time>
      </trkpt>
      <trkpt lat="42.47866" lon="2.92921">
        <ele>1012</ele>
        <time>2020-08-06T06:05:50Z</time>
      </trkpt>
      <trkpt lat="42.47855" lon="2.9293">
        <ele>1015</ele>
        <time>2020-08-06T06:05:57Z</time>
      </trkpt>
      <trkpt lat="42.47832" lon="2.92958">
        <ele>1020</ele>
        <time>2020-08-06T06:06:12Z</time>
      </trkpt>
      <trkpt lat="42.47822" lon="2.92975">
        <ele>1022</ele>
        <time>2020-08-06T06:06:20Z</time>
      </trkpt>
      <trkpt lat="42.47813" lon="2.93">
        <ele>1022</ele>
        <time>2020-08-06T06:06:30Z</time>
      </trkpt>
      <trkpt lat="42.47804" lon="2.93042">
        <ele>1020</ele>
        <time>2020-08-06T06:06:46Z</time>
      </trkpt>
      <trkpt lat="42.47795" lon="2.93068">
        <ele>1020</ele>
        <time>2020-08-06T06:06:57Z</time>
      </trkpt>
      <trkpt lat="42.47763" lon="2.93124">
        <ele>1028</ele>
        <time>2020-08-06T06:07:23Z</time>
      </trkpt>
      <trkpt lat="42.47741" lon="2.93223">
        <ele>1034</ele>
        <time>2020-08-06T06:08:01Z</time>
      </trkpt>
      <trkpt lat="42.47724" lon="2.93278">
        <ele>1043</ele>
        <time>2020-08-06T06:08:23Z</time>
      </trkpt>
      <trkpt lat="42.4772" lon="2.9334">
        <ele>1049</ele>
        <time>2020-08-06T06:08:46Z</time>
      </trkpt>
      <trkpt lat="42.47724" lon="2.93355">
        <ele>1052</ele>
        <time>2020-08-06T06:08:52Z</time>
      </trkpt>
      <trkpt lat="42.47736" lon="2.93364">
        <ele>1052</ele>
        <time>2020-08-06T06:08:59Z</time>
      </trkpt>
      <trkpt lat="42.47833" lon="2.93353">
        <ele>1050</ele>
        <time>2020-08-06T06:09:48Z</time>
      </trkpt>
      <trkpt lat="42.47879" lon="2.93365">
        <ele>1050</ele>
        <time>2020-08-06T06:10:11Z</time>
      </trkpt>
      <trkpt lat="42.47904" lon="2.93378">
        <ele>1051</ele>
        <time>2020-08-06T06:10:25Z</time>
      </trkpt>
      <trkpt lat="42.4794" lon="2.93403">
        <ele>1050</ele>
        <time>2020-08-06T06:10:45Z</time>
      </trkpt>
      <trkpt lat="42.47949" lon="2.93415">
        <ele>1050</ele>
        <time>2020-08-06T06:10:51Z</time>
      </trkpt>
      <trkpt lat="42.47949" lon="2.93435">
        <ele>1052</ele>
        <time>2020-08-06T06:10:59Z</time>
      </trkpt>
      <trkpt lat="42.47944" lon="2.93438">
        <ele>1054</ele>
        <time>2020-08-06T06:11:01Z</time>
      </trkpt>
      <trkpt lat="42.47913" lon="2.93428">
        <ele>1061</ele>
        <time>2020-08-06T06:11:17Z</time>
      </trkpt>
      <trkpt lat="42.47895" lon="2.93426">
        <ele>1062</ele>
        <time>2020-08-06T06:11:26Z</time>
      </trkpt>
      <trkpt lat="42.4787" lon="2.93432">
        <ele>1065</ele>
        <time>2020-08-06T06:11:39Z</time>
      </trkpt>
      <trkpt lat="42.47845" lon="2.93444">
        <ele>1068</ele>
        <time>2020-08-06T06:11:52Z</time>
      </trkpt>
      <trkpt lat="42.47759" lon="2.93509">
        <ele>1082</ele>
        <time>2020-08-06T06:12:42Z</time>
      </trkpt>
      <trkpt lat="42.47726" lon="2.93526">
        <ele>1085</ele>
        <time>2020-08-06T06:12:59Z</time>
      </trkpt>
      <trkpt lat="42.47702" lon="2.93534">
        <ele>1087</ele>
        <time>2020-08-06T06:13:12Z</time>
      </trkpt>
      <trkpt lat="42.47691" lon="2.93535">
        <ele>1087</ele>
        <time>2020-08-06T06:13:17Z</time>
      </trkpt>
      <trkpt lat="42.47672" lon="2.93533">
        <ele>1087</ele>
        <time>2020-08-06T06:13:27Z</time>
      </trkpt>
      <trkpt lat="42.47647" lon="2.93526">
        <ele>1088</ele>
        <time>2020-08-06T06:13:39Z</time>
      </trkpt>
      <trkpt lat="42.47626" lon="2.93513">
        <ele>1088</ele>
        <time>2020-08-06T06:13:51Z</time>
      </trkpt>
      <trkpt lat="42.47579" lon="2.93476">
        <ele>1090</ele>
        <time>2020-08-06T06:14:18Z</time>
      </trkpt>
      <trkpt lat="42.4756" lon="2.93457">
        <ele>1092</ele>
        <time>2020-08-06T06:14:30Z</time>
      </trkpt>
      <trkpt lat="42.47526" lon="2.93412">
        <ele>1096</ele>
        <time>2020-08-06T06:14:54Z</time>
      </trkpt>
      <trkpt lat="42.47517" lon="2.93412">
        <ele>1097</ele>
        <time>2020-08-06T06:14:58Z</time>
      </trkpt>
      <trkpt lat="42.47509" lon="2.93418">
        <ele>1099</ele>
        <time>2020-08-06T06:15:03Z</time>
      </trkpt>
      <trkpt lat="42.47507" lon="2.93434">
        <ele>1099</ele>
        <time>2020-08-06T06:15:09Z</time>
      </trkpt>
      <trkpt lat="42.4751" lon="2.93449">
        <ele>1099</ele>
        <time>2020-08-06T06:15:15Z</time>
      </trkpt>
      <trkpt lat="42.47541" lon="2.93525">
        <ele>1098</ele>
        <time>2020-08-06T06:15:47Z</time>
      </trkpt>
      <trkpt lat="42.47585" lon="2.93653">
        <ele>1109</ele>
        <time>2020-08-06T06:16:39Z</time>
      </trkpt>
      <trkpt lat="42.47594" lon="2.93673">
        <ele>1110</ele>
        <time>2020-08-06T06:16:47Z</time>
      </trkpt>
      <trkpt lat="42.47696" lon="2.93737">
        <ele>1121</ele>
        <time>2020-08-06T06:17:44Z</time>
      </trkpt>
      <trkpt lat="42.47712" lon="2.93743">
        <ele>1124</ele>
        <time>2020-08-06T06:17:52Z</time>
      </trkpt>
      <trkpt lat="42.47761" lon="2.93748">
        <ele>1128</ele>
        <time>2020-08-06T06:18:17Z</time>
      </trkpt>
      <trkpt lat="42.47774" lon="2.93759">
        <ele>1130</ele>
        <time>2020-08-06T06:18:24Z</time>
      </trkpt>
      <trkpt lat="42.47803" lon="2.93847">
        <ele>1140</ele>
        <time>2020-08-06T06:19:00Z</time>
      </trkpt>
      <trkpt lat="42.47835" lon="2.93913">
        <ele>1148</ele>
        <time>2020-08-06T06:19:29Z</time>
      </trkpt>
      <trkpt lat="42.47865" lon="2.94027">
        <ele>1159</ele>
        <time>2020-08-06T06:20:14Z</time>
      </trkpt>
      <trkpt lat="42.4787" lon="2.94037">
        <ele>1160</ele>
        <time>2020-08-06T06:20:18Z</time>
      </trkpt>
      <trkpt lat="42.47881" lon="2.9405">
        <ele>1160</ele>
        <time>2020-08-06T06:20:25Z</time>
      </trkpt>
      <trkpt lat="42.47918" lon="2.94085">
        <ele>1162</ele>
        <time>2020-08-06T06:20:48Z</time>
      </trkpt>
      <trkpt lat="42.47934" lon="2.94118">
        <ele>1166</ele>
        <time>2020-08-06T06:21:03Z</time>
      </trkpt>
      <trkpt lat="42.47954" lon="2.94183">
        <ele>1176</ele>
        <time>2020-08-06T06:21:29Z</time>
      </trkpt>
      <trkpt lat="42.47974" lon="2.94218">
        <ele>1179</ele>
        <time>2020-08-06T06:21:45Z</time>
      </trkpt>
      <trkpt lat="42.47987" lon="2.94254">
        <ele>1184</ele>
        <time>2020-08-06T06:22:00Z</time>
      </trkpt>
      <trkpt lat="42.48004" lon="2.9435">
        <ele>1195</ele>
        <time>2020-08-06T06:22:36Z</time>
      </trkpt>
      <trkpt lat="42.48011" lon="2.94372">
        <ele>1198</ele>
        <time>2020-08-06T06:22:45Z</time>
      </trkpt>
      <trkpt lat="42.48027" lon="2.94404">
        <ele>1201</ele>
        <time>2020-08-06T06:22:59Z</time>
      </trkpt>
      <trkpt lat="42.48052" lon="2.94472">
        <ele>1207</ele>
        <time>2020-08-06T06:23:27Z</time>
      </trkpt>
      <trkpt lat="42.48069" lon="2.94502">
        <ele>1209</ele>
        <time>2020-08-06T06:23:41Z</time>
      </trkpt>
      <trkpt lat="42.48105" lon="2.94552">
        <ele>1216</ele>
        <time>2020-08-06T06:24:07Z</time>
      </trkpt>
      <trkpt lat="42.48127" lon="2.94569">
        <ele>1219</ele>
        <time>2020-08-06T06:24:20Z</time>
      </trkpt>
      <trkpt lat="42.48142" lon="2.94577">
        <ele>1221</ele>
        <time>2020-08-06T06:24:28Z</time>
      </trkpt>
      <trkpt lat="42.48178" lon="2.94589">
        <ele>1224</ele>
        <time>2020-08-06T06:24:46Z</time>
      </trkpt>
      <trkpt lat="42.48192" lon="2.94589">
        <ele>1223</ele>
        <time>2020-08-06T06:24:53Z</time>
      </trkpt>
      <trkpt lat="42.48209" lon="2.94582">
        <ele>1220</ele>
        <time>2020-08-06T06:25:02Z</time>
      </trkpt>
      <trkpt lat="42.48214" lon="2.94582">
        <ele>1220</ele>
        <time>2020-08-06T06:25:05Z</time>
      </trkpt>
      <trkpt lat="42.48222" lon="2.94592">
        <ele>1221</ele>
        <time>2020-08-06T06:25:10Z</time>
      </trkpt>
      <trkpt lat="42.48221" lon="2.9462">
        <ele>1227</ele>
        <time>2020-08-06T06:25:20Z</time>
      </trkpt>
      <trkpt lat="42.48235" lon="2.94644">
        <ele>1230</ele>
        <time>2020-08-06T06:25:32Z</time>
      </trkpt>
      <trkpt lat="42.48247" lon="2.94657">
        <ele>1232</ele>
        <time>2020-08-06T06:25:39Z</time>
      </trkpt>
      <trkpt lat="42.48266" lon="2.94669">
        <ele>1228</ele>
        <time>2020-08-06T06:25:50Z</time>
      </trkpt>
      <trkpt lat="42.48295" lon="2.94682">
        <ele>1221</ele>
        <time>2020-08-06T06:26:05Z</time>
      </trkpt>
      <trkpt lat="42.48315" lon="2.94705">
        <ele>1218</ele>
        <time>2020-08-06T06:26:18Z</time>
      </trkpt>
      <trkpt lat="42.48333" lon="2.94717">
        <ele>1214</ele>
        <time>2020-08-06T06:26:28Z</time>
      </trkpt>
      <trkpt lat="42.48367" lon="2.94751">
        <ele>1211</ele>
        <time>2020-08-06T06:26:50Z</time>
      </trkpt>
      <trkpt lat="42.48362" lon="2.94708">
        <ele>1206</ele>
        <time>2020-08-06T06:27:06Z</time>
      </trkpt>
      <trkpt lat="42.48361" lon="2.94664">
        <ele>1199</ele>
        <time>2020-08-06T06:27:22Z</time>
      </trkpt>
      <trkpt lat="42.48361" lon="2.94618">
        <ele>1190</ele>
        <time>2020-08-06T06:27:39Z</time>
      </trkpt>
      <trkpt lat="42.48364" lon="2.94574">
        <ele>1181</ele>
        <time>2020-08-06T06:27:55Z</time>
      </trkpt>
      <trkpt lat="42.48399" lon="2.94587">
        <ele>1172</ele>
        <time>2020-08-06T06:28:13Z</time>
      </trkpt>
      <trkpt lat="42.48433" lon="2.94594">
        <ele>1164</ele>
        <time>2020-08-06T06:28:31Z</time>
      </trkpt>
      <trkpt lat="42.48452" lon="2.94605">
        <ele>1161</ele>
        <time>2020-08-06T06:28:41Z</time>
      </trkpt>
      <trkpt lat="42.48473" lon="2.94613">
        <ele>1157</ele>
        <time>2020-08-06T06:28:52Z</time>
      </trkpt>
      <trkpt lat="42.48485" lon="2.94624">
        <ele>1156</ele>
        <time>2020-08-06T06:28:59Z</time>
      </trkpt>
      <trkpt lat="42.4848" lon="2.94607">
        <ele>1154</ele>
        <time>2020-08-06T06:29:06Z</time>
      </trkpt>
      <trkpt lat="42.48475" lon="2.94599">
        <ele>1153</ele>
        <time>2020-08-06T06:29:10Z</time>
      </trkpt>
      <trkpt lat="42.4849" lon="2.94606">
        <ele>1151</ele>
        <time>2020-08-06T06:29:18Z</time>
      </trkpt>
      <trkpt lat="42.48477" lon="2.94583">
        <ele>1149</ele>
        <time>2020-08-06T06:29:28Z</time>
      </trkpt>
      <trkpt lat="42.48486" lon="2.94586">
        <ele>1147</ele>
        <time>2020-08-06T06:29:33Z</time>
      </trkpt>
      <trkpt lat="42.48504" lon="2.94601">
        <ele>1145</ele>
        <time>2020-08-06T06:29:43Z</time>
      </trkpt>
      <trkpt lat="42.48506" lon="2.94616">
        <ele>1147</ele>
        <time>2020-08-06T06:29:49Z</time>
      </trkpt>
      <trkpt lat="42.4853" lon="2.94642">
        <ele>1142</ele>
        <time>2020-08-06T06:30:04Z</time>
      </trkpt>
      <trkpt lat="42.48526" lon="2.94625">
        <ele>1140</ele>
        <time>2020-08-06T06:30:11Z</time>
      </trkpt>
      <trkpt lat="42.48539" lon="2.94636">
        <ele>1137</ele>
        <time>2020-08-06T06:30:19Z</time>
      </trkpt>
      <trkpt lat="42.4855" lon="2.94636">
        <ele>1132</ele>
        <time>2020-08-06T06:30:24Z</time>
      </trkpt>
      <trkpt lat="42.48557" lon="2.94639">
        <ele>1129</ele>
        <time>2020-08-06T06:30:28Z</time>
      </trkpt>
      <trkpt lat="42.48574" lon="2.94713">
        <ele>1132</ele>
        <time>2020-08-06T06:30:57Z</time>
      </trkpt>
      <trkpt lat="42.48585" lon="2.94736">
        <ele>1130</ele>
        <time>2020-08-06T06:31:07Z</time>
      </trkpt>
      <trkpt lat="42.48605" lon="2.9475">
        <ele>1121</ele>
        <time>2020-08-06T06:31:18Z</time>
      </trkpt>
      <trkpt lat="42.4862" lon="2.94776">
        <ele>1116</ele>
        <time>2020-08-06T06:31:30Z</time>
      </trkpt>
      <trkpt lat="42.48629" lon="2.94804">
        <ele>1115</ele>
        <time>2020-08-06T06:31:41Z</time>
      </trkpt>
      <trkpt lat="42.48639" lon="2.94855">
        <ele>1112</ele>
        <time>2020-08-06T06:32:01Z</time>
      </trkpt>
      <trkpt lat="42.48635" lon="2.94875">
        <ele>1112</ele>
        <time>2020-08-06T06:32:08Z</time>
      </trkpt>
      <trkpt lat="42.48602" lon="2.94914">
        <ele>1117</ele>
        <time>2020-08-06T06:32:30Z</time>
      </trkpt>
      <trkpt lat="42.48571" lon="2.94937">
        <ele>1118</ele>
        <time>2020-08-06T06:32:48Z</time>
      </trkpt>
      <trkpt lat="42.48551" lon="2.94946">
        <ele>1120</ele>
        <time>2020-08-06T06:32:59Z</time>
      </trkpt>
      <trkpt lat="42.48526" lon="2.94954">
        <ele>1124</ele>
        <time>2020-08-06T06:33:11Z</time>
      </trkpt>
      <trkpt lat="42.48526" lon="2.94952">
        <ele>1125</ele>
        <time>2020-08-06T06:33:12Z</time>
      </trkpt>
      <trkpt lat="42.48502" lon="2.94961">
        <ele>1128</ele>
        <time>2020-08-06T06:33:25Z</time>
      </trkpt>
      <trkpt lat="42.48472" lon="2.94983">
        <ele>1128</ele>
        <time>2020-08-06T06:33:42Z</time>
      </trkpt>
      <trkpt lat="42.4843" lon="2.95037">
        <ele>1123</ele>
        <time>2020-08-06T06:34:11Z</time>
      </trkpt>
      <trkpt lat="42.48403" lon="2.95095">
        <ele>1114</ele>
        <time>2020-08-06T06:34:36Z</time>
      </trkpt>
      <trkpt lat="42.48377" lon="2.95163">
        <ele>1102</ele>
        <time>2020-08-06T06:35:04Z</time>
      </trkpt>
      <trkpt lat="42.4837" lon="2.95175">
        <ele>1100</ele>
        <time>2020-08-06T06:35:10Z</time>
      </trkpt>
      <trkpt lat="42.48363" lon="2.95181">
        <ele>1100</ele>
        <time>2020-08-06T06:35:14Z</time>
      </trkpt>
      <trkpt lat="42.48373" lon="2.95183">
        <ele>1096</ele>
        <time>2020-08-06T06:35:19Z</time>
      </trkpt>
      <trkpt lat="42.48384" lon="2.95176">
        <ele>1095</ele>
        <time>2020-08-06T06:35:25Z</time>
      </trkpt>
      <trkpt lat="42.48415" lon="2.95122">
        <ele>1101</ele>
        <time>2020-08-06T06:35:50Z</time>
      </trkpt>
      <trkpt lat="42.48449" lon="2.95078">
        <ele>1101</ele>
        <time>2020-08-06T06:36:14Z</time>
      </trkpt>
      <trkpt lat="42.48496" lon="2.95044">
        <ele>1097</ele>
        <time>2020-08-06T06:36:41Z</time>
      </trkpt>
      <trkpt lat="42.48527" lon="2.95032">
        <ele>1093</ele>
        <time>2020-08-06T06:36:57Z</time>
      </trkpt>
      <trkpt lat="42.48549" lon="2.95031">
        <ele>1088</ele>
        <time>2020-08-06T06:37:08Z</time>
      </trkpt>
      <trkpt lat="42.48571" lon="2.95035">
        <ele>1081</ele>
        <time>2020-08-06T06:37:19Z</time>
      </trkpt>
      <trkpt lat="42.4859" lon="2.95033">
        <ele>1077</ele>
        <time>2020-08-06T06:37:28Z</time>
      </trkpt>
      <trkpt lat="42.48611" lon="2.95023">
        <ele>1076</ele>
        <time>2020-08-06T06:37:40Z</time>
      </trkpt>
      <trkpt lat="42.48657" lon="2.95018">
        <ele>1068</ele>
        <time>2020-08-06T06:38:03Z</time>
      </trkpt>
      <trkpt lat="42.48687" lon="2.95023">
        <ele>1059</ele>
        <time>2020-08-06T06:38:18Z</time>
      </trkpt>
      <trkpt lat="42.48722" lon="2.95038">
        <ele>1045</ele>
        <time>2020-08-06T06:38:36Z</time>
      </trkpt>
      <trkpt lat="42.48735" lon="2.95035">
        <ele>1043</ele>
        <time>2020-08-06T06:38:43Z</time>
      </trkpt>
      <trkpt lat="42.48816" lon="2.94976">
        <ele>1026</ele>
        <time>2020-08-06T06:39:29Z</time>
      </trkpt>
      <trkpt lat="42.48921" lon="2.9489">
        <ele>1002</ele>
        <time>2020-08-06T06:40:30Z</time>
      </trkpt>
      <trkpt lat="42.49008" lon="2.94795">
        <ele>979</ele>
        <time>2020-08-06T06:41:26Z</time>
      </trkpt>
      <trkpt lat="42.49059" lon="2.94803">
        <ele>960</ele>
        <time>2020-08-06T06:41:52Z</time>
      </trkpt>
      <trkpt lat="42.49066" lon="2.94796">
        <ele>957</ele>
        <time>2020-08-06T06:41:56Z</time>
      </trkpt>
      <trkpt lat="42.49079" lon="2.94753">
        <ele>953</ele>
        <time>2020-08-06T06:42:13Z</time>
      </trkpt>
      <trkpt lat="42.49114" lon="2.94763">
        <ele>939</ele>
        <time>2020-08-06T06:42:31Z</time>
      </trkpt>
      <trkpt lat="42.49138" lon="2.94767">
        <ele>930</ele>
        <time>2020-08-06T06:42:43Z</time>
      </trkpt>
      <trkpt lat="42.49148" lon="2.94714">
        <ele>921</ele>
        <time>2020-08-06T06:43:03Z</time>
      </trkpt>
      <trkpt lat="42.49207" lon="2.94705">
        <ele>908</ele>
        <time>2020-08-06T06:43:33Z</time>
      </trkpt>
      <trkpt lat="42.49309" lon="2.94673">
        <ele>888</ele>
        <time>2020-08-06T06:44:26Z</time>
      </trkpt>
      <trkpt lat="42.49358" lon="2.94637">
        <ele>870</ele>
        <time>2020-08-06T06:44:53Z</time>
      </trkpt>
      <trkpt lat="42.49374" lon="2.94645">
        <ele>872</ele>
        <time>2020-08-06T06:45:02Z</time>
      </trkpt>
      <trkpt lat="42.4939" lon="2.94644">
        <ele>870</ele>
        <time>2020-08-06T06:45:10Z</time>
      </trkpt>
      <trkpt lat="42.49461" lon="2.94608">
        <ele>849</ele>
        <time>2020-08-06T06:45:48Z</time>
      </trkpt>
      <trkpt lat="42.49528" lon="2.94586">
        <ele>837</ele>
        <time>2020-08-06T06:46:22Z</time>
      </trkpt>
      <trkpt lat="42.49551" lon="2.94572">
        <ele>831</ele>
        <time>2020-08-06T06:46:35Z</time>
      </trkpt>
      <trkpt lat="42.49561" lon="2.94611">
        <ele>841</ele>
        <time>2020-08-06T06:46:50Z</time>
      </trkpt>
      <trkpt lat="42.49568" lon="2.94624">
        <ele>843</ele>
        <time>2020-08-06T06:46:56Z</time>
      </trkpt>
      <trkpt lat="42.49581" lon="2.94639">
        <ele>844</ele>
        <time>2020-08-06T06:47:05Z</time>
      </trkpt>
      <trkpt lat="42.49607" lon="2.94665">
        <ele>842</ele>
        <time>2020-08-06T06:47:21Z</time>
      </trkpt>
      <trkpt lat="42.49618" lon="2.94668">
        <ele>839</ele>
        <time>2020-08-06T06:47:26Z</time>
      </trkpt>
      <trkpt lat="42.4964" lon="2.94666">
        <ele>831</ele>
        <time>2020-08-06T06:47:38Z</time>
      </trkpt>
      <trkpt lat="42.49654" lon="2.94673">
        <ele>828</ele>
        <time>2020-08-06T06:47:45Z</time>
      </trkpt>
      <trkpt lat="42.4966" lon="2.94684">
        <ele>829</ele>
        <time>2020-08-06T06:47:50Z</time>
      </trkpt>
      <trkpt lat="42.49644" lon="2.94696">
        <ele>836</ele>
        <time>2020-08-06T06:47:59Z</time>
      </trkpt>
      <trkpt lat="42.49633" lon="2.94718">
        <ele>844</ele>
        <time>2020-08-06T06:48:09Z</time>
      </trkpt>
      <trkpt lat="42.4963" lon="2.94732">
        <ele>848</ele>
        <time>2020-08-06T06:48:14Z</time>
      </trkpt>
      <trkpt lat="42.49638" lon="2.94773">
        <ele>851</ele>
        <time>2020-08-06T06:48:30Z</time>
      </trkpt>
      <trkpt lat="42.49655" lon="2.94803">
        <ele>849</ele>
        <time>2020-08-06T06:48:44Z</time>
      </trkpt>
      <trkpt lat="42.49684" lon="2.94804">
        <ele>843</ele>
        <time>2020-08-06T06:48:59Z</time>
      </trkpt>
      <trkpt lat="42.49694" lon="2.94819">
        <ele>842</ele>
        <time>2020-08-06T06:49:06Z</time>
      </trkpt>
      <trkpt lat="42.49693" lon="2.94823">
        <ele>843</ele>
        <time>2020-08-06T06:49:08Z</time>
      </trkpt>
      <trkpt lat="42.49642" lon="2.94827">
        <ele>852</ele>
        <time>2020-08-06T06:49:33Z</time>
      </trkpt>
      <trkpt lat="42.49698" lon="2.94871">
        <ele>835</ele>
        <time>2020-08-06T06:50:05Z</time>
      </trkpt>
      <trkpt lat="42.49722" lon="2.949">
        <ele>829</ele>
        <time>2020-08-06T06:50:22Z</time>
      </trkpt>
      <trkpt lat="42.49782" lon="2.9494">
        <ele>801</ele>
        <time>2020-08-06T06:50:55Z</time>
      </trkpt>
      <trkpt lat="42.49797" lon="2.9494">
        <ele>795</ele>
        <time>2020-08-06T06:51:03Z</time>
      </trkpt>
      <trkpt lat="42.49831" lon="2.94926">
        <ele>784</ele>
        <time>2020-08-06T06:51:20Z</time>
      </trkpt>
      <trkpt lat="42.49849" lon="2.94936">
        <ele>775</ele>
        <time>2020-08-06T06:51:30Z</time>
      </trkpt>
      <trkpt lat="42.49954" lon="2.94972">
        <ele>734</ele>
        <time>2020-08-06T06:52:24Z</time>
      </trkpt>
      <trkpt lat="42.50088" lon="2.94928">
        <ele>672</ele>
        <time>2020-08-06T06:53:33Z</time>
      </trkpt>
      <trkpt lat="42.50137" lon="2.94908">
        <ele>651</ele>
        <time>2020-08-06T06:53:59Z</time>
      </trkpt>
      <trkpt lat="42.50155" lon="2.94881">
        <ele>642</ele>
        <time>2020-08-06T06:54:12Z</time>
      </trkpt>
      <trkpt lat="42.5014" lon="2.94829">
        <ele>641</ele>
        <time>2020-08-06T06:54:33Z</time>
      </trkpt>
      <trkpt lat="42.50155" lon="2.94826">
        <ele>637</ele>
        <time>2020-08-06T06:54:40Z</time>
      </trkpt>
      <trkpt lat="42.50202" lon="2.94798">
        <ele>623</ele>
        <time>2020-08-06T06:55:06Z</time>
      </trkpt>
      <trkpt lat="42.50209" lon="2.94785">
        <ele>618</ele>
        <time>2020-08-06T06:55:12Z</time>
      </trkpt>
      <trkpt lat="42.50219" lon="2.94779">
        <ele>616</ele>
        <time>2020-08-06T06:55:18Z</time>
      </trkpt>
      <trkpt lat="42.5025" lon="2.9477">
        <ele>612</ele>
        <time>2020-08-06T06:55:33Z</time>
      </trkpt>
      <trkpt lat="42.50302" lon="2.94762">
        <ele>596</ele>
        <time>2020-08-06T06:56:00Z</time>
      </trkpt>
      <trkpt lat="42.50319" lon="2.94754">
        <ele>589</ele>
        <time>2020-08-06T06:56:09Z</time>
      </trkpt>
      <trkpt lat="42.50335" lon="2.94755">
        <ele>585</ele>
        <time>2020-08-06T06:56:17Z</time>
      </trkpt>
      <trkpt lat="42.50341" lon="2.94804">
        <ele>592</ele>
        <time>2020-08-06T06:56:35Z</time>
      </trkpt>
      <trkpt lat="42.5035" lon="2.94835">
        <ele>592</ele>
        <time>2020-08-06T06:56:47Z</time>
      </trkpt>
      <trkpt lat="42.50371" lon="2.94865">
        <ele>581</ele>
        <time>2020-08-06T06:57:03Z</time>
      </trkpt>
      <trkpt lat="42.5039" lon="2.94876">
        <ele>573</ele>
        <time>2020-08-06T06:57:13Z</time>
      </trkpt>
      <trkpt lat="42.50416" lon="2.94872">
        <ele>562</ele>
        <time>2020-08-06T06:57:26Z</time>
      </trkpt>
      <trkpt lat="42.5049" lon="2.94868">
        <ele>531</ele>
        <time>2020-08-06T06:58:03Z</time>
      </trkpt>
      <trkpt lat="42.50541" lon="2.94859">
        <ele>513</ele>
        <time>2020-08-06T06:58:29Z</time>
      </trkpt>
      <trkpt lat="42.50554" lon="2.94861">
        <ele>509</ele>
        <time>2020-08-06T06:58:35Z</time>
      </trkpt>
      <trkpt lat="42.5058" lon="2.94889">
        <ele>501</ele>
        <time>2020-08-06T06:58:52Z</time>
      </trkpt>
      <trkpt lat="42.506" lon="2.94904">
        <ele>493</ele>
        <time>2020-08-06T06:59:03Z</time>
      </trkpt>
      <trkpt lat="42.50621" lon="2.94944">
        <ele>478</ele>
        <time>2020-08-06T06:59:21Z</time>
      </trkpt>
      <trkpt lat="42.50637" lon="2.9496">
        <ele>469</ele>
        <time>2020-08-06T06:59:31Z</time>
      </trkpt>
      <trkpt lat="42.50653" lon="2.94952">
        <ele>464</ele>
        <time>2020-08-06T06:59:40Z</time>
      </trkpt>
      <trkpt lat="42.50667" lon="2.94952">
        <ele>459</ele>
        <time>2020-08-06T06:59:47Z</time>
      </trkpt>
      <trkpt lat="42.50672" lon="2.9496">
        <ele>456</ele>
        <time>2020-08-06T06:59:51Z</time>
      </trkpt>
      <trkpt lat="42.50658" lon="2.94999">
        <ele>455</ele>
        <time>2020-08-06T07:00:07Z</time>
      </trkpt>
      <trkpt lat="42.5066" lon="2.95015">
        <ele>449</ele>
        <time>2020-08-06T07:00:13Z</time>
      </trkpt>
      <trkpt lat="42.50675" lon="2.95042">
        <ele>437</ele>
        <time>2020-08-06T07:00:25Z</time>
      </trkpt>
      <trkpt lat="42.50706" lon="2.95076">
        <ele>421</ele>
        <time>2020-08-06T07:00:45Z</time>
      </trkpt>
      <trkpt lat="42.50714" lon="2.95082">
        <ele>418</ele>
        <time>2020-08-06T07:00:50Z</time>
      </trkpt>
      <trkpt lat="42.50733" lon="2.95085">
        <ele>413</ele>
        <time>2020-08-06T07:00:59Z</time>
      </trkpt>
      <trkpt lat="42.50746" lon="2.95095">
        <ele>407</ele>
        <time>2020-08-06T07:01:07Z</time>
      </trkpt>
      <trkpt lat="42.5077" lon="2.95102">
        <ele>399</ele>
        <time>2020-08-06T07:01:19Z</time>
      </trkpt>
      <trkpt lat="42.5079" lon="2.95113">
        <ele>391</ele>
        <time>2020-08-06T07:01:30Z</time>
      </trkpt>
      <trkpt lat="42.5081" lon="2.95129">
        <ele>382</ele>
        <time>2020-08-06T07:01:42Z</time>
      </trkpt>
      <trkpt lat="42.5083" lon="2.95134">
        <ele>376</ele>
        <time>2020-08-06T07:01:52Z</time>
      </trkpt>
      <trkpt lat="42.5088" lon="2.95125">
        <ele>364</ele>
        <time>2020-08-06T07:02:17Z</time>
      </trkpt>
      <trkpt lat="42.50887" lon="2.95148">
        <ele>359</ele>
        <time>2020-08-06T07:02:26Z</time>
      </trkpt>
      <trkpt lat="42.50894" lon="2.95157">
        <ele>356</ele>
        <time>2020-08-06T07:02:31Z</time>
      </trkpt>
      <trkpt lat="42.50916" lon="2.95154">
        <ele>352</ele>
        <time>2020-08-06T07:02:42Z</time>
      </trkpt>
      <trkpt lat="42.50929" lon="2.95158">
        <ele>346</ele>
        <time>2020-08-06T07:02:49Z</time>
      </trkpt>
      <trkpt lat="42.50938" lon="2.95166">
        <ele>341</ele>
        <time>2020-08-06T07:02:54Z</time>
      </trkpt>
      <trkpt lat="42.50947" lon="2.95165">
        <ele>338</ele>
        <time>2020-08-06T07:02:59Z</time>
      </trkpt>
      <trkpt lat="42.50965" lon="2.95168">
        <ele>330</ele>
        <time>2020-08-06T07:03:08Z</time>
      </trkpt>
      <trkpt lat="42.50974" lon="2.95185">
        <ele>322</ele>
        <time>2020-08-06T07:03:15Z</time>
      </trkpt>
      <trkpt lat="42.50983" lon="2.95186">
        <ele>319</ele>
        <time>2020-08-06T07:03:20Z</time>
      </trkpt>
      <trkpt lat="42.5099" lon="2.95193">
        <ele>315</ele>
        <time>2020-08-06T07:03:24Z</time>
      </trkpt>
      <trkpt lat="42.51014" lon="2.95195">
        <ele>306</ele>
        <time>2020-08-06T07:03:36Z</time>
      </trkpt>
      <trkpt lat="42.5102" lon="2.95199">
        <ele>303</ele>
        <time>2020-08-06T07:03:40Z</time>
      </trkpt>
      <trkpt lat="42.51025" lon="2.95207">
        <ele>301</ele>
        <time>2020-08-06T07:03:44Z</time>
      </trkpt>
      <trkpt lat="42.51038" lon="2.95208">
        <ele>297</ele>
        <time>2020-08-06T07:03:50Z</time>
      </trkpt>
      <trkpt lat="42.51045" lon="2.95212">
        <ele>294</ele>
        <time>2020-08-06T07:03:54Z</time>
      </trkpt>
      <trkpt lat="42.51055" lon="2.95213">
        <ele>291</ele>
        <time>2020-08-06T07:03:59Z</time>
      </trkpt>
      <trkpt lat="42.51085" lon="2.95211">
        <ele>283</ele>
        <time>2020-08-06T07:04:14Z</time>
      </trkpt>
      <trkpt lat="42.51091" lon="2.95216">
        <ele>281</ele>
        <time>2020-08-06T07:04:17Z</time>
      </trkpt>
      <trkpt lat="42.51097" lon="2.95213">
        <ele>281</ele>
        <time>2020-08-06T07:04:21Z</time>
      </trkpt>
      <trkpt lat="42.51102" lon="2.95216">
        <ele>280</ele>
        <time>2020-08-06T07:04:23Z</time>
      </trkpt>
      <trkpt lat="42.5111" lon="2.95215">
        <ele>278</ele>
        <time>2020-08-06T07:04:27Z</time>
      </trkpt>
      <trkpt lat="42.51117" lon="2.95217">
        <ele>277</ele>
        <time>2020-08-06T07:04:31Z</time>
      </trkpt>
      <trkpt lat="42.51146" lon="2.95214">
        <ele>273</ele>
        <time>2020-08-06T07:04:46Z</time>
      </trkpt>
      <trkpt lat="42.51152" lon="2.95223">
        <ele>271</ele>
        <time>2020-08-06T07:04:50Z</time>
      </trkpt>
      <trkpt lat="42.51156" lon="2.95225">
        <ele>271</ele>
        <time>2020-08-06T07:04:52Z</time>
      </trkpt>
      <trkpt lat="42.51178" lon="2.95221">
        <ele>267</ele>
        <time>2020-08-06T07:05:03Z</time>
      </trkpt>
      <trkpt lat="42.5119" lon="2.95223">
        <ele>264</ele>
        <time>2020-08-06T07:05:09Z</time>
      </trkpt>
      <trkpt lat="42.51186" lon="2.95231">
        <ele>265</ele>
        <time>2020-08-06T07:05:13Z</time>
      </trkpt>
      <trkpt lat="42.51126" lon="2.95284">
        <ele>267</ele>
        <time>2020-08-06T07:05:49Z</time>
      </trkpt>
      <trkpt lat="42.51094" lon="2.95286">
        <ele>272</ele>
        <time>2020-08-06T07:06:05Z</time>
      </trkpt>
      <trkpt lat="42.51065" lon="2.95291">
        <ele>276</ele>
        <time>2020-08-06T07:06:19Z</time>
      </trkpt>
      <trkpt lat="42.51021" lon="2.95317">
        <ele>280</ele>
        <time>2020-08-06T07:06:43Z</time>
      </trkpt>
      <trkpt lat="42.51012" lon="2.95332">
        <ele>278</ele>
        <time>2020-08-06T07:06:50Z</time>
      </trkpt>
      <trkpt lat="42.51016" lon="2.95341">
        <ele>278</ele>
        <time>2020-08-06T07:06:54Z</time>
      </trkpt>
      <trkpt lat="42.51021" lon="2.95346">
        <ele>278</ele>
        <time>2020-08-06T07:06:57Z</time>
      </trkpt>
      <trkpt lat="42.51052" lon="2.95349">
        <ele>272</ele>
        <time>2020-08-06T07:07:13Z</time>
      </trkpt>
      <trkpt lat="42.51073" lon="2.95357">
        <ele>268</ele>
        <time>2020-08-06T07:07:24Z</time>
      </trkpt>
      <trkpt lat="42.51121" lon="2.95381">
        <ele>261</ele>
        <time>2020-08-06T07:07:50Z</time>
      </trkpt>
      <trkpt lat="42.5115" lon="2.95402">
        <ele>256</ele>
        <time>2020-08-06T07:08:06Z</time>
      </trkpt>
      <trkpt lat="42.51164" lon="2.95408">
        <ele>253</ele>
        <time>2020-08-06T07:08:13Z</time>
      </trkpt>
      <trkpt lat="42.5118" lon="2.95411">
        <ele>249</ele>
        <time>2020-08-06T07:08:21Z</time>
      </trkpt>
      <trkpt lat="42.51212" lon="2.95411">
        <ele>241</ele>
        <time>2020-08-06T07:08:37Z</time>
      </trkpt>
      <trkpt lat="42.51247" lon="2.95403">
        <ele>232</ele>
        <time>2020-08-06T07:08:55Z</time>
      </trkpt>
      <trkpt lat="42.51253" lon="2.95406">
        <ele>231</ele>
        <time>2020-08-06T07:08:58Z</time>
      </trkpt>
      <trkpt lat="42.51276" lon="2.9543">
        <ele>228</ele>
        <time>2020-08-06T07:09:13Z</time>
      </trkpt>
      <trkpt lat="42.51307" lon="2.95454">
        <ele>223</ele>
        <time>2020-08-06T07:09:31Z</time>
      </trkpt>
      <trkpt lat="42.51339" lon="2.95468">
        <ele>218</ele>
        <time>2020-08-06T07:09:48Z</time>
      </trkpt>
      <trkpt lat="42.5137" lon="2.95472">
        <ele>217</ele>
        <time>2020-08-06T07:10:03Z</time>
      </trkpt>
      <trkpt lat="42.51381" lon="2.95471">
        <ele>216</ele>
        <time>2020-08-06T07:10:09Z</time>
      </trkpt>
      <trkpt lat="42.51405" lon="2.95445">
        <ele>212</ele>
        <time>2020-08-06T07:10:24Z</time>
      </trkpt>
      <trkpt lat="42.5144" lon="2.95431">
        <ele>206</ele>
        <time>2020-08-06T07:10:42Z</time>
      </trkpt>
      <trkpt lat="42.51452" lon="2.95433">
        <ele>204</ele>
        <time>2020-08-06T07:10:48Z</time>
      </trkpt>
      <trkpt lat="42.51487" lon="2.95453">
        <ele>198</ele>
        <time>2020-08-06T07:11:07Z</time>
      </trkpt>
      <trkpt lat="42.51492" lon="2.95461">
        <ele>197</ele>
        <time>2020-08-06T07:11:11Z</time>
      </trkpt>
      <trkpt lat="42.51492" lon="2.9547">
        <ele>197</ele>
        <time>2020-08-06T07:11:15Z</time>
      </trkpt>
      <trkpt lat="42.51479" lon="2.95501">
        <ele>201</ele>
        <time>2020-08-06T07:11:28Z</time>
      </trkpt>
      <trkpt lat="42.51478" lon="2.95515">
        <ele>199</ele>
        <time>2020-08-06T07:11:33Z</time>
      </trkpt>
      <trkpt lat="42.51483" lon="2.95559">
        <ele>190</ele>
        <time>2020-08-06T07:11:49Z</time>
      </trkpt>
      <trkpt lat="42.51482" lon="2.9557">
        <ele>188</ele>
        <time>2020-08-06T07:11:53Z</time>
      </trkpt>
      <trkpt lat="42.51468" lon="2.95603">
        <ele>184</ele>
        <time>2020-08-06T07:12:07Z</time>
      </trkpt>
      <trkpt lat="42.51459" lon="2.95609">
        <ele>183</ele>
        <time>2020-08-06T07:12:12Z</time>
      </trkpt>
      <trkpt lat="42.51447" lon="2.95609">
        <ele>185</ele>
        <time>2020-08-06T07:12:18Z</time>
      </trkpt>
      <trkpt lat="42.51437" lon="2.95606">
        <ele>187</ele>
        <time>2020-08-06T07:12:24Z</time>
      </trkpt>
      <trkpt lat="42.51415" lon="2.95596">
        <ele>194</ele>
        <time>2020-08-06T07:12:35Z</time>
      </trkpt>
      <trkpt lat="42.51376" lon="2.95584">
        <ele>198</ele>
        <time>2020-08-06T07:12:55Z</time>
      </trkpt>
      <trkpt lat="42.51341" lon="2.95586">
        <ele>198</ele>
        <time>2020-08-06T07:13:13Z</time>
      </trkpt>
      <trkpt lat="42.51325" lon="2.95584">
        <ele>200</ele>
        <time>2020-08-06T07:13:21Z</time>
      </trkpt>
      <trkpt lat="42.5127" lon="2.95591">
        <ele>207</ele>
        <time>2020-08-06T07:13:48Z</time>
      </trkpt>
      <trkpt lat="42.5126" lon="2.95594">
        <ele>207</ele>
        <time>2020-08-06T07:13:54Z</time>
      </trkpt>
      <trkpt lat="42.51252" lon="2.95602">
        <ele>205</ele>
        <time>2020-08-06T07:13:59Z</time>
      </trkpt>
      <trkpt lat="42.51239" lon="2.95627">
        <ele>198</ele>
        <time>2020-08-06T07:14:10Z</time>
      </trkpt>
      <trkpt lat="42.51226" lon="2.95636">
        <ele>197</ele>
        <time>2020-08-06T07:14:17Z</time>
      </trkpt>
      <trkpt lat="42.51219" lon="2.95638">
        <ele>198</ele>
        <time>2020-08-06T07:14:21Z</time>
      </trkpt>
      <trkpt lat="42.51199" lon="2.9563">
        <ele>205</ele>
        <time>2020-08-06T07:14:31Z</time>
      </trkpt>
      <trkpt lat="42.51194" lon="2.9563">
        <ele>206</ele>
        <time>2020-08-06T07:14:34Z</time>
      </trkpt>
      <trkpt lat="42.51157" lon="2.95655">
        <ele>205</ele>
        <time>2020-08-06T07:14:54Z</time>
      </trkpt>
      <trkpt lat="42.51152" lon="2.95665">
        <ele>203</ele>
        <time>2020-08-06T07:14:59Z</time>
      </trkpt>
      <trkpt lat="42.51142" lon="2.95699">
        <ele>196</ele>
        <time>2020-08-06T07:15:12Z</time>
      </trkpt>
      <trkpt lat="42.51132" lon="2.95715">
        <ele>195</ele>
        <time>2020-08-06T07:15:20Z</time>
      </trkpt>
      <trkpt lat="42.5111" lon="2.95737">
        <ele>197</ele>
        <time>2020-08-06T07:15:34Z</time>
      </trkpt>
      <trkpt lat="42.51104" lon="2.9575">
        <ele>195</ele>
        <time>2020-08-06T07:15:39Z</time>
      </trkpt>
      <trkpt lat="42.51087" lon="2.95795">
        <ele>192</ele>
        <time>2020-08-06T07:15:58Z</time>
      </trkpt>
      <trkpt lat="42.51082" lon="2.95822">
        <ele>188</ele>
        <time>2020-08-06T07:16:08Z</time>
      </trkpt>
      <trkpt lat="42.51056" lon="2.95899">
        <ele>186</ele>
        <time>2020-08-06T07:16:40Z</time>
      </trkpt>
      <trkpt lat="42.51054" lon="2.95917">
        <ele>185</ele>
        <time>2020-08-06T07:16:46Z</time>
      </trkpt>
      <trkpt lat="42.51057" lon="2.95921">
        <ele>183</ele>
        <time>2020-08-06T07:16:48Z</time>
      </trkpt>
      <trkpt lat="42.51063" lon="2.95921">
        <ele>180</ele>
        <time>2020-08-06T07:16:51Z</time>
      </trkpt>
      <trkpt lat="42.51096" lon="2.95894">
        <ele>174</ele>
        <time>2020-08-06T07:17:11Z</time>
      </trkpt>
      <trkpt lat="42.51102" lon="2.95884">
        <ele>174</ele>
        <time>2020-08-06T07:17:15Z</time>
      </trkpt>
      <trkpt lat="42.51127" lon="2.95815">
        <ele>175</ele>
        <time>2020-08-06T07:17:44Z</time>
      </trkpt>
      <trkpt lat="42.5115" lon="2.95768">
        <ele>173</ele>
        <time>2020-08-06T07:18:05Z</time>
      </trkpt>
      <trkpt lat="42.51163" lon="2.95752">
        <ele>170</ele>
        <time>2020-08-06T07:18:13Z</time>
      </trkpt>
      <trkpt lat="42.51183" lon="2.95737">
        <ele>171</ele>
        <time>2020-08-06T07:18:25Z</time>
      </trkpt>
      <trkpt lat="42.51201" lon="2.95728">
        <ele>171</ele>
        <time>2020-08-06T07:18:34Z</time>
      </trkpt>
      <trkpt lat="42.51216" lon="2.95728">
        <ele>169</ele>
        <time>2020-08-06T07:18:42Z</time>
      </trkpt>
      <trkpt lat="42.51225" lon="2.95732">
        <ele>167</ele>
        <time>2020-08-06T07:18:47Z</time>
      </trkpt>
      <trkpt lat="42.51226" lon="2.9574">
        <ele>165</ele>
        <time>2020-08-06T07:18:50Z</time>
      </trkpt>
      <trkpt lat="42.51219" lon="2.95761">
        <ele>163</ele>
        <time>2020-08-06T07:18:58Z</time>
      </trkpt>
      <trkpt lat="42.51199" lon="2.95793">
        <ele>163</ele>
        <time>2020-08-06T07:19:14Z</time>
      </trkpt>
      <trkpt lat="42.51209" lon="2.95808">
        <ele>163</ele>
        <time>2020-08-06T07:19:21Z</time>
      </trkpt>
      <trkpt lat="42.51222" lon="2.9582">
        <ele>163</ele>
        <time>2020-08-06T07:19:29Z</time>
      </trkpt>
      <trkpt lat="42.51161" lon="2.95907">
        <ele>166</ele>
        <time>2020-08-06T07:20:13Z</time>
      </trkpt>
      <trkpt lat="42.51188" lon="2.95881">
        <ele>167</ele>
        <time>2020-08-06T07:20:30Z</time>
      </trkpt>
      <trkpt lat="42.51211" lon="2.95853">
        <ele>166</ele>
        <time>2020-08-06T07:20:45Z</time>
      </trkpt>
      <trkpt lat="42.51233" lon="2.95833">
        <ele>165</ele>
        <time>2020-08-06T07:20:59Z</time>
      </trkpt>
      <trkpt lat="42.5126" lon="2.95814">
        <ele>166</ele>
        <time>2020-08-06T07:21:14Z</time>
      </trkpt>
      <trkpt lat="42.51286" lon="2.95789">
        <ele>166</ele>
        <time>2020-08-06T07:21:30Z</time>
      </trkpt>
      <trkpt lat="42.51297" lon="2.95783">
        <ele>165</ele>
        <time>2020-08-06T07:21:36Z</time>
      </trkpt>
      <trkpt lat="42.51317" lon="2.95778">
        <ele>166</ele>
        <time>2020-08-06T07:21:46Z</time>
      </trkpt>
      <trkpt lat="42.51336" lon="2.95781">
        <ele>167</ele>
        <time>2020-08-06T07:21:55Z</time>
      </trkpt>
      <trkpt lat="42.51352" lon="2.95793">
        <ele>167</ele>
        <time>2020-08-06T07:22:05Z</time>
      </trkpt>
      <trkpt lat="42.51364" lon="2.95812">
        <ele>168</ele>
        <time>2020-08-06T07:22:14Z</time>
      </trkpt>
      <trkpt lat="42.51366" lon="2.9583">
        <ele>170</ele>
        <time>2020-08-06T07:22:20Z</time>
      </trkpt>
      <trkpt lat="42.51356" lon="2.95877">
        <ele>182</ele>
        <time>2020-08-06T07:22:39Z</time>
      </trkpt>
      <trkpt lat="42.51351" lon="2.95914">
        <ele>190</ele>
        <time>2020-08-06T07:22:52Z</time>
      </trkpt>
      <trkpt lat="42.51352" lon="2.95935">
        <ele>194</ele>
        <time>2020-08-06T07:23:00Z</time>
      </trkpt>
      <trkpt lat="42.51357" lon="2.95955">
        <ele>198</ele>
        <time>2020-08-06T07:23:08Z</time>
      </trkpt>
      <trkpt lat="42.51361" lon="2.95969">
        <ele>200</ele>
        <time>2020-08-06T07:23:13Z</time>
      </trkpt>
      <trkpt lat="42.5137" lon="2.95986">
        <ele>201</ele>
        <time>2020-08-06T07:23:21Z</time>
      </trkpt>
      <trkpt lat="42.51407" lon="2.96034">
        <ele>202</ele>
        <time>2020-08-06T07:23:47Z</time>
      </trkpt>
      <trkpt lat="42.51426" lon="2.96049">
        <ele>203</ele>
        <time>2020-08-06T07:23:58Z</time>
      </trkpt>
      <trkpt lat="42.51428" lon="2.96057">
        <ele>205</ele>
        <time>2020-08-06T07:24:01Z</time>
      </trkpt>
      <trkpt lat="42.51425" lon="2.96059">
        <ele>205</ele>
        <time>2020-08-06T07:24:03Z</time>
      </trkpt>
      <trkpt lat="42.51416" lon="2.96057">
        <ele>205</ele>
        <time>2020-08-06T07:24:07Z</time>
      </trkpt>
      <trkpt lat="42.51354" lon="2.96013">
        <ele>213</ele>
        <time>2020-08-06T07:24:42Z</time>
      </trkpt>
      <trkpt lat="42.5133" lon="2.95978">
        <ele>210</ele>
        <time>2020-08-06T07:25:00Z</time>
      </trkpt>
      <trkpt lat="42.51316" lon="2.95971">
        <ele>207</ele>
        <time>2020-08-06T07:25:07Z</time>
      </trkpt>
      <trkpt lat="42.51309" lon="2.9597">
        <ele>206</ele>
        <time>2020-08-06T07:25:11Z</time>
      </trkpt>
      <trkpt lat="42.51304" lon="2.95972">
        <ele>207</ele>
        <time>2020-08-06T07:25:13Z</time>
      </trkpt>
      <trkpt lat="42.51284" lon="2.95993">
        <ele>211</ele>
        <time>2020-08-06T07:25:26Z</time>
      </trkpt>
      <trkpt lat="42.51274" lon="2.95998">
        <ele>212</ele>
        <time>2020-08-06T07:25:31Z</time>
      </trkpt>
      <trkpt lat="42.51272" lon="2.95993">
        <ele>211</ele>
        <time>2020-08-06T07:25:34Z</time>
      </trkpt>
      <trkpt lat="42.51256" lon="2.96005">
        <ele>214</ele>
        <time>2020-08-06T07:25:43Z</time>
      </trkpt>
      <trkpt lat="42.51245" lon="2.96009">
        <ele>213</ele>
        <time>2020-08-06T07:25:48Z</time>
      </trkpt>
      <trkpt lat="42.51238" lon="2.96018">
        <ele>213</ele>
        <time>2020-08-06T07:25:53Z</time>
      </trkpt>
      <trkpt lat="42.51241" lon="2.96024">
        <ele>216</ele>
        <time>2020-08-06T07:25:56Z</time>
      </trkpt>
      <trkpt lat="42.51251" lon="2.96022">
        <ele>219</ele>
        <time>2020-08-06T07:26:01Z</time>
      </trkpt>
      <trkpt lat="42.51268" lon="2.96023">
        <ele>220</ele>
        <time>2020-08-06T07:26:09Z</time>
      </trkpt>
      <trkpt lat="42.51311" lon="2.96032">
        <ele>225</ele>
        <time>2020-08-06T07:26:31Z</time>
      </trkpt>
      <trkpt lat="42.51318" lon="2.96037">
        <ele>227</ele>
        <time>2020-08-06T07:26:35Z</time>
      </trkpt>
      <trkpt lat="42.51337" lon="2.96069">
        <ele>237</ele>
        <time>2020-08-06T07:26:50Z</time>
      </trkpt>
      <trkpt lat="42.51361" lon="2.96095">
        <ele>235</ele>
        <time>2020-08-06T07:27:06Z</time>
      </trkpt>
      <trkpt lat="42.51367" lon="2.96131">
        <ele>243</ele>
        <time>2020-08-06T07:27:19Z</time>
      </trkpt>
      <trkpt lat="42.51374" lon="2.96146">
        <ele>244</ele>
        <time>2020-08-06T07:27:26Z</time>
      </trkpt>
      <trkpt lat="42.5139" lon="2.96168">
        <ele>245</ele>
        <time>2020-08-06T07:27:37Z</time>
      </trkpt>
      <trkpt lat="42.51412" lon="2.96222">
        <ele>254</ele>
        <time>2020-08-06T07:28:00Z</time>
      </trkpt>
      <trkpt lat="42.5141" lon="2.96232">
        <ele>258</ele>
        <time>2020-08-06T07:28:04Z</time>
      </trkpt>
      <trkpt lat="42.51406" lon="2.9623">
        <ele>258</ele>
        <time>2020-08-06T07:28:06Z</time>
      </trkpt>
      <trkpt lat="42.51383" lon="2.9619">
        <ele>253</ele>
        <time>2020-08-06T07:28:25Z</time>
      </trkpt>
      <trkpt lat="42.51348" lon="2.96159">
        <ele>256</ele>
        <time>2020-08-06T07:28:46Z</time>
      </trkpt>
      <trkpt lat="42.51339" lon="2.96147">
        <ele>256</ele>
        <time>2020-08-06T07:28:52Z</time>
      </trkpt>
      <trkpt lat="42.51327" lon="2.96138">
        <ele>256</ele>
        <time>2020-08-06T07:28:59Z</time>
      </trkpt>
      <trkpt lat="42.51317" lon="2.96137">
        <ele>255</ele>
        <time>2020-08-06T07:29:04Z</time>
      </trkpt>
      <trkpt lat="42.51276" lon="2.96151">
        <ele>256</ele>
        <time>2020-08-06T07:29:25Z</time>
      </trkpt>
      <trkpt lat="42.51265" lon="2.96159">
        <ele>258</ele>
        <time>2020-08-06T07:29:31Z</time>
      </trkpt>
      <trkpt lat="42.51259" lon="2.96168">
        <ele>260</ele>
        <time>2020-08-06T07:29:36Z</time>
      </trkpt>
      <trkpt lat="42.51247" lon="2.96215">
        <ele>267</ele>
        <time>2020-08-06T07:29:54Z</time>
      </trkpt>
      <trkpt lat="42.51215" lon="2.96271">
        <ele>266</ele>
        <time>2020-08-06T07:30:20Z</time>
      </trkpt>
      <trkpt lat="42.51213" lon="2.96296">
        <ele>269</ele>
        <time>2020-08-06T07:30:29Z</time>
      </trkpt>
      <trkpt lat="42.5122" lon="2.96324">
        <ele>274</ele>
        <time>2020-08-06T07:30:40Z</time>
      </trkpt>
      <trkpt lat="42.51233" lon="2.96352">
        <ele>282</ele>
        <time>2020-08-06T07:30:53Z</time>
      </trkpt>
      <trkpt lat="42.51275" lon="2.96356">
        <ele>292</ele>
        <time>2020-08-06T07:31:14Z</time>
      </trkpt>
      <trkpt lat="42.51321" lon="2.96371">
        <ele>304</ele>
        <time>2020-08-06T07:31:37Z</time>
      </trkpt>
      <trkpt lat="42.51357" lon="2.96401">
        <ele>315</ele>
        <time>2020-08-06T07:31:58Z</time>
      </trkpt>
      <trkpt lat="42.51368" lon="2.96415">
        <ele>320</ele>
        <time>2020-08-06T07:32:06Z</time>
      </trkpt>
      <trkpt lat="42.51325" lon="2.96476">
        <ele>329</ele>
        <time>2020-08-06T07:32:37Z</time>
      </trkpt>
      <trkpt lat="42.51304" lon="2.96514">
        <ele>332</ele>
        <time>2020-08-06T07:32:55Z</time>
      </trkpt>
      <trkpt lat="42.51269" lon="2.96561">
        <ele>330</ele>
        <time>2020-08-06T07:33:19Z</time>
      </trkpt>
      <trkpt lat="42.51263" lon="2.96579">
        <ele>331</ele>
        <time>2020-08-06T07:33:27Z</time>
      </trkpt>
      <trkpt lat="42.51263" lon="2.96591">
        <ele>332</ele>
        <time>2020-08-06T07:33:31Z</time>
      </trkpt>
      <trkpt lat="42.51267" lon="2.96606">
        <ele>334</ele>
        <time>2020-08-06T07:33:37Z</time>
      </trkpt>
      <trkpt lat="42.51277" lon="2.96623">
        <ele>339</ele>
        <time>2020-08-06T07:33:45Z</time>
      </trkpt>
      <trkpt lat="42.51279" lon="2.96637">
        <ele>341</ele>
        <time>2020-08-06T07:33:50Z</time>
      </trkpt>
      <trkpt lat="42.51262" lon="2.96682">
        <ele>338</ele>
        <time>2020-08-06T07:34:09Z</time>
      </trkpt>
      <trkpt lat="42.51261" lon="2.96719">
        <ele>338</ele>
        <time>2020-08-06T07:34:22Z</time>
      </trkpt>
      <trkpt lat="42.51263" lon="2.96734">
        <ele>339</ele>
        <time>2020-08-06T07:34:28Z</time>
      </trkpt>
      <trkpt lat="42.51268" lon="2.96736">
        <ele>341</ele>
        <time>2020-08-06T07:34:31Z</time>
      </trkpt>
      <trkpt lat="42.51273" lon="2.96726">
        <ele>343</ele>
        <time>2020-08-06T07:34:35Z</time>
      </trkpt>
      <trkpt lat="42.51276" lon="2.96702">
        <ele>343</ele>
        <time>2020-08-06T07:34:44Z</time>
      </trkpt>
      <trkpt lat="42.51311" lon="2.96656">
        <ele>354</ele>
        <time>2020-08-06T07:35:09Z</time>
      </trkpt>
      <trkpt lat="42.51313" lon="2.96651">
        <ele>354</ele>
        <time>2020-08-06T07:35:11Z</time>
      </trkpt>
      <trkpt lat="42.51313" lon="2.96619">
        <ele>351</ele>
        <time>2020-08-06T07:35:22Z</time>
      </trkpt>
      <trkpt lat="42.51322" lon="2.96602">
        <ele>352</ele>
        <time>2020-08-06T07:35:30Z</time>
      </trkpt>
      <trkpt lat="42.51373" lon="2.96552">
        <ele>356</ele>
        <time>2020-08-06T07:36:02Z</time>
      </trkpt>
      <trkpt lat="42.51405" lon="2.96538">
        <ele>359</ele>
        <time>2020-08-06T07:36:18Z</time>
      </trkpt>
      <trkpt lat="42.51417" lon="2.96529">
        <ele>359</ele>
        <time>2020-08-06T07:36:25Z</time>
      </trkpt>
      <trkpt lat="42.51423" lon="2.96529">
        <ele>359</ele>
        <time>2020-08-06T07:36:28Z</time>
      </trkpt>
      <trkpt lat="42.51425" lon="2.96535">
        <ele>361</ele>
        <time>2020-08-06T07:36:31Z</time>
      </trkpt>
      <trkpt lat="42.51417" lon="2.96547">
        <ele>363</ele>
        <time>2020-08-06T07:36:37Z</time>
      </trkpt>
      <trkpt lat="42.51397" lon="2.96568">
        <ele>365</ele>
        <time>2020-08-06T07:36:49Z</time>
      </trkpt>
      <trkpt lat="42.51377" lon="2.966">
        <ele>367</ele>
        <time>2020-08-06T07:37:05Z</time>
      </trkpt>
      <trkpt lat="42.51371" lon="2.96616">
        <ele>368</ele>
        <time>2020-08-06T07:37:11Z</time>
      </trkpt>
      <trkpt lat="42.5137" lon="2.96639">
        <ele>371</ele>
        <time>2020-08-06T07:37:20Z</time>
      </trkpt>
      <trkpt lat="42.51373" lon="2.96677">
        <ele>377</ele>
        <time>2020-08-06T07:37:34Z</time>
      </trkpt>
      <trkpt lat="42.51363" lon="2.96731">
        <ele>378</ele>
        <time>2020-08-06T07:37:55Z</time>
      </trkpt>
      <trkpt lat="42.51361" lon="2.96756">
        <ele>379</ele>
        <time>2020-08-06T07:38:04Z</time>
      </trkpt>
      <trkpt lat="42.51362" lon="2.96784">
        <ele>380</ele>
        <time>2020-08-06T07:38:14Z</time>
      </trkpt>
      <trkpt lat="42.51369" lon="2.96829">
        <ele>384</ele>
        <time>2020-08-06T07:38:31Z</time>
      </trkpt>
      <trkpt lat="42.51381" lon="2.96869">
        <ele>393</ele>
        <time>2020-08-06T07:38:47Z</time>
      </trkpt>
      <trkpt lat="42.51382" lon="2.96884">
        <ele>395</ele>
        <time>2020-08-06T07:38:53Z</time>
      </trkpt>
      <trkpt lat="42.5137" lon="2.96925">
        <ele>396</ele>
        <time>2020-08-06T07:39:09Z</time>
      </trkpt>
      <trkpt lat="42.51372" lon="2.96929">
        <ele>398</ele>
        <time>2020-08-06T07:39:11Z</time>
      </trkpt>
      <trkpt lat="42.51376" lon="2.9693">
        <ele>399</ele>
        <time>2020-08-06T07:39:13Z</time>
      </trkpt>
      <trkpt lat="42.51381" lon="2.96927">
        <ele>400</ele>
        <time>2020-08-06T07:39:16Z</time>
      </trkpt>
      <trkpt lat="42.51399" lon="2.96891">
        <ele>401</ele>
        <time>2020-08-06T07:39:32Z</time>
      </trkpt>
      <trkpt lat="42.51402" lon="2.96854">
        <ele>400</ele>
        <time>2020-08-06T07:39:45Z</time>
      </trkpt>
      <trkpt lat="42.51397" lon="2.96834">
        <ele>396</ele>
        <time>2020-08-06T07:39:53Z</time>
      </trkpt>
      <trkpt lat="42.51396" lon="2.96811">
        <ele>395</ele>
        <time>2020-08-06T07:40:02Z</time>
      </trkpt>
      <trkpt lat="42.51401" lon="2.96788">
        <ele>396</ele>
        <time>2020-08-06T07:40:10Z</time>
      </trkpt>
      <trkpt lat="42.51412" lon="2.96758">
        <ele>399</ele>
        <time>2020-08-06T07:40:23Z</time>
      </trkpt>
      <trkpt lat="42.51451" lon="2.96678">
        <ele>397</ele>
        <time>2020-08-06T07:40:58Z</time>
      </trkpt>
      <trkpt lat="42.51459" lon="2.96671">
        <ele>398</ele>
        <time>2020-08-06T07:41:03Z</time>
      </trkpt>
      <trkpt lat="42.5148" lon="2.96662">
        <ele>400</ele>
        <time>2020-08-06T07:41:14Z</time>
      </trkpt>
      <trkpt lat="42.51484" lon="2.96665">
        <ele>401</ele>
        <time>2020-08-06T07:41:16Z</time>
      </trkpt>
      <trkpt lat="42.51485" lon="2.96673">
        <ele>402</ele>
        <time>2020-08-06T07:41:19Z</time>
      </trkpt>
      <trkpt lat="42.51466" lon="2.96704">
        <ele>403</ele>
        <time>2020-08-06T07:41:34Z</time>
      </trkpt>
      <trkpt lat="42.51441" lon="2.96789">
        <ele>406</ele>
        <time>2020-08-06T07:42:08Z</time>
      </trkpt>
      <trkpt lat="42.51441" lon="2.96804">
        <ele>407</ele>
        <time>2020-08-06T07:42:13Z</time>
      </trkpt>
      <trkpt lat="42.51452" lon="2.96844">
        <ele>411</ele>
        <time>2020-08-06T07:42:29Z</time>
      </trkpt>
      <trkpt lat="42.51463" lon="2.96927">
        <ele>417</ele>
        <time>2020-08-06T07:43:00Z</time>
      </trkpt>
      <trkpt lat="42.51499" lon="2.96988">
        <ele>427</ele>
        <time>2020-08-06T07:43:29Z</time>
      </trkpt>
      <trkpt lat="42.51522" lon="2.97014">
        <ele>421</ele>
        <time>2020-08-06T07:43:44Z</time>
      </trkpt>
      <trkpt lat="42.51527" lon="2.97028">
        <ele>422</ele>
        <time>2020-08-06T07:43:50Z</time>
      </trkpt>
      <trkpt lat="42.51527" lon="2.97045">
        <ele>425</ele>
        <time>2020-08-06T07:43:56Z</time>
      </trkpt>
      <trkpt lat="42.51531" lon="2.97061">
        <ele>426</ele>
        <time>2020-08-06T07:44:02Z</time>
      </trkpt>
      <trkpt lat="42.51557" lon="2.97134">
        <ele>435</ele>
        <time>2020-08-06T07:44:32Z</time>
      </trkpt>
      <trkpt lat="42.5157" lon="2.97161">
        <ele>437</ele>
        <time>2020-08-06T07:44:44Z</time>
      </trkpt>
      <trkpt lat="42.51602" lon="2.97187">
        <ele>431</ele>
        <time>2020-08-06T07:45:03Z</time>
      </trkpt>
      <trkpt lat="42.51631" lon="2.97187">
        <ele>421</ele>
        <time>2020-08-06T07:45:17Z</time>
      </trkpt>
      <trkpt lat="42.51644" lon="2.9719">
        <ele>416</ele>
        <time>2020-08-06T07:45:24Z</time>
      </trkpt>
      <trkpt lat="42.51655" lon="2.972">
        <ele>414</ele>
        <time>2020-08-06T07:45:30Z</time>
      </trkpt>
      <trkpt lat="42.51669" lon="2.97233">
        <ele>416</ele>
        <time>2020-08-06T07:45:45Z</time>
      </trkpt>
      <trkpt lat="42.51671" lon="2.9725">
        <ele>418</ele>
        <time>2020-08-06T07:45:51Z</time>
      </trkpt>
      <trkpt lat="42.51669" lon="2.97258">
        <ele>418</ele>
        <time>2020-08-06T07:45:54Z</time>
      </trkpt>
      <trkpt lat="42.51646" lon="2.97295">
        <ele>426</ele>
        <time>2020-08-06T07:46:12Z</time>
      </trkpt>
      <trkpt lat="42.51644" lon="2.97309">
        <ele>427</ele>
        <time>2020-08-06T07:46:17Z</time>
      </trkpt>
      <trkpt lat="42.51647" lon="2.97311">
        <ele>425</ele>
        <time>2020-08-06T07:46:19Z</time>
      </trkpt>
      <trkpt lat="42.51636" lon="2.97334">
        <ele>431</ele>
        <time>2020-08-06T07:46:29Z</time>
      </trkpt>
      <trkpt lat="42.51636" lon="2.97367">
        <ele>432</ele>
        <time>2020-08-06T07:46:41Z</time>
      </trkpt>
      <trkpt lat="42.51626" lon="2.97398">
        <ele>439</ele>
        <time>2020-08-06T07:46:54Z</time>
      </trkpt>
      <trkpt lat="42.51627" lon="2.9741">
        <ele>438</ele>
        <time>2020-08-06T07:46:58Z</time>
      </trkpt>
      <trkpt lat="42.51639" lon="2.97444">
        <ele>434</ele>
        <time>2020-08-06T07:47:12Z</time>
      </trkpt>
      <trkpt lat="42.51651" lon="2.97461">
        <ele>428</ele>
        <time>2020-08-06T07:47:21Z</time>
      </trkpt>
      <trkpt lat="42.51662" lon="2.97499">
        <ele>428</ele>
        <time>2020-08-06T07:47:36Z</time>
      </trkpt>
      <trkpt lat="42.51663" lon="2.97511">
        <ele>426</ele>
        <time>2020-08-06T07:47:40Z</time>
      </trkpt>
      <trkpt lat="42.51659" lon="2.97523">
        <ele>427</ele>
        <time>2020-08-06T07:47:45Z</time>
      </trkpt>
      <trkpt lat="42.5163" lon="2.97542">
        <ele>440</ele>
        <time>2020-08-06T07:48:01Z</time>
      </trkpt>
      <trkpt lat="42.51617" lon="2.97558">
        <ele>446</ele>
        <time>2020-08-06T07:48:10Z</time>
      </trkpt>
      <trkpt lat="42.5161" lon="2.97572">
        <ele>448</ele>
        <time>2020-08-06T07:48:16Z</time>
      </trkpt>
      <trkpt lat="42.51612" lon="2.97639">
        <ele>438</ele>
        <time>2020-08-06T07:48:41Z</time>
      </trkpt>
      <trkpt lat="42.51607" lon="2.97655">
        <ele>439</ele>
        <time>2020-08-06T07:48:47Z</time>
      </trkpt>
      <trkpt lat="42.51578" lon="2.97693">
        <ele>453</ele>
        <time>2020-08-06T07:49:07Z</time>
      </trkpt>
      <trkpt lat="42.51573" lon="2.97709">
        <ele>456</ele>
        <time>2020-08-06T07:49:14Z</time>
      </trkpt>
      <trkpt lat="42.51569" lon="2.97743">
        <ele>457</ele>
        <time>2020-08-06T07:49:27Z</time>
      </trkpt>
      <trkpt lat="42.51568" lon="2.97763">
        <ele>460</ele>
        <time>2020-08-06T07:49:34Z</time>
      </trkpt>
      <trkpt lat="42.51579" lon="2.97803">
        <ele>462</ele>
        <time>2020-08-06T07:49:50Z</time>
      </trkpt>
      <trkpt lat="42.51585" lon="2.9781">
        <ele>461</ele>
        <time>2020-08-06T07:49:54Z</time>
      </trkpt>
      <trkpt lat="42.516" lon="2.97841">
        <ele>462</ele>
        <time>2020-08-06T07:50:07Z</time>
      </trkpt>
      <trkpt lat="42.51611" lon="2.97857">
        <ele>463</ele>
        <time>2020-08-06T07:50:15Z</time>
      </trkpt>
      <trkpt lat="42.51611" lon="2.97859">
        <ele>464</ele>
        <time>2020-08-06T07:50:16Z</time>
      </trkpt>
      <trkpt lat="42.51598" lon="2.97863">
        <ele>470</ele>
        <time>2020-08-06T07:50:23Z</time>
      </trkpt>
      <trkpt lat="42.5161" lon="2.97875">
        <ele>470</ele>
        <time>2020-08-06T07:50:30Z</time>
      </trkpt>
      <trkpt lat="42.51617" lon="2.97876">
        <ele>467</ele>
        <time>2020-08-06T07:50:34Z</time>
      </trkpt>
      <trkpt lat="42.51637" lon="2.97894">
        <ele>466</ele>
        <time>2020-08-06T07:50:46Z</time>
      </trkpt>
      <trkpt lat="42.51649" lon="2.97923">
        <ele>471</ele>
        <time>2020-08-06T07:50:58Z</time>
      </trkpt>
      <trkpt lat="42.51671" lon="2.97942">
        <ele>466</ele>
        <time>2020-08-06T07:51:11Z</time>
      </trkpt>
      <trkpt lat="42.51686" lon="2.97953">
        <ele>463</ele>
        <time>2020-08-06T07:51:20Z</time>
      </trkpt>
      <trkpt lat="42.51714" lon="2.97963">
        <ele>457</ele>
        <time>2020-08-06T07:51:34Z</time>
      </trkpt>
      <trkpt lat="42.51729" lon="2.97971">
        <ele>455</ele>
        <time>2020-08-06T07:51:42Z</time>
      </trkpt>
      <trkpt lat="42.51779" lon="2.97968">
        <ele>438</ele>
        <time>2020-08-06T07:52:07Z</time>
      </trkpt>
      <trkpt lat="42.51783" lon="2.97966">
        <ele>436</ele>
        <time>2020-08-06T07:52:09Z</time>
      </trkpt>
      <trkpt lat="42.51787" lon="2.97956">
        <ele>433</ele>
        <time>2020-08-06T07:52:14Z</time>
      </trkpt>
      <trkpt lat="42.51786" lon="2.97952">
        <ele>432</ele>
        <time>2020-08-06T07:52:15Z</time>
      </trkpt>
      <trkpt lat="42.51778" lon="2.97946">
        <ele>434</ele>
        <time>2020-08-06T07:52:20Z</time>
      </trkpt>
      <trkpt lat="42.51767" lon="2.97943">
        <ele>438</ele>
        <time>2020-08-06T07:52:25Z</time>
      </trkpt>
      <trkpt lat="42.51762" lon="2.97937">
        <ele>438</ele>
        <time>2020-08-06T07:52:29Z</time>
      </trkpt>
      <trkpt lat="42.51749" lon="2.9793">
        <ele>441</ele>
        <time>2020-08-06T07:52:36Z</time>
      </trkpt>
      <trkpt lat="42.51746" lon="2.97926">
        <ele>441</ele>
        <time>2020-08-06T07:52:38Z</time>
      </trkpt>
      <trkpt lat="42.51748" lon="2.9792">
        <ele>438</ele>
        <time>2020-08-06T07:52:40Z</time>
      </trkpt>
      <trkpt lat="42.5176" lon="2.97917">
        <ele>434</ele>
        <time>2020-08-06T07:52:46Z</time>
      </trkpt>
      <trkpt lat="42.51761" lon="2.97914">
        <ele>432</ele>
        <time>2020-08-06T07:52:48Z</time>
      </trkpt>
      <trkpt lat="42.51763" lon="2.97917">
        <ele>433</ele>
        <time>2020-08-06T07:52:49Z</time>
      </trkpt>
      <trkpt lat="42.51774" lon="2.9792">
        <ele>430</ele>
        <time>2020-08-06T07:52:55Z</time>
      </trkpt>
      <trkpt lat="42.51777" lon="2.97919">
        <ele>429</ele>
        <time>2020-08-06T07:52:56Z</time>
      </trkpt>
      <trkpt lat="42.51778" lon="2.97914">
        <ele>427</ele>
        <time>2020-08-06T07:52:58Z</time>
      </trkpt>
      <trkpt lat="42.51782" lon="2.97913">
        <ele>425</ele>
        <time>2020-08-06T07:53:00Z</time>
      </trkpt>
      <trkpt lat="42.51791" lon="2.97918">
        <ele>424</ele>
        <time>2020-08-06T07:53:05Z</time>
      </trkpt>
      <trkpt lat="42.51796" lon="2.97915">
        <ele>422</ele>
        <time>2020-08-06T07:53:08Z</time>
      </trkpt>
      <trkpt lat="42.51801" lon="2.97915">
        <ele>420</ele>
        <time>2020-08-06T07:53:10Z</time>
      </trkpt>
      <trkpt lat="42.51805" lon="2.97918">
        <ele>420</ele>
        <time>2020-08-06T07:53:12Z</time>
      </trkpt>
      <trkpt lat="42.5181" lon="2.97918">
        <ele>418</ele>
        <time>2020-08-06T07:53:15Z</time>
      </trkpt>
      <trkpt lat="42.51817" lon="2.97914">
        <ele>415</ele>
        <time>2020-08-06T07:53:19Z</time>
      </trkpt>
      <trkpt lat="42.51827" lon="2.97916">
        <ele>413</ele>
        <time>2020-08-06T07:53:24Z</time>
      </trkpt>
      <trkpt lat="42.51841" lon="2.9793">
        <ele>409</ele>
        <time>2020-08-06T07:53:33Z</time>
      </trkpt>
      <trkpt lat="42.51842" lon="2.97935">
        <ele>409</ele>
        <time>2020-08-06T07:53:34Z</time>
      </trkpt>
      <trkpt lat="42.51856" lon="2.97952">
        <ele>404</ele>
        <time>2020-08-06T07:53:44Z</time>
      </trkpt>
      <trkpt lat="42.51861" lon="2.97972">
        <ele>403</ele>
        <time>2020-08-06T07:53:52Z</time>
      </trkpt>
      <trkpt lat="42.51866" lon="2.97973">
        <ele>400</ele>
        <time>2020-08-06T07:53:54Z</time>
      </trkpt>
      <trkpt lat="42.51868" lon="2.97968">
        <ele>399</ele>
        <time>2020-08-06T07:53:56Z</time>
      </trkpt>
      <trkpt lat="42.51879" lon="2.97971">
        <ele>393</ele>
        <time>2020-08-06T07:54:02Z</time>
      </trkpt>
      <trkpt lat="42.51887" lon="2.97962">
        <ele>389</ele>
        <time>2020-08-06T07:54:07Z</time>
      </trkpt>
      <trkpt lat="42.51888" lon="2.97947">
        <ele>387</ele>
        <time>2020-08-06T07:54:13Z</time>
      </trkpt>
      <trkpt lat="42.51886" lon="2.97933">
        <ele>388</ele>
        <time>2020-08-06T07:54:18Z</time>
      </trkpt>
      <trkpt lat="42.51882" lon="2.9793">
        <ele>390</ele>
        <time>2020-08-06T07:54:20Z</time>
      </trkpt>
      <trkpt lat="42.51882" lon="2.97919">
        <ele>389</ele>
        <time>2020-08-06T07:54:24Z</time>
      </trkpt>
      <trkpt lat="42.51886" lon="2.97917">
        <ele>387</ele>
        <time>2020-08-06T07:54:26Z</time>
      </trkpt>
      <trkpt lat="42.51889" lon="2.97922">
        <ele>386</ele>
        <time>2020-08-06T07:54:29Z</time>
      </trkpt>
      <trkpt lat="42.51893" lon="2.97921">
        <ele>384</ele>
        <time>2020-08-06T07:54:31Z</time>
      </trkpt>
      <trkpt lat="42.51906" lon="2.9793">
        <ele>378</ele>
        <time>2020-08-06T07:54:38Z</time>
      </trkpt>
      <trkpt lat="42.51915" lon="2.97933">
        <ele>374</ele>
        <time>2020-08-06T07:54:43Z</time>
      </trkpt>
      <trkpt lat="42.51917" lon="2.97927">
        <ele>373</ele>
        <time>2020-08-06T07:54:45Z</time>
      </trkpt>
      <trkpt lat="42.51923" lon="2.97934">
        <ele>370</ele>
        <time>2020-08-06T07:54:49Z</time>
      </trkpt>
      <trkpt lat="42.5193" lon="2.97957">
        <ele>367</ele>
        <time>2020-08-06T07:54:58Z</time>
      </trkpt>
      <trkpt lat="42.51929" lon="2.98001">
        <ele>368</ele>
        <time>2020-08-06T07:55:15Z</time>
      </trkpt>
      <trkpt lat="42.51959" lon="2.9797">
        <ele>354</ele>
        <time>2020-08-06T07:55:33Z</time>
      </trkpt>
      <trkpt lat="42.51967" lon="2.97969">
        <ele>350</ele>
        <time>2020-08-06T07:55:37Z</time>
      </trkpt>
      <trkpt lat="42.51966" lon="2.97956">
        <ele>349</ele>
        <time>2020-08-06T07:55:42Z</time>
      </trkpt>
      <trkpt lat="42.51971" lon="2.9796">
        <ele>347</ele>
        <time>2020-08-06T07:55:45Z</time>
      </trkpt>
      <trkpt lat="42.51973" lon="2.97966">
        <ele>346</ele>
        <time>2020-08-06T07:55:48Z</time>
      </trkpt>
      <trkpt lat="42.51976" lon="2.97967">
        <ele>345</ele>
        <time>2020-08-06T07:55:49Z</time>
      </trkpt>
      <trkpt lat="42.5198" lon="2.97964">
        <ele>343</ele>
        <time>2020-08-06T07:55:51Z</time>
      </trkpt>
      <trkpt lat="42.51983" lon="2.9797">
        <ele>342</ele>
        <time>2020-08-06T07:55:54Z</time>
      </trkpt>
      <trkpt lat="42.51998" lon="2.97972">
        <ele>335</ele>
        <time>2020-08-06T07:56:02Z</time>
      </trkpt>
      <trkpt lat="42.52015" lon="2.97991">
        <ele>333</ele>
        <time>2020-08-06T07:56:13Z</time>
      </trkpt>
      <trkpt lat="42.52012" lon="2.98029">
        <ele>327</ele>
        <time>2020-08-06T07:56:27Z</time>
      </trkpt>
      <trkpt lat="42.52008" lon="2.9804">
        <ele>324</ele>
        <time>2020-08-06T07:56:31Z</time>
      </trkpt>
      <trkpt lat="42.52006" lon="2.98045">
        <ele>323</ele>
        <time>2020-08-06T07:56:33Z</time>
      </trkpt>
      <trkpt lat="42.51992" lon="2.9805">
        <ele>327</ele>
        <time>2020-08-06T07:56:41Z</time>
      </trkpt>
      <trkpt lat="42.51991" lon="2.98053">
        <ele>326</ele>
        <time>2020-08-06T07:56:42Z</time>
      </trkpt>
      <trkpt lat="42.51992" lon="2.98057">
        <ele>324</ele>
        <time>2020-08-06T07:56:43Z</time>
      </trkpt>
      <trkpt lat="42.52" lon="2.98062">
        <ele>319</ele>
        <time>2020-08-06T07:56:48Z</time>
      </trkpt>
      <trkpt lat="42.52002" lon="2.98067">
        <ele>318</ele>
        <time>2020-08-06T07:56:50Z</time>
      </trkpt>
      <trkpt lat="42.52004" lon="2.98076">
        <ele>315</ele>
        <time>2020-08-06T07:56:53Z</time>
      </trkpt>
      <trkpt lat="42.52001" lon="2.98086">
        <ele>312</ele>
        <time>2020-08-06T07:56:57Z</time>
      </trkpt>
      <trkpt lat="42.52004" lon="2.98099">
        <ele>306</ele>
        <time>2020-08-06T07:57:02Z</time>
      </trkpt>
      <trkpt lat="42.52003" lon="2.98103">
        <ele>305</ele>
        <time>2020-08-06T07:57:04Z</time>
      </trkpt>
      <trkpt lat="42.51996" lon="2.9811">
        <ele>304</ele>
        <time>2020-08-06T07:57:08Z</time>
      </trkpt>
      <trkpt lat="42.51991" lon="2.98123">
        <ele>301</ele>
        <time>2020-08-06T07:57:14Z</time>
      </trkpt>
      <trkpt lat="42.5197" lon="2.98273">
        <ele>272</ele>
        <time>2020-08-06T07:58:10Z</time>
      </trkpt>
      <trkpt lat="42.52005" lon="2.9827">
        <ele>259</ele>
        <time>2020-08-06T07:58:28Z</time>
      </trkpt>
      <trkpt lat="42.52014" lon="2.98267">
        <ele>257</ele>
        <time>2020-08-06T07:58:32Z</time>
      </trkpt>
      <trkpt lat="42.5201" lon="2.98284">
        <ele>256</ele>
        <time>2020-08-06T07:58:39Z</time>
      </trkpt>
      <trkpt lat="42.52035" lon="2.98293">
        <ele>247</ele>
        <time>2020-08-06T07:58:52Z</time>
      </trkpt>
      <trkpt lat="42.52054" lon="2.98308">
        <ele>238</ele>
        <time>2020-08-06T07:59:03Z</time>
      </trkpt>
      <trkpt lat="42.52056" lon="2.98321">
        <ele>236</ele>
        <time>2020-08-06T07:59:08Z</time>
      </trkpt>
      <trkpt lat="42.52071" lon="2.98347">
        <ele>226</ele>
        <time>2020-08-06T07:59:20Z</time>
      </trkpt>
      <trkpt lat="42.52075" lon="2.9836">
        <ele>222</ele>
        <time>2020-08-06T07:59:25Z</time>
      </trkpt>
      <trkpt lat="42.52076" lon="2.98376">
        <ele>219</ele>
        <time>2020-08-06T07:59:31Z</time>
      </trkpt>
      <trkpt lat="42.52074" lon="2.98389">
        <ele>218</ele>
        <time>2020-08-06T07:59:36Z</time>
      </trkpt>
      <trkpt lat="42.52065" lon="2.98413">
        <ele>217</ele>
        <time>2020-08-06T07:59:46Z</time>
      </trkpt>
      <trkpt lat="42.52062" lon="2.98416">
        <ele>218</ele>
        <time>2020-08-06T07:59:48Z</time>
      </trkpt>
      <trkpt lat="42.5207" lon="2.98467">
        <ele>207</ele>
        <time>2020-08-06T08:00:07Z</time>
      </trkpt>
      <trkpt lat="42.52076" lon="2.98481">
        <ele>203</ele>
        <time>2020-08-06T08:00:13Z</time>
      </trkpt>
      <trkpt lat="42.52082" lon="2.98483">
        <ele>201</ele>
        <time>2020-08-06T08:00:16Z</time>
      </trkpt>
      <trkpt lat="42.52094" lon="2.98458">
        <ele>201</ele>
        <time>2020-08-06T08:00:27Z</time>
      </trkpt>
      <trkpt lat="42.52094" lon="2.98451">
        <ele>202</ele>
        <time>2020-08-06T08:00:30Z</time>
      </trkpt>
      <trkpt lat="42.52098" lon="2.98451">
        <ele>201</ele>
        <time>2020-08-06T08:00:32Z</time>
      </trkpt>
      <trkpt lat="42.52111" lon="2.98473">
        <ele>195</ele>
        <time>2020-08-06T08:00:42Z</time>
      </trkpt>
      <trkpt lat="42.52102" lon="2.98504">
        <ele>193</ele>
        <time>2020-08-06T08:00:54Z</time>
      </trkpt>
      <trkpt lat="42.52093" lon="2.98612">
        <ele>184</ele>
        <time>2020-08-06T08:01:34Z</time>
      </trkpt>
      <trkpt lat="42.52098" lon="2.98638">
        <ele>181</ele>
        <time>2020-08-06T08:01:44Z</time>
      </trkpt>
      <trkpt lat="42.52109" lon="2.98656">
        <ele>177</ele>
        <time>2020-08-06T08:01:53Z</time>
      </trkpt>
      <trkpt lat="42.52134" lon="2.98677">
        <ele>170</ele>
        <time>2020-08-06T08:02:08Z</time>
      </trkpt>
      <trkpt lat="42.52142" lon="2.98723">
        <ele>166</ele>
        <time>2020-08-06T08:02:25Z</time>
      </trkpt>
      <trkpt lat="42.52151" lon="2.98724">
        <ele>164</ele>
        <time>2020-08-06T08:02:29Z</time>
      </trkpt>
      <trkpt lat="42.52168" lon="2.98736">
        <ele>161</ele>
        <time>2020-08-06T08:02:39Z</time>
      </trkpt>
      <trkpt lat="42.52185" lon="2.98742">
        <ele>157</ele>
        <time>2020-08-06T08:02:48Z</time>
      </trkpt>
      <trkpt lat="42.5219" lon="2.98736">
        <ele>156</ele>
        <time>2020-08-06T08:02:51Z</time>
      </trkpt>
      <trkpt lat="42.52193" lon="2.98711">
        <ele>156</ele>
        <time>2020-08-06T08:03:01Z</time>
      </trkpt>
      <trkpt lat="42.52189" lon="2.98684">
        <ele>157</ele>
        <time>2020-08-06T08:03:11Z</time>
      </trkpt>
      <trkpt lat="42.52193" lon="2.98673">
        <ele>157</ele>
        <time>2020-08-06T08:03:15Z</time>
      </trkpt>
      <trkpt lat="42.52206" lon="2.98658">
        <ele>154</ele>
        <time>2020-08-06T08:03:24Z</time>
      </trkpt>
      <trkpt lat="42.52205" lon="2.98632">
        <ele>157</ele>
        <time>2020-08-06T08:03:33Z</time>
      </trkpt>
      <trkpt lat="42.52207" lon="2.98625">
        <ele>157</ele>
        <time>2020-08-06T08:03:36Z</time>
      </trkpt>
      <trkpt lat="42.52219" lon="2.98619">
        <ele>155</ele>
        <time>2020-08-06T08:03:43Z</time>
      </trkpt>
      <trkpt lat="42.52229" lon="2.9862">
        <ele>153</ele>
        <time>2020-08-06T08:03:48Z</time>
      </trkpt>
      <trkpt lat="42.52234" lon="2.98615">
        <ele>153</ele>
        <time>2020-08-06T08:03:51Z</time>
      </trkpt>
      <trkpt lat="42.52234" lon="2.98594">
        <ele>155</ele>
        <time>2020-08-06T08:03:58Z</time>
      </trkpt>
      <trkpt lat="42.52241" lon="2.98595">
        <ele>154</ele>
        <time>2020-08-06T08:04:02Z</time>
      </trkpt>
      <trkpt lat="42.52249" lon="2.98602">
        <ele>152</ele>
        <time>2020-08-06T08:04:07Z</time>
      </trkpt>
      <trkpt lat="42.52272" lon="2.98615">
        <ele>147</ele>
        <time>2020-08-06T08:04:19Z</time>
      </trkpt>
      <trkpt lat="42.5228" lon="2.9863">
        <ele>143</ele>
        <time>2020-08-06T08:04:26Z</time>
      </trkpt>
      <trkpt lat="42.52303" lon="2.98644">
        <ele>137</ele>
        <time>2020-08-06T08:04:39Z</time>
      </trkpt>
      <trkpt lat="42.5232" lon="2.98646">
        <ele>134</ele>
        <time>2020-08-06T08:04:47Z</time>
      </trkpt>
      <trkpt lat="42.52334" lon="2.98641">
        <ele>132</ele>
        <time>2020-08-06T08:04:54Z</time>
      </trkpt>
      <trkpt lat="42.5234" lon="2.98629">
        <ele>132</ele>
        <time>2020-08-06T08:05:00Z</time>
      </trkpt>
      <trkpt lat="42.52344" lon="2.98611">
        <ele>134</ele>
        <time>2020-08-06T08:05:07Z</time>
      </trkpt>
      <trkpt lat="42.52368" lon="2.98582">
        <ele>130</ele>
        <time>2020-08-06T08:05:23Z</time>
      </trkpt>
      <trkpt lat="42.52378" lon="2.98561">
        <ele>129</ele>
        <time>2020-08-06T08:05:32Z</time>
      </trkpt>
      <trkpt lat="42.52387" lon="2.98549">
        <ele>127</ele>
        <time>2020-08-06T08:05:38Z</time>
      </trkpt>
      <trkpt lat="42.52412" lon="2.98533">
        <ele>119</ele>
        <time>2020-08-06T08:05:52Z</time>
      </trkpt>
      <trkpt lat="42.52419" lon="2.98509">
        <ele>120</ele>
        <time>2020-08-06T08:06:02Z</time>
      </trkpt>
      <trkpt lat="42.52423" lon="2.98473">
        <ele>125</ele>
        <time>2020-08-06T08:06:15Z</time>
      </trkpt>
      <trkpt lat="42.5244" lon="2.98437">
        <ele>131</ele>
        <time>2020-08-06T08:06:31Z</time>
      </trkpt>
      <trkpt lat="42.52448" lon="2.98436">
        <ele>130</ele>
        <time>2020-08-06T08:06:35Z</time>
      </trkpt>
      <trkpt lat="42.52453" lon="2.9844">
        <ele>129</ele>
        <time>2020-08-06T08:06:38Z</time>
      </trkpt>
      <trkpt lat="42.52456" lon="2.9845">
        <ele>127</ele>
        <time>2020-08-06T08:06:42Z</time>
      </trkpt>
      <trkpt lat="42.52455" lon="2.98457">
        <ele>125</ele>
        <time>2020-08-06T08:06:44Z</time>
      </trkpt>
      <trkpt lat="42.52461" lon="2.98459">
        <ele>124</ele>
        <time>2020-08-06T08:06:47Z</time>
      </trkpt>
      <trkpt lat="42.5248" lon="2.98492">
        <ele>114</ele>
        <time>2020-08-06T08:07:03Z</time>
      </trkpt>
      <trkpt lat="42.52486" lon="2.98498">
        <ele>112</ele>
        <time>2020-08-06T08:07:07Z</time>
      </trkpt>
      <trkpt lat="42.52496" lon="2.98501">
        <ele>109</ele>
        <time>2020-08-06T08:07:12Z</time>
      </trkpt>
      <trkpt lat="42.52514" lon="2.98501">
        <ele>110</ele>
        <time>2020-08-06T08:07:21Z</time>
      </trkpt>
      <trkpt lat="42.52528" lon="2.98504">
        <ele>110</ele>
        <time>2020-08-06T08:07:28Z</time>
      </trkpt>
      <trkpt lat="42.52582" lon="2.98532">
        <ele>106</ele>
        <time>2020-08-06T08:07:57Z</time>
      </trkpt>
      <trkpt lat="42.52593" lon="2.9854">
        <ele>103</ele>
        <time>2020-08-06T08:08:03Z</time>
      </trkpt>
      <trkpt lat="42.52623" lon="2.98553">
        <ele>100</ele>
        <time>2020-08-06T08:08:19Z</time>
      </trkpt>
      <trkpt lat="42.52636" lon="2.98555">
        <ele>100</ele>
        <time>2020-08-06T08:08:25Z</time>
      </trkpt>
      <trkpt lat="42.52647" lon="2.98545">
        <ele>101</ele>
        <time>2020-08-06T08:08:32Z</time>
      </trkpt>
      <trkpt lat="42.5265" lon="2.98537">
        <ele>102</ele>
        <time>2020-08-06T08:08:35Z</time>
      </trkpt>
      <trkpt lat="42.52683" lon="2.98487">
        <ele>104</ele>
        <time>2020-08-06T08:09:00Z</time>
      </trkpt>
      <trkpt lat="42.52685" lon="2.98479">
        <ele>104</ele>
        <time>2020-08-06T08:09:03Z</time>
      </trkpt>
      <trkpt lat="42.52719" lon="2.98423">
        <ele>102</ele>
        <time>2020-08-06T08:09:30Z</time>
      </trkpt>
      <trkpt lat="42.52728" lon="2.98423">
        <ele>101</ele>
        <time>2020-08-06T08:09:34Z</time>
      </trkpt>
      <trkpt lat="42.5275" lon="2.9844">
        <ele>97</ele>
        <time>2020-08-06T08:09:47Z</time>
      </trkpt>
      <trkpt lat="42.52764" lon="2.98441">
        <ele>96</ele>
        <time>2020-08-06T08:09:54Z</time>
      </trkpt>
      <trkpt lat="42.52831" lon="2.98409">
        <ele>90</ele>
        <time>2020-08-06T08:10:30Z</time>
      </trkpt>
      <trkpt lat="42.52881" lon="2.98396">
        <ele>88</ele>
        <time>2020-08-06T08:10:55Z</time>
      </trkpt>
      <trkpt lat="42.52909" lon="2.98386">
        <ele>86</ele>
        <time>2020-08-06T08:11:10Z</time>
      </trkpt>
      <trkpt lat="42.53032" lon="2.98317">
        <ele>81</ele>
        <time>2020-08-06T08:12:16Z</time>
      </trkpt>
      <trkpt lat="42.53095" lon="2.98274">
        <ele>78</ele>
        <time>2020-08-06T08:12:52Z</time>
      </trkpt>
      <trkpt lat="42.53126" lon="2.98259">
        <ele>77</ele>
        <time>2020-08-06T08:13:08Z</time>
      </trkpt>
      <trkpt lat="42.53154" lon="2.9825">
        <ele>77</ele>
        <time>2020-08-06T08:13:22Z</time>
      </trkpt>
      <trkpt lat="42.53164" lon="2.98252">
        <ele>77</ele>
        <time>2020-08-06T08:13:27Z</time>
      </trkpt>
      <trkpt lat="42.53155" lon="2.98388">
        <ele>78</ele>
        <time>2020-08-06T08:14:18Z</time>
      </trkpt>
      <trkpt lat="42.53161" lon="2.98439">
        <ele>78</ele>
        <time>2020-08-06T08:14:37Z</time>
      </trkpt>
      <trkpt lat="42.53176" lon="2.98491">
        <ele>77</ele>
        <time>2020-08-06T08:14:57Z</time>
      </trkpt>
      <trkpt lat="42.53214" lon="2.9857">
        <ele>76</ele>
        <time>2020-08-06T08:15:32Z</time>
      </trkpt>
      <trkpt lat="42.53223" lon="2.98595">
        <ele>75</ele>
        <time>2020-08-06T08:15:42Z</time>
      </trkpt>
      <trkpt lat="42.53238" lon="2.98665">
        <ele>73</ele>
        <time>2020-08-06T08:16:09Z</time>
      </trkpt>
      <trkpt lat="42.53244" lon="2.98726">
        <ele>71</ele>
        <time>2020-08-06T08:16:32Z</time>
      </trkpt>
      <trkpt lat="42.53242" lon="2.9881">
        <ele>69</ele>
        <time>2020-08-06T08:17:03Z</time>
      </trkpt>
      <trkpt lat="42.53236" lon="2.98817">
        <ele>68</ele>
        <time>2020-08-06T08:17:07Z</time>
      </trkpt>
      <trkpt lat="42.53228" lon="2.98842">
        <ele>67</ele>
        <time>2020-08-06T08:17:17Z</time>
      </trkpt>
      <trkpt lat="42.53218" lon="2.98855">
        <ele>66</ele>
        <time>2020-08-06T08:17:24Z</time>
      </trkpt>
      <trkpt lat="42.53191" lon="2.98871">
        <ele>63</ele>
        <time>2020-08-06T08:17:39Z</time>
      </trkpt>
      <trkpt lat="42.53149" lon="2.98877">
        <ele>63</ele>
        <time>2020-08-06T08:18:00Z</time>
      </trkpt>
      <trkpt lat="42.53127" lon="2.98887">
        <ele>64</ele>
        <time>2020-08-06T08:18:11Z</time>
      </trkpt>
      <trkpt lat="42.53099" lon="2.98915">
        <ele>67</ele>
        <time>2020-08-06T08:18:29Z</time>
      </trkpt>
      <trkpt lat="42.5309" lon="2.98913">
        <ele>67</ele>
        <time>2020-08-06T08:18:33Z</time>
      </trkpt>
      <trkpt lat="42.53075" lon="2.98898">
        <ele>68</ele>
        <time>2020-08-06T08:18:43Z</time>
      </trkpt>
      <trkpt lat="42.53068" lon="2.98896">
        <ele>69</ele>
        <time>2020-08-06T08:18:46Z</time>
      </trkpt>
      <trkpt lat="42.53044" lon="2.98901">
        <ele>72</ele>
        <time>2020-08-06T08:18:58Z</time>
      </trkpt>
      <trkpt lat="42.53029" lon="2.989">
        <ele>73</ele>
        <time>2020-08-06T08:19:06Z</time>
      </trkpt>
      <trkpt lat="42.52993" lon="2.98903">
        <ele>77</ele>
        <time>2020-08-06T08:19:24Z</time>
      </trkpt>
      <trkpt lat="42.52985" lon="2.98898">
        <ele>78</ele>
        <time>2020-08-06T08:19:28Z</time>
      </trkpt>
      <trkpt lat="42.52966" lon="2.98879">
        <ele>79</ele>
        <time>2020-08-06T08:19:40Z</time>
      </trkpt>
      <trkpt lat="42.52923" lon="2.98814">
        <ele>80</ele>
        <time>2020-08-06T08:20:12Z</time>
      </trkpt>
      <trkpt lat="42.52911" lon="2.98801">
        <ele>80</ele>
        <time>2020-08-06T08:20:20Z</time>
      </trkpt>
      <trkpt lat="42.52893" lon="2.98812">
        <ele>83</ele>
        <time>2020-08-06T08:20:30Z</time>
      </trkpt>
      <trkpt lat="42.52883" lon="2.98815">
        <ele>84</ele>
        <time>2020-08-06T08:20:35Z</time>
      </trkpt>
      <trkpt lat="42.52871" lon="2.98812">
        <ele>85</ele>
        <time>2020-08-06T08:20:41Z</time>
      </trkpt>
      <trkpt lat="42.5286" lon="2.98828">
        <ele>88</ele>
        <time>2020-08-06T08:20:49Z</time>
      </trkpt>
      <trkpt lat="42.52799" lon="2.98855">
        <ele>98</ele>
        <time>2020-08-06T08:21:21Z</time>
      </trkpt>
      <trkpt lat="42.52758" lon="2.9888">
        <ele>104</ele>
        <time>2020-08-06T08:21:44Z</time>
      </trkpt>
      <trkpt lat="42.52732" lon="2.98901">
        <ele>110</ele>
        <time>2020-08-06T08:21:59Z</time>
      </trkpt>
      <trkpt lat="42.5271" lon="2.98911">
        <ele>113</ele>
        <time>2020-08-06T08:22:11Z</time>
      </trkpt>
      <trkpt lat="42.52706" lon="2.98924">
        <ele>115</ele>
        <time>2020-08-06T08:22:16Z</time>
      </trkpt>
      <trkpt lat="42.52699" lon="2.98934">
        <ele>117</ele>
        <time>2020-08-06T08:22:21Z</time>
      </trkpt>
      <trkpt lat="42.52694" lon="2.98951">
        <ele>119</ele>
        <time>2020-08-06T08:22:28Z</time>
      </trkpt>
      <trkpt lat="42.52696" lon="2.9897">
        <ele>121</ele>
        <time>2020-08-06T08:22:35Z</time>
      </trkpt>
      <trkpt lat="42.52699" lon="2.98974">
        <ele>122</ele>
        <time>2020-08-06T08:22:37Z</time>
      </trkpt>
      <trkpt lat="42.52708" lon="2.98976">
        <ele>121</ele>
        <time>2020-08-06T08:22:41Z</time>
      </trkpt>
      <trkpt lat="42.52755" lon="2.98952">
        <ele>114</ele>
        <time>2020-08-06T08:23:07Z</time>
      </trkpt>
      <trkpt lat="42.52766" lon="2.98952">
        <ele>113</ele>
        <time>2020-08-06T08:23:12Z</time>
      </trkpt>
      <trkpt lat="42.52776" lon="2.98955">
        <ele>112</ele>
        <time>2020-08-06T08:23:17Z</time>
      </trkpt>
      <trkpt lat="42.52786" lon="2.98964">
        <ele>112</ele>
        <time>2020-08-06T08:23:23Z</time>
      </trkpt>
      <trkpt lat="42.52791" lon="2.98972">
        <ele>113</ele>
        <time>2020-08-06T08:23:27Z</time>
      </trkpt>
      <trkpt lat="42.52797" lon="2.98991">
        <ele>115</ele>
        <time>2020-08-06T08:23:35Z</time>
      </trkpt>
      <trkpt lat="42.52804" lon="2.99037">
        <ele>120</ele>
        <time>2020-08-06T08:23:52Z</time>
      </trkpt>
      <trkpt lat="42.52818" lon="2.99058">
        <ele>120</ele>
        <time>2020-08-06T08:24:03Z</time>
      </trkpt>
      <trkpt lat="42.52827" lon="2.99083">
        <ele>120</ele>
        <time>2020-08-06T08:24:13Z</time>
      </trkpt>
      <trkpt lat="42.52826" lon="2.99093">
        <ele>122</ele>
        <time>2020-08-06T08:24:16Z</time>
      </trkpt>
      <trkpt lat="42.52823" lon="2.99098">
        <ele>123</ele>
        <time>2020-08-06T08:24:19Z</time>
      </trkpt>
      <trkpt lat="42.5281" lon="2.99112">
        <ele>128</ele>
        <time>2020-08-06T08:24:27Z</time>
      </trkpt>
      <trkpt lat="42.52798" lon="2.99131">
        <ele>134</ele>
        <time>2020-08-06T08:24:36Z</time>
      </trkpt>
      <trkpt lat="42.52793" lon="2.99159">
        <ele>139</ele>
        <time>2020-08-06T08:24:47Z</time>
      </trkpt>
      <trkpt lat="42.52794" lon="2.99173">
        <ele>140</ele>
        <time>2020-08-06T08:24:52Z</time>
      </trkpt>
      <trkpt lat="42.528" lon="2.99189">
        <ele>140</ele>
        <time>2020-08-06T08:24:59Z</time>
      </trkpt>
      <trkpt lat="42.52806" lon="2.99194">
        <ele>139</ele>
        <time>2020-08-06T08:25:02Z</time>
      </trkpt>
      <trkpt lat="42.52815" lon="2.99197">
        <ele>137</ele>
        <time>2020-08-06T08:25:07Z</time>
      </trkpt>
      <trkpt lat="42.52831" lon="2.99196">
        <ele>133</ele>
        <time>2020-08-06T08:25:15Z</time>
      </trkpt>
      <trkpt lat="42.52838" lon="2.992">
        <ele>132</ele>
        <time>2020-08-06T08:25:19Z</time>
      </trkpt>
      <trkpt lat="42.52843" lon="2.9921">
        <ele>131</ele>
        <time>2020-08-06T08:25:23Z</time>
      </trkpt>
      <trkpt lat="42.52846" lon="2.99226">
        <ele>132</ele>
        <time>2020-08-06T08:25:29Z</time>
      </trkpt>
      <trkpt lat="42.52844" lon="2.99239">
        <ele>134</ele>
        <time>2020-08-06T08:25:34Z</time>
      </trkpt>
      <trkpt lat="42.52828" lon="2.99259">
        <ele>140</ele>
        <time>2020-08-06T08:25:45Z</time>
      </trkpt>
      <trkpt lat="42.52816" lon="2.99285">
        <ele>141</ele>
        <time>2020-08-06T08:25:56Z</time>
      </trkpt>
      <trkpt lat="42.5279" lon="2.99307">
        <ele>148</ele>
        <time>2020-08-06T08:26:12Z</time>
      </trkpt>
      <trkpt lat="42.5275" lon="2.99348">
        <ele>160</ele>
        <time>2020-08-06T08:26:37Z</time>
      </trkpt>
      <trkpt lat="42.52732" lon="2.99374">
        <ele>164</ele>
        <time>2020-08-06T08:26:50Z</time>
      </trkpt>
      <trkpt lat="42.52728" lon="2.99383">
        <ele>165</ele>
        <time>2020-08-06T08:26:54Z</time>
      </trkpt>
      <trkpt lat="42.52737" lon="2.9942">
        <ele>161</ele>
        <time>2020-08-06T08:27:08Z</time>
      </trkpt>
      <trkpt lat="42.52731" lon="2.99449">
        <ele>161</ele>
        <time>2020-08-06T08:27:19Z</time>
      </trkpt>
      <trkpt lat="42.52725" lon="2.99456">
        <ele>162</ele>
        <time>2020-08-06T08:27:23Z</time>
      </trkpt>
      <trkpt lat="42.52707" lon="2.99466">
        <ele>166</ele>
        <time>2020-08-06T08:27:33Z</time>
      </trkpt>
      <trkpt lat="42.52704" lon="2.9947">
        <ele>167</ele>
        <time>2020-08-06T08:27:35Z</time>
      </trkpt>
      <trkpt lat="42.527" lon="2.99482">
        <ele>167</ele>
        <time>2020-08-06T08:27:40Z</time>
      </trkpt>
      <trkpt lat="42.52698" lon="2.99508">
        <ele>166</ele>
        <time>2020-08-06T08:27:50Z</time>
      </trkpt>
      <trkpt lat="42.52695" lon="2.99513">
        <ele>166</ele>
        <time>2020-08-06T08:27:52Z</time>
      </trkpt>
      <trkpt lat="42.5269" lon="2.99518">
        <ele>167</ele>
        <time>2020-08-06T08:27:55Z</time>
      </trkpt>
      <trkpt lat="42.52671" lon="2.99527">
        <ele>172</ele>
        <time>2020-08-06T08:28:05Z</time>
      </trkpt>
      <trkpt lat="42.52647" lon="2.99535">
        <ele>180</ele>
        <time>2020-08-06T08:28:18Z</time>
      </trkpt>
      <trkpt lat="42.52626" lon="2.9955">
        <ele>187</ele>
        <time>2020-08-06T08:28:29Z</time>
      </trkpt>
      <trkpt lat="42.52602" lon="2.99586">
        <ele>192</ele>
        <time>2020-08-06T08:28:47Z</time>
      </trkpt>
      <trkpt lat="42.52599" lon="2.99596">
        <ele>194</ele>
        <time>2020-08-06T08:28:51Z</time>
      </trkpt>
      <trkpt lat="42.52603" lon="2.99607">
        <ele>193</ele>
        <time>2020-08-06T08:28:56Z</time>
      </trkpt>
      <trkpt lat="42.52621" lon="2.99612">
        <ele>188</ele>
        <time>2020-08-06T08:29:05Z</time>
      </trkpt>
      <trkpt lat="42.52629" lon="2.99618">
        <ele>186</ele>
        <time>2020-08-06T08:29:10Z</time>
      </trkpt>
      <trkpt lat="42.52652" lon="2.9966">
        <ele>185</ele>
        <time>2020-08-06T08:29:29Z</time>
      </trkpt>
      <trkpt lat="42.52664" lon="2.9967">
        <ele>183</ele>
        <time>2020-08-06T08:29:36Z</time>
      </trkpt>
      <trkpt lat="42.52673" lon="2.99674">
        <ele>180</ele>
        <time>2020-08-06T08:29:41Z</time>
      </trkpt>
      <trkpt lat="42.52681" lon="2.99682">
        <ele>178</ele>
        <time>2020-08-06T08:29:46Z</time>
      </trkpt>
      <trkpt lat="42.52685" lon="2.99698">
        <ele>179</ele>
        <time>2020-08-06T08:29:52Z</time>
      </trkpt>
      <trkpt lat="42.52679" lon="2.99729">
        <ele>184</ele>
        <time>2020-08-06T08:30:04Z</time>
      </trkpt>
      <trkpt lat="42.52661" lon="2.99767">
        <ele>194</ele>
        <time>2020-08-06T08:30:20Z</time>
      </trkpt>
      <trkpt lat="42.5265" lon="2.99837">
        <ele>201</ele>
        <time>2020-08-06T08:30:47Z</time>
      </trkpt>
      <trkpt lat="42.52638" lon="2.99857">
        <ele>208</ele>
        <time>2020-08-06T08:30:56Z</time>
      </trkpt>
      <trkpt lat="42.52637" lon="2.99868">
        <ele>209</ele>
        <time>2020-08-06T08:31:00Z</time>
      </trkpt>
      <trkpt lat="42.52646" lon="2.99876">
        <ele>206</ele>
        <time>2020-08-06T08:31:06Z</time>
      </trkpt>
      <trkpt lat="42.52654" lon="2.99879">
        <ele>203</ele>
        <time>2020-08-06T08:31:10Z</time>
      </trkpt>
      <trkpt lat="42.52683" lon="2.99885">
        <ele>195</ele>
        <time>2020-08-06T08:31:25Z</time>
      </trkpt>
      <trkpt lat="42.5269" lon="2.99891">
        <ele>193</ele>
        <time>2020-08-06T08:31:29Z</time>
      </trkpt>
      <trkpt lat="42.52693" lon="2.99908">
        <ele>194</ele>
        <time>2020-08-06T08:31:35Z</time>
      </trkpt>
      <trkpt lat="42.5269" lon="2.99923">
        <ele>196</ele>
        <time>2020-08-06T08:31:41Z</time>
      </trkpt>
      <trkpt lat="42.52686" lon="2.9993">
        <ele>197</ele>
        <time>2020-08-06T08:31:44Z</time>
      </trkpt>
      <trkpt lat="42.52658" lon="2.99969">
        <ele>206</ele>
        <time>2020-08-06T08:32:04Z</time>
      </trkpt>
      <trkpt lat="42.5265" lon="2.99995">
        <ele>209</ele>
        <time>2020-08-06T08:32:15Z</time>
      </trkpt>
      <trkpt lat="42.52644" lon="3.00033">
        <ele>211</ele>
        <time>2020-08-06T08:32:29Z</time>
      </trkpt>
      <trkpt lat="42.52638" lon="3.00054">
        <ele>214</ele>
        <time>2020-08-06T08:32:37Z</time>
      </trkpt>
      <trkpt lat="42.52635" lon="3.00106">
        <ele>211</ele>
        <time>2020-08-06T08:32:57Z</time>
      </trkpt>
      <trkpt lat="42.52625" lon="3.00124">
        <ele>211</ele>
        <time>2020-08-06T08:33:05Z</time>
      </trkpt>
      <trkpt lat="42.526" lon="3.00145">
        <ele>214</ele>
        <time>2020-08-06T08:33:20Z</time>
      </trkpt>
      <trkpt lat="42.52591" lon="3.00147">
        <ele>216</ele>
        <time>2020-08-06T08:33:24Z</time>
      </trkpt>
      <trkpt lat="42.52551" lon="3.00145">
        <ele>224</ele>
        <time>2020-08-06T08:33:44Z</time>
      </trkpt>
      <trkpt lat="42.52533" lon="3.00162">
        <ele>223</ele>
        <time>2020-08-06T08:33:55Z</time>
      </trkpt>
      <trkpt lat="42.52517" lon="3.00172">
        <ele>224</ele>
        <time>2020-08-06T08:34:04Z</time>
      </trkpt>
      <trkpt lat="42.52478" lon="3.00184">
        <ele>232</ele>
        <time>2020-08-06T08:34:24Z</time>
      </trkpt>
      <trkpt lat="42.52475" lon="3.00195">
        <ele>232</ele>
        <time>2020-08-06T08:34:28Z</time>
      </trkpt>
      <trkpt lat="42.52501" lon="3.00257">
        <ele>219</ele>
        <time>2020-08-06T08:34:55Z</time>
      </trkpt>
      <trkpt lat="42.52501" lon="3.00274">
        <ele>217</ele>
        <time>2020-08-06T08:35:01Z</time>
      </trkpt>
      <trkpt lat="42.52495" lon="3.00283">
        <ele>217</ele>
        <time>2020-08-06T08:35:05Z</time>
      </trkpt>
      <trkpt lat="42.52471" lon="3.00292">
        <ele>224</ele>
        <time>2020-08-06T08:35:18Z</time>
      </trkpt>
      <trkpt lat="42.52454" lon="3.00295">
        <ele>229</ele>
        <time>2020-08-06T08:35:26Z</time>
      </trkpt>
      <trkpt lat="42.52445" lon="3.00302">
        <ele>231</ele>
        <time>2020-08-06T08:35:32Z</time>
      </trkpt>
      <trkpt lat="42.52416" lon="3.00397">
        <ele>227</ele>
        <time>2020-08-06T08:36:10Z</time>
      </trkpt>
      <trkpt lat="42.52403" lon="3.00418">
        <ele>226</ele>
        <time>2020-08-06T08:36:20Z</time>
      </trkpt>
      <trkpt lat="42.52393" lon="3.00427">
        <ele>224</ele>
        <time>2020-08-06T08:36:26Z</time>
      </trkpt>
      <trkpt lat="42.52381" lon="3.00434">
        <ele>224</ele>
        <time>2020-08-06T08:36:32Z</time>
      </trkpt>
      <trkpt lat="42.52372" lon="3.00434">
        <ele>226</ele>
        <time>2020-08-06T08:36:37Z</time>
      </trkpt>
      <trkpt lat="42.52326" lon="3.00395">
        <ele>243</ele>
        <time>2020-08-06T08:37:04Z</time>
      </trkpt>
      <trkpt lat="42.52302" lon="3.00411">
        <ele>240</ele>
        <time>2020-08-06T08:37:17Z</time>
      </trkpt>
      <trkpt lat="42.52275" lon="3.00403">
        <ele>243</ele>
        <time>2020-08-06T08:37:31Z</time>
      </trkpt>
      <trkpt lat="42.52238" lon="3.00407">
        <ele>244</ele>
        <time>2020-08-06T08:37:50Z</time>
      </trkpt>
      <trkpt lat="42.52203" lon="3.00385">
        <ele>252</ele>
        <time>2020-08-06T08:38:09Z</time>
      </trkpt>
      <trkpt lat="42.52176" lon="3.00377">
        <ele>255</ele>
        <time>2020-08-06T08:38:23Z</time>
      </trkpt>
      <trkpt lat="42.52169" lon="3.00377">
        <ele>255</ele>
        <time>2020-08-06T08:38:26Z</time>
      </trkpt>
      <trkpt lat="42.52163" lon="3.0038">
        <ele>256</ele>
        <time>2020-08-06T08:38:29Z</time>
      </trkpt>
      <trkpt lat="42.52158" lon="3.00389">
        <ele>255</ele>
        <time>2020-08-06T08:38:34Z</time>
      </trkpt>
      <trkpt lat="42.52158" lon="3.00417">
        <ele>250</ele>
        <time>2020-08-06T08:38:44Z</time>
      </trkpt>
      <trkpt lat="42.5214" lon="3.00452">
        <ele>257</ele>
        <time>2020-08-06T08:39:00Z</time>
      </trkpt>
      <trkpt lat="42.5214" lon="3.00459">
        <ele>258</ele>
        <time>2020-08-06T08:39:02Z</time>
      </trkpt>
      <trkpt lat="42.52143" lon="3.00463">
        <ele>257</ele>
        <time>2020-08-06T08:39:04Z</time>
      </trkpt>
      <trkpt lat="42.5215" lon="3.00464">
        <ele>255</ele>
        <time>2020-08-06T08:39:08Z</time>
      </trkpt>
      <trkpt lat="42.5216" lon="3.00459">
        <ele>252</ele>
        <time>2020-08-06T08:39:13Z</time>
      </trkpt>
      <trkpt lat="42.52166" lon="3.00459">
        <ele>251</ele>
        <time>2020-08-06T08:39:16Z</time>
      </trkpt>
      <trkpt lat="42.52176" lon="3.00461">
        <ele>249</ele>
        <time>2020-08-06T08:39:21Z</time>
      </trkpt>
      <trkpt lat="42.52185" lon="3.00467">
        <ele>247</ele>
        <time>2020-08-06T08:39:26Z</time>
      </trkpt>
      <trkpt lat="42.52211" lon="3.00506">
        <ele>242</ele>
        <time>2020-08-06T08:39:46Z</time>
      </trkpt>
      <trkpt lat="42.52224" lon="3.0053">
        <ele>243</ele>
        <time>2020-08-06T08:39:57Z</time>
      </trkpt>
      <trkpt lat="42.52246" lon="3.0056">
        <ele>242</ele>
        <time>2020-08-06T08:40:12Z</time>
      </trkpt>
      <trkpt lat="42.52256" lon="3.0057">
        <ele>241</ele>
        <time>2020-08-06T08:40:19Z</time>
      </trkpt>
      <trkpt lat="42.52286" lon="3.00587">
        <ele>236</ele>
        <time>2020-08-06T08:40:35Z</time>
      </trkpt>
      <trkpt lat="42.52331" lon="3.00594">
        <ele>225</ele>
        <time>2020-08-06T08:40:57Z</time>
      </trkpt>
      <trkpt lat="42.52388" lon="3.00622">
        <ele>214</ele>
        <time>2020-08-06T08:41:28Z</time>
      </trkpt>
      <trkpt lat="42.52416" lon="3.00623">
        <ele>205</ele>
        <time>2020-08-06T08:41:42Z</time>
      </trkpt>
      <trkpt lat="42.5247" lon="3.00677">
        <ele>204</ele>
        <time>2020-08-06T08:42:15Z</time>
      </trkpt>
      <trkpt lat="42.52477" lon="3.00685">
        <ele>202</ele>
        <time>2020-08-06T08:42:20Z</time>
      </trkpt>
      <trkpt lat="42.52481" lon="3.00697">
        <ele>202</ele>
        <time>2020-08-06T08:42:25Z</time>
      </trkpt>
      <trkpt lat="42.52477" lon="3.00712">
        <ele>202</ele>
        <time>2020-08-06T08:42:31Z</time>
      </trkpt>
      <trkpt lat="42.52467" lon="3.00727">
        <ele>204</ele>
        <time>2020-08-06T08:42:38Z</time>
      </trkpt>
      <trkpt lat="42.52439" lon="3.00758">
        <ele>206</ele>
        <time>2020-08-06T08:42:56Z</time>
      </trkpt>
      <trkpt lat="42.5241" lon="3.00783">
        <ele>205</ele>
        <time>2020-08-06T08:43:13Z</time>
      </trkpt>
      <trkpt lat="42.524" lon="3.00795">
        <ele>205</ele>
        <time>2020-08-06T08:43:20Z</time>
      </trkpt>
      <trkpt lat="42.52388" lon="3.00812">
        <ele>204</ele>
        <time>2020-08-06T08:43:29Z</time>
      </trkpt>
      <trkpt lat="42.52368" lon="3.00853">
        <ele>203</ele>
        <time>2020-08-06T08:43:47Z</time>
      </trkpt>
      <trkpt lat="42.52351" lon="3.00868">
        <ele>206</ele>
        <time>2020-08-06T08:43:57Z</time>
      </trkpt>
      <trkpt lat="42.52322" lon="3.00882">
        <ele>212</ele>
        <time>2020-08-06T08:44:12Z</time>
      </trkpt>
      <trkpt lat="42.52315" lon="3.00889">
        <ele>211</ele>
        <time>2020-08-06T08:44:17Z</time>
      </trkpt>
      <trkpt lat="42.52304" lon="3.00907">
        <ele>209</ele>
        <time>2020-08-06T08:44:25Z</time>
      </trkpt>
      <trkpt lat="42.52297" lon="3.00913">
        <ele>210</ele>
        <time>2020-08-06T08:44:30Z</time>
      </trkpt>
      <trkpt lat="42.52285" lon="3.00915">
        <ele>212</ele>
        <time>2020-08-06T08:44:36Z</time>
      </trkpt>
      <trkpt lat="42.52269" lon="3.00907">
        <ele>218</ele>
        <time>2020-08-06T08:44:44Z</time>
      </trkpt>
      <trkpt lat="42.52259" lon="3.00906">
        <ele>220</ele>
        <time>2020-08-06T08:44:49Z</time>
      </trkpt>
      <trkpt lat="42.52256" lon="3.00909">
        <ele>220</ele>
        <time>2020-08-06T08:44:51Z</time>
      </trkpt>
      <trkpt lat="42.52252" lon="3.00923">
        <ele>219</ele>
        <time>2020-08-06T08:44:57Z</time>
      </trkpt>
      <trkpt lat="42.52261" lon="3.00969">
        <ele>211</ele>
        <time>2020-08-06T08:45:14Z</time>
      </trkpt>
      <trkpt lat="42.52259" lon="3.00986">
        <ele>209</ele>
        <time>2020-08-06T08:45:20Z</time>
      </trkpt>
      <trkpt lat="42.52241" lon="3.01022">
        <ele>212</ele>
        <time>2020-08-06T08:45:37Z</time>
      </trkpt>
      <trkpt lat="42.52219" lon="3.01052">
        <ele>219</ele>
        <time>2020-08-06T08:45:52Z</time>
      </trkpt>
      <trkpt lat="42.52219" lon="3.01059">
        <ele>219</ele>
        <time>2020-08-06T08:45:55Z</time>
      </trkpt>
      <trkpt lat="42.52221" lon="3.01068">
        <ele>218</ele>
        <time>2020-08-06T08:45:58Z</time>
      </trkpt>
      <trkpt lat="42.52227" lon="3.01074">
        <ele>216</ele>
        <time>2020-08-06T08:46:02Z</time>
      </trkpt>
      <trkpt lat="42.52262" lon="3.01077">
        <ele>211</ele>
        <time>2020-08-06T08:46:19Z</time>
      </trkpt>
      <trkpt lat="42.52306" lon="3.01073">
        <ele>212</ele>
        <time>2020-08-06T08:46:42Z</time>
      </trkpt>
      <trkpt lat="42.52326" lon="3.0107">
        <ele>212</ele>
        <time>2020-08-06T08:46:52Z</time>
      </trkpt>
      <trkpt lat="42.52351" lon="3.01062">
        <ele>211</ele>
        <time>2020-08-06T08:47:04Z</time>
      </trkpt>
      <trkpt lat="42.5237" lon="3.01051">
        <ele>210</ele>
        <time>2020-08-06T08:47:15Z</time>
      </trkpt>
      <trkpt lat="42.52382" lon="3.01041">
        <ele>208</ele>
        <time>2020-08-06T08:47:22Z</time>
      </trkpt>
      <trkpt lat="42.52386" lon="3.01042">
        <ele>209</ele>
        <time>2020-08-06T08:47:24Z</time>
      </trkpt>
      <trkpt lat="42.52388" lon="3.0105">
        <ele>210</ele>
        <time>2020-08-06T08:47:27Z</time>
      </trkpt>
      <trkpt lat="42.52375" lon="3.01066">
        <ele>213</ele>
        <time>2020-08-06T08:47:36Z</time>
      </trkpt>
      <trkpt lat="42.52375" lon="3.01073">
        <ele>214</ele>
        <time>2020-08-06T08:47:38Z</time>
      </trkpt>
      <trkpt lat="42.52383" lon="3.01073">
        <ele>214</ele>
        <time>2020-08-06T08:47:42Z</time>
      </trkpt>
      <trkpt lat="42.52393" lon="3.01065">
        <ele>213</ele>
        <time>2020-08-06T08:47:48Z</time>
      </trkpt>
      <trkpt lat="42.52413" lon="3.01059">
        <ele>213</ele>
        <time>2020-08-06T08:47:58Z</time>
      </trkpt>
      <trkpt lat="42.52428" lon="3.01059">
        <ele>210</ele>
        <time>2020-08-06T08:48:06Z</time>
      </trkpt>
      <trkpt lat="42.52445" lon="3.01073">
        <ele>208</ele>
        <time>2020-08-06T08:48:16Z</time>
      </trkpt>
      <trkpt lat="42.52467" lon="3.01108">
        <ele>205</ele>
        <time>2020-08-06T08:48:33Z</time>
      </trkpt>
      <trkpt lat="42.52474" lon="3.01115">
        <ele>203</ele>
        <time>2020-08-06T08:48:37Z</time>
      </trkpt>
      <trkpt lat="42.52491" lon="3.01117">
        <ele>199</ele>
        <time>2020-08-06T08:48:46Z</time>
      </trkpt>
      <trkpt lat="42.52496" lon="3.01119">
        <ele>198</ele>
        <time>2020-08-06T08:48:48Z</time>
      </trkpt>
      <trkpt lat="42.52499" lon="3.01124">
        <ele>197</ele>
        <time>2020-08-06T08:48:51Z</time>
      </trkpt>
      <trkpt lat="42.525" lon="3.01129">
        <ele>196</ele>
        <time>2020-08-06T08:48:53Z</time>
      </trkpt>
      <trkpt lat="42.52496" lon="3.01141">
        <ele>197</ele>
        <time>2020-08-06T08:48:58Z</time>
      </trkpt>
      <trkpt lat="42.52478" lon="3.01156">
        <ele>201</ele>
        <time>2020-08-06T08:49:08Z</time>
      </trkpt>
      <trkpt lat="42.52458" lon="3.01182">
        <ele>202</ele>
        <time>2020-08-06T08:49:22Z</time>
      </trkpt>
      <trkpt lat="42.52441" lon="3.01219">
        <ele>198</ele>
        <time>2020-08-06T08:49:38Z</time>
      </trkpt>
      <trkpt lat="42.52397" lon="3.01287">
        <ele>200</ele>
        <time>2020-08-06T08:50:11Z</time>
      </trkpt>
      <trkpt lat="42.52386" lon="3.01321">
        <ele>199</ele>
        <time>2020-08-06T08:50:25Z</time>
      </trkpt>
      <trkpt lat="42.52375" lon="3.01336">
        <ele>201</ele>
        <time>2020-08-06T08:50:33Z</time>
      </trkpt>
      <trkpt lat="42.52371" lon="3.01353">
        <ele>201</ele>
        <time>2020-08-06T08:50:39Z</time>
      </trkpt>
      <trkpt lat="42.52374" lon="3.01374">
        <ele>197</ele>
        <time>2020-08-06T08:50:47Z</time>
      </trkpt>
      <trkpt lat="42.52373" lon="3.01385">
        <ele>196</ele>
        <time>2020-08-06T08:50:51Z</time>
      </trkpt>
      <trkpt lat="42.52365" lon="3.01423">
        <ele>195</ele>
        <time>2020-08-06T08:51:06Z</time>
      </trkpt>
      <trkpt lat="42.52372" lon="3.01457">
        <ele>189</ele>
        <time>2020-08-06T08:51:19Z</time>
      </trkpt>
      <trkpt lat="42.52368" lon="3.01473">
        <ele>188</ele>
        <time>2020-08-06T08:51:25Z</time>
      </trkpt>
      <trkpt lat="42.52364" lon="3.01479">
        <ele>189</ele>
        <time>2020-08-06T08:51:28Z</time>
      </trkpt>
      <trkpt lat="42.5235" lon="3.01492">
        <ele>192</ele>
        <time>2020-08-06T08:51:37Z</time>
      </trkpt>
      <trkpt lat="42.52315" lon="3.01514">
        <ele>202</ele>
        <time>2020-08-06T08:51:56Z</time>
      </trkpt>
      <trkpt lat="42.52311" lon="3.0152">
        <ele>203</ele>
        <time>2020-08-06T08:51:59Z</time>
      </trkpt>
      <trkpt lat="42.52311" lon="3.01529">
        <ele>202</ele>
        <time>2020-08-06T08:52:02Z</time>
      </trkpt>
      <trkpt lat="42.52317" lon="3.01545">
        <ele>198</ele>
        <time>2020-08-06T08:52:09Z</time>
      </trkpt>
      <trkpt lat="42.52317" lon="3.01576">
        <ele>195</ele>
        <time>2020-08-06T08:52:20Z</time>
      </trkpt>
      <trkpt lat="42.52301" lon="3.01661">
        <ele>197</ele>
        <time>2020-08-06T08:52:53Z</time>
      </trkpt>
      <trkpt lat="42.52304" lon="3.01666">
        <ele>196</ele>
        <time>2020-08-06T08:52:55Z</time>
      </trkpt>
      <trkpt lat="42.52308" lon="3.01667">
        <ele>195</ele>
        <time>2020-08-06T08:52:57Z</time>
      </trkpt>
      <trkpt lat="42.52341" lon="3.01661">
        <ele>188</ele>
        <time>2020-08-06T08:53:14Z</time>
      </trkpt>
      <trkpt lat="42.52364" lon="3.01664">
        <ele>186</ele>
        <time>2020-08-06T08:53:25Z</time>
      </trkpt>
      <trkpt lat="42.52383" lon="3.01641">
        <ele>182</ele>
        <time>2020-08-06T08:53:38Z</time>
      </trkpt>
      <trkpt lat="42.52389" lon="3.01637">
        <ele>181</ele>
        <time>2020-08-06T08:53:41Z</time>
      </trkpt>
      <trkpt lat="42.52402" lon="3.01632">
        <ele>178</ele>
        <time>2020-08-06T08:53:48Z</time>
      </trkpt>
      <trkpt lat="42.52418" lon="3.01631">
        <ele>175</ele>
        <time>2020-08-06T08:53:56Z</time>
      </trkpt>
      <trkpt lat="42.52447" lon="3.01647">
        <ele>176</ele>
        <time>2020-08-06T08:54:12Z</time>
      </trkpt>
      <trkpt lat="42.52465" lon="3.01653">
        <ele>177</ele>
        <time>2020-08-06T08:54:21Z</time>
      </trkpt>
      <trkpt lat="42.52482" lon="3.01649">
        <ele>175</ele>
        <time>2020-08-06T08:54:30Z</time>
      </trkpt>
      <trkpt lat="42.52492" lon="3.01643">
        <ele>173</ele>
        <time>2020-08-06T08:54:35Z</time>
      </trkpt>
      <trkpt lat="42.52505" lon="3.01642">
        <ele>171</ele>
        <time>2020-08-06T08:54:42Z</time>
      </trkpt>
      <trkpt lat="42.52532" lon="3.01654">
        <ele>167</ele>
        <time>2020-08-06T08:54:56Z</time>
      </trkpt>
      <trkpt lat="42.5254" lon="3.01663">
        <ele>166</ele>
        <time>2020-08-06T08:55:01Z</time>
      </trkpt>
      <trkpt lat="42.52542" lon="3.01692">
        <ele>169</ele>
        <time>2020-08-06T08:55:12Z</time>
      </trkpt>
      <trkpt lat="42.52561" lon="3.01746">
        <ele>168</ele>
        <time>2020-08-06T08:55:34Z</time>
      </trkpt>
      <trkpt lat="42.52562" lon="3.01765">
        <ele>168</ele>
        <time>2020-08-06T08:55:41Z</time>
      </trkpt>
      <trkpt lat="42.52559" lon="3.01809">
        <ele>168</ele>
        <time>2020-08-06T08:55:57Z</time>
      </trkpt>
      <trkpt lat="42.52543" lon="3.01838">
        <ele>172</ele>
        <time>2020-08-06T08:56:11Z</time>
      </trkpt>
      <trkpt lat="42.5253" lon="3.01874">
        <ele>173</ele>
        <time>2020-08-06T08:56:26Z</time>
      </trkpt>
      <trkpt lat="42.52522" lon="3.01927">
        <ele>173</ele>
        <time>2020-08-06T08:56:45Z</time>
      </trkpt>
      <trkpt lat="42.52509" lon="3.0197">
        <ele>179</ele>
        <time>2020-08-06T08:57:03Z</time>
      </trkpt>
      <trkpt lat="42.52511" lon="3.01979">
        <ele>179</ele>
        <time>2020-08-06T08:57:06Z</time>
      </trkpt>
      <trkpt lat="42.52518" lon="3.01985">
        <ele>177</ele>
        <time>2020-08-06T08:57:10Z</time>
      </trkpt>
      <trkpt lat="42.5256" lon="3.01994">
        <ele>167</ele>
        <time>2020-08-06T08:57:32Z</time>
      </trkpt>
      <trkpt lat="42.52569" lon="3.01998">
        <ele>165</ele>
        <time>2020-08-06T08:57:36Z</time>
      </trkpt>
      <trkpt lat="42.52579" lon="3.02006">
        <ele>163</ele>
        <time>2020-08-06T08:57:42Z</time>
      </trkpt>
      <trkpt lat="42.52588" lon="3.02019">
        <ele>161</ele>
        <time>2020-08-06T08:57:49Z</time>
      </trkpt>
      <trkpt lat="42.52591" lon="3.02036">
        <ele>161</ele>
        <time>2020-08-06T08:57:55Z</time>
      </trkpt>
      <trkpt lat="42.52585" lon="3.02086">
        <ele>168</ele>
        <time>2020-08-06T08:58:14Z</time>
      </trkpt>
      <trkpt lat="42.52587" lon="3.02168">
        <ele>167</ele>
        <time>2020-08-06T08:58:44Z</time>
      </trkpt>
      <trkpt lat="42.5259" lon="3.02197">
        <ele>162</ele>
        <time>2020-08-06T08:58:55Z</time>
      </trkpt>
      <trkpt lat="42.52588" lon="3.02204">
        <ele>162</ele>
        <time>2020-08-06T08:58:58Z</time>
      </trkpt>
      <trkpt lat="42.52571" lon="3.02214">
        <ele>166</ele>
        <time>2020-08-06T08:59:07Z</time>
      </trkpt>
      <trkpt lat="42.52541" lon="3.0225">
        <ele>169</ele>
        <time>2020-08-06T08:59:27Z</time>
      </trkpt>
      <trkpt lat="42.52539" lon="3.02258">
        <ele>169</ele>
        <time>2020-08-06T08:59:30Z</time>
      </trkpt>
      <trkpt lat="42.52543" lon="3.02294">
        <ele>165</ele>
        <time>2020-08-06T08:59:43Z</time>
      </trkpt>
      <trkpt lat="42.52541" lon="3.02307">
        <ele>165</ele>
        <time>2020-08-06T08:59:48Z</time>
      </trkpt>
      <trkpt lat="42.52533" lon="3.02319">
        <ele>166</ele>
        <time>2020-08-06T08:59:54Z</time>
      </trkpt>
      <trkpt lat="42.52523" lon="3.02323">
        <ele>168</ele>
        <time>2020-08-06T09:00:00Z</time>
      </trkpt>
      <trkpt lat="42.52517" lon="3.02349">
        <ele>166</ele>
        <time>2020-08-06T09:00:10Z</time>
      </trkpt>
      <trkpt lat="42.52523" lon="3.02376">
        <ele>160</ele>
        <time>2020-08-06T09:00:20Z</time>
      </trkpt>
      <trkpt lat="42.52527" lon="3.02384">
        <ele>159</ele>
        <time>2020-08-06T09:00:24Z</time>
      </trkpt>
      <trkpt lat="42.52549" lon="3.0241">
        <ele>152</ele>
        <time>2020-08-06T09:00:38Z</time>
      </trkpt>
      <trkpt lat="42.52587" lon="3.02433">
        <ele>147</ele>
        <time>2020-08-06T09:00:59Z</time>
      </trkpt>
      <trkpt lat="42.52601" lon="3.02439">
        <ele>144</ele>
        <time>2020-08-06T09:01:06Z</time>
      </trkpt>
      <trkpt lat="42.52621" lon="3.0247">
        <ele>139</ele>
        <time>2020-08-06T09:01:22Z</time>
      </trkpt>
      <trkpt lat="42.52631" lon="3.02478">
        <ele>137</ele>
        <time>2020-08-06T09:01:27Z</time>
      </trkpt>
      <trkpt lat="42.52643" lon="3.02482">
        <ele>135</ele>
        <time>2020-08-06T09:01:33Z</time>
      </trkpt>
      <trkpt lat="42.52654" lon="3.02477">
        <ele>133</ele>
        <time>2020-08-06T09:01:39Z</time>
      </trkpt>
      <trkpt lat="42.52664" lon="3.02468">
        <ele>131</ele>
        <time>2020-08-06T09:01:45Z</time>
      </trkpt>
      <trkpt lat="42.52672" lon="3.02466">
        <ele>129</ele>
        <time>2020-08-06T09:01:49Z</time>
      </trkpt>
      <trkpt lat="42.52684" lon="3.02467">
        <ele>126</ele>
        <time>2020-08-06T09:01:55Z</time>
      </trkpt>
      <trkpt lat="42.52698" lon="3.02484">
        <ele>122</ele>
        <time>2020-08-06T09:02:05Z</time>
      </trkpt>
      <trkpt lat="42.52703" lon="3.02495">
        <ele>120</ele>
        <time>2020-08-06T09:02:10Z</time>
      </trkpt>
      <trkpt lat="42.52708" lon="3.0253">
        <ele>114</ele>
        <time>2020-08-06T09:02:23Z</time>
      </trkpt>
      <trkpt lat="42.52718" lon="3.02524">
        <ele>112</ele>
        <time>2020-08-06T09:02:28Z</time>
      </trkpt>
      <trkpt lat="42.52726" lon="3.02503">
        <ele>113</ele>
        <time>2020-08-06T09:02:37Z</time>
      </trkpt>
      <trkpt lat="42.52723" lon="3.02434">
        <ele>117</ele>
        <time>2020-08-06T09:03:02Z</time>
      </trkpt>
      <trkpt lat="42.52728" lon="3.02428">
        <ele>116</ele>
        <time>2020-08-06T09:03:06Z</time>
      </trkpt>
      <trkpt lat="42.52737" lon="3.02432">
        <ele>114</ele>
        <time>2020-08-06T09:03:10Z</time>
      </trkpt>
      <trkpt lat="42.52744" lon="3.02442">
        <ele>112</ele>
        <time>2020-08-06T09:03:16Z</time>
      </trkpt>
      <trkpt lat="42.52766" lon="3.02463">
        <ele>105</ele>
        <time>2020-08-06T09:03:29Z</time>
      </trkpt>
      <trkpt lat="42.52774" lon="3.02475">
        <ele>103</ele>
        <time>2020-08-06T09:03:35Z</time>
      </trkpt>
      <trkpt lat="42.52788" lon="3.0252">
        <ele>97</ele>
        <time>2020-08-06T09:03:53Z</time>
      </trkpt>
      <trkpt lat="42.52808" lon="3.0255">
        <ele>92</ele>
        <time>2020-08-06T09:04:08Z</time>
      </trkpt>
      <trkpt lat="42.52847" lon="3.02583">
        <ele>87</ele>
        <time>2020-08-06T09:04:31Z</time>
      </trkpt>
      <trkpt lat="42.52858" lon="3.02604">
        <ele>85</ele>
        <time>2020-08-06T09:04:40Z</time>
      </trkpt>
      <trkpt lat="42.52879" lon="3.02628">
        <ele>81</ele>
        <time>2020-08-06T09:04:54Z</time>
      </trkpt>
      <trkpt lat="42.52891" lon="3.02635">
        <ele>79</ele>
        <time>2020-08-06T09:05:01Z</time>
      </trkpt>
      <trkpt lat="42.52937" lon="3.02645">
        <ele>74</ele>
        <time>2020-08-06T09:05:24Z</time>
      </trkpt>
      <trkpt lat="42.52936" lon="3.02649">
        <ele>74</ele>
        <time>2020-08-06T09:05:26Z</time>
      </trkpt>
      <trkpt lat="42.52945" lon="3.02646">
        <ele>73</ele>
        <time>2020-08-06T09:05:30Z</time>
      </trkpt>
      <trkpt lat="42.52964" lon="3.02647">
        <ele>72</ele>
        <time>2020-08-06T09:05:40Z</time>
      </trkpt>
      <trkpt lat="42.5298" lon="3.02642">
        <ele>70</ele>
        <time>2020-08-06T09:05:48Z</time>
      </trkpt>
      <trkpt lat="42.52997" lon="3.02641">
        <ele>69</ele>
        <time>2020-08-06T09:05:56Z</time>
      </trkpt>
      <trkpt lat="42.53038" lon="3.02625">
        <ele>65</ele>
        <time>2020-08-06T09:06:18Z</time>
      </trkpt>
      <trkpt lat="42.53082" lon="3.02614">
        <ele>61</ele>
        <time>2020-08-06T09:06:40Z</time>
      </trkpt>
      <trkpt lat="42.53124" lon="3.02616">
        <ele>60</ele>
        <time>2020-08-06T09:07:01Z</time>
      </trkpt>
      <trkpt lat="42.5313" lon="3.02619">
        <ele>60</ele>
        <time>2020-08-06T09:07:04Z</time>
      </trkpt>
      <trkpt lat="42.53142" lon="3.02637">
        <ele>60</ele>
        <time>2020-08-06T09:07:13Z</time>
      </trkpt>
      <trkpt lat="42.53167" lon="3.02688">
        <ele>58</ele>
        <time>2020-08-06T09:07:36Z</time>
      </trkpt>
      <trkpt lat="42.53185" lon="3.02699">
        <ele>56</ele>
        <time>2020-08-06T09:07:46Z</time>
      </trkpt>
      <trkpt lat="42.53191" lon="3.02706">
        <ele>56</ele>
        <time>2020-08-06T09:07:50Z</time>
      </trkpt>
      <trkpt lat="42.53214" lon="3.02761">
        <ele>53</ele>
        <time>2020-08-06T09:08:13Z</time>
      </trkpt>
      <trkpt lat="42.53218" lon="3.02766">
        <ele>53</ele>
        <time>2020-08-06T09:08:16Z</time>
      </trkpt>
      <trkpt lat="42.53259" lon="3.02792">
        <ele>51</ele>
        <time>2020-08-06T09:08:38Z</time>
      </trkpt>
      <trkpt lat="42.53278" lon="3.02811">
        <ele>50</ele>
        <time>2020-08-06T09:08:50Z</time>
      </trkpt>
      <trkpt lat="42.53294" lon="3.02833">
        <ele>49</ele>
        <time>2020-08-06T09:09:02Z</time>
      </trkpt>
      <trkpt lat="42.53303" lon="3.02829">
        <ele>48</ele>
        <time>2020-08-06T09:09:06Z</time>
      </trkpt>
      <trkpt lat="42.53311" lon="3.02831">
        <ele>47</ele>
        <time>2020-08-06T09:09:11Z</time>
      </trkpt>
      <trkpt lat="42.53327" lon="3.02844">
        <ele>45</ele>
        <time>2020-08-06T09:09:20Z</time>
      </trkpt>
      <trkpt lat="42.53343" lon="3.02862">
        <ele>43</ele>
        <time>2020-08-06T09:09:30Z</time>
      </trkpt>
      <trkpt lat="42.53379" lon="3.02907">
        <ele>40</ele>
        <time>2020-08-06T09:09:55Z</time>
      </trkpt>
      <trkpt lat="42.53387" lon="3.02922">
        <ele>40</ele>
        <time>2020-08-06T09:10:02Z</time>
      </trkpt>
      <trkpt lat="42.53403" lon="3.0297">
        <ele>40</ele>
        <time>2020-08-06T09:10:21Z</time>
      </trkpt>
      <trkpt lat="42.53419" lon="3.02997">
        <ele>41</ele>
        <time>2020-08-06T09:10:34Z</time>
      </trkpt>
      <trkpt lat="42.5343" lon="3.03008">
        <ele>40</ele>
        <time>2020-08-06T09:10:41Z</time>
      </trkpt>
      <trkpt lat="42.53448" lon="3.03017">
        <ele>39</ele>
        <time>2020-08-06T09:10:50Z</time>
      </trkpt>
      <trkpt lat="42.53457" lon="3.03025">
        <ele>38</ele>
        <time>2020-08-06T09:10:56Z</time>
      </trkpt>
      <trkpt lat="42.53468" lon="3.03038">
        <ele>37</ele>
        <time>2020-08-06T09:11:03Z</time>
      </trkpt>
      <trkpt lat="42.53492" lon="3.0308">
        <ele>36</ele>
        <time>2020-08-06T09:11:22Z</time>
      </trkpt>
      <trkpt lat="42.53533" lon="3.03134">
        <ele>32</ele>
        <time>2020-08-06T09:11:51Z</time>
      </trkpt>
      <trkpt lat="42.53555" lon="3.03156">
        <ele>31</ele>
        <time>2020-08-06T09:12:05Z</time>
      </trkpt>
      <trkpt lat="42.53565" lon="3.0316">
        <ele>30</ele>
        <time>2020-08-06T09:12:10Z</time>
      </trkpt>
      <trkpt lat="42.53567" lon="3.0318">
        <ele>30</ele>
        <time>2020-08-06T09:12:17Z</time>
      </trkpt>
      <trkpt lat="42.53571" lon="3.03186">
        <ele>30</ele>
        <time>2020-08-06T09:12:20Z</time>
      </trkpt>
      <trkpt lat="42.53669" lon="3.03309">
        <ele>27</ele>
        <time>2020-08-06T09:13:27Z</time>
      </trkpt>
      <trkpt lat="42.53683" lon="3.03327">
        <ele>27</ele>
        <time>2020-08-06T09:13:37Z</time>
      </trkpt>
      <trkpt lat="42.53681" lon="3.03328">
        <ele>27</ele>
        <time>2020-08-06T09:13:38Z</time>
      </trkpt>
      <trkpt lat="42.53715" lon="3.03371">
        <ele>26</ele>
        <time>2020-08-06T09:14:01Z</time>
      </trkpt>
      <trkpt lat="42.53751" lon="3.03409">
        <ele>25</ele>
        <time>2020-08-06T09:14:24Z</time>
      </trkpt>
      <trkpt lat="42.5384" lon="3.03486">
        <ele>20</ele>
        <time>2020-08-06T09:15:17Z</time>
      </trkpt>
      <trkpt lat="42.53963" lon="3.03622">
        <ele>15</ele>
        <time>2020-08-06T09:16:36Z</time>
      </trkpt>
      <trkpt lat="42.53966" lon="3.03638">
        <ele>15</ele>
        <time>2020-08-06T09:16:42Z</time>
      </trkpt>
      <trkpt lat="42.53972" lon="3.0364">
        <ele>14</ele>
        <time>2020-08-06T09:16:45Z</time>
      </trkpt>
      <trkpt lat="42.5397" lon="3.0365">
        <ele>14</ele>
        <time>2020-08-06T09:16:49Z</time>
      </trkpt>
      <trkpt lat="42.53971" lon="3.03662">
        <ele>14</ele>
        <time>2020-08-06T09:16:54Z</time>
      </trkpt>
      <trkpt lat="42.53975" lon="3.03673">
        <ele>14</ele>
        <time>2020-08-06T09:16:58Z</time>
      </trkpt>
      <trkpt lat="42.5398" lon="3.03679">
        <ele>13</ele>
        <time>2020-08-06T09:17:02Z</time>
      </trkpt>
      <trkpt lat="42.53984" lon="3.03683">
        <ele>13</ele>
        <time>2020-08-06T09:17:04Z</time>
      </trkpt>
      <trkpt lat="42.53994" lon="3.03686">
        <ele>13</ele>
        <time>2020-08-06T09:17:09Z</time>
      </trkpt>
      <trkpt lat="42.54001" lon="3.03685">
        <ele>13</ele>
        <time>2020-08-06T09:17:13Z</time>
      </trkpt>
      <trkpt lat="42.5401" lon="3.03691">
        <ele>12</ele>
        <time>2020-08-06T09:17:18Z</time>
      </trkpt>
      <trkpt lat="42.54033" lon="3.03694">
        <ele>11</ele>
        <time>2020-08-06T09:17:29Z</time>
      </trkpt>
      <trkpt lat="42.54053" lon="3.03706">
        <ele>10</ele>
        <time>2020-08-06T09:17:40Z</time>
      </trkpt>
      <trkpt lat="42.54091" lon="3.03744">
        <ele>9</ele>
        <time>2020-08-06T09:18:04Z</time>
      </trkpt>
      <trkpt lat="42.54103" lon="3.03768">
        <ele>8</ele>
        <time>2020-08-06T09:18:14Z</time>
      </trkpt>
      <trkpt lat="42.54105" lon="3.03771">
        <ele>8</ele>
        <time>2020-08-06T09:18:16Z</time>
      </trkpt>
      <trkpt lat="42.54107" lon="3.0377">
        <ele>8</ele>
        <time>2020-08-06T09:18:17Z</time>
      </trkpt>
      <trkpt lat="42.54134" lon="3.03823">
        <ele>7</ele>
        <time>2020-08-06T09:18:41Z</time>
      </trkpt>
      <trkpt lat="42.5411" lon="3.04025">
        <ele>7</ele>
        <time>2020-08-06T09:19:56Z</time>
      </trkpt>
      <trkpt lat="42.54108" lon="3.0416">
        <ele>5</ele>
        <time>2020-08-06T09:20:46Z</time>
      </trkpt>
      <trkpt lat="42.541" lon="3.04194">
        <ele>5</ele>
        <time>2020-08-06T09:20:59Z</time>
      </trkpt>
      <trkpt lat="42.54103" lon="3.042">
        <ele>5</ele>
        <time>2020-08-06T09:21:02Z</time>
      </trkpt>
      <trkpt lat="42.54068" lon="3.04328">
        <ele>5</ele>
        <time>2020-08-06T09:21:52Z</time>
      </trkpt>
      <trkpt lat="42.5405" lon="3.04414">
        <ele>4</ele>
        <time>2020-08-06T09:22:25Z</time>
      </trkpt>
      <trkpt lat="42.54045" lon="3.04422">
        <ele>4</ele>
        <time>2020-08-06T09:22:29Z</time>
      </trkpt>
      <trkpt lat="42.54025" lon="3.04498">
        <ele>4</ele>
        <time>2020-08-06T09:22:59Z</time>
      </trkpt>
      <trkpt lat="42.53993" lon="3.04634">
        <ele>4</ele>
        <time>2020-08-06T09:23:51Z</time>
      </trkpt>
      <trkpt lat="42.54014" lon="3.04751">
        <ele>2</ele>
        <time>2020-08-06T09:24:36Z</time>
      </trkpt>
      <trkpt lat="42.54024" lon="3.0479">
        <ele>2</ele>
        <time>2020-08-06T09:24:51Z</time>
      </trkpt>
      <trkpt lat="42.54043" lon="3.04779">
        <ele>2</ele>
        <time>2020-08-06T09:25:01Z</time>
      </trkpt>
      <trkpt lat="42.54042" lon="3.04773">
        <ele>2</ele>
        <time>2020-08-06T09:25:04Z</time>
      </trkpt>
      <trkpt lat="42.54082" lon="3.04753">
        <ele>2</ele>
        <time>2020-08-06T09:25:25Z</time>
      </trkpt>
      <trkpt lat="42.54099" lon="3.04761">
        <ele>2</ele>
        <time>2020-08-06T09:25:34Z</time>
      </trkpt>
      <trkpt lat="42.54111" lon="3.04793">
        <ele>2</ele>
        <time>2020-08-06T09:25:47Z</time>
      </trkpt>
      <trkpt lat="42.54106" lon="3.04796">
        <ele>2</ele>
        <time>2020-08-06T09:25:50Z</time>
      </trkpt>
      <trkpt lat="42.54117" lon="3.04828">
        <ele>2</ele>
        <time>2020-08-06T09:26:03Z</time>
      </trkpt>
      <trkpt lat="42.54121" lon="3.04835">
        <ele>2</ele>
        <time>2020-08-06T09:26:06Z</time>
      </trkpt>
      <trkpt lat="42.54127" lon="3.04837">
        <ele>2</ele>
        <time>2020-08-06T09:26:09Z</time>
      </trkpt>
      <trkpt lat="42.54147" lon="3.04827">
        <ele>2</ele>
        <time>2020-08-06T09:26:20Z</time>
      </trkpt>
      <trkpt lat="42.54161" lon="3.04817">
        <ele>2</ele>
        <time>2020-08-06T09:26:28Z</time>
      </trkpt>
      <trkpt lat="42.54169" lon="3.04808">
        <ele>2</ele>
        <time>2020-08-06T09:26:33Z</time>
      </trkpt>
      <trkpt lat="42.54179" lon="3.04788">
        <ele>2</ele>
        <time>2020-08-06T09:26:42Z</time>
      </trkpt>
      <trkpt lat="42.54184" lon="3.04785">
        <ele>3</ele>
        <time>2020-08-06T09:26:45Z</time>
      </trkpt>
      <trkpt lat="42.5419" lon="3.04785">
        <ele>3</ele>
        <time>2020-08-06T09:26:48Z</time>
      </trkpt>
      <trkpt lat="42.54194" lon="3.04788">
        <ele>3</ele>
        <time>2020-08-06T09:26:50Z</time>
      </trkpt>
      <trkpt lat="42.54254" lon="3.04989">
        <ele>6</ele>
        <time>2020-08-06T09:28:10Z</time>
      </trkpt>
      <trkpt lat="42.54251" lon="3.05002">
        <ele>6</ele>
        <time>2020-08-06T09:28:15Z</time>
      </trkpt>
      <trkpt lat="42.54164" lon="3.05054">
        <ele>2</ele>
        <time>2020-08-06T09:29:03Z</time>
      </trkpt>
      <trkpt lat="42.54175" lon="3.05086">
        <ele>4</ele>
        <time>2020-08-06T09:29:16Z</time>
      </trkpt>
      <trkpt lat="42.54191" lon="3.05096">
        <ele>4</ele>
        <time>2020-08-06T09:29:24Z</time>
      </trkpt>
      <trkpt lat="42.54244" lon="3.05109">
        <ele>5</ele>
        <time>2020-08-06T09:29:51Z</time>
      </trkpt>
      <trkpt lat="42.54438" lon="3.05115">
        <ele>2</ele>
        <time>2020-08-06T09:31:29Z</time>
      </trkpt>
      <trkpt lat="42.54521" lon="3.05066">
        <ele>2</ele>
        <time>2020-08-06T09:32:14Z</time>
      </trkpt>
      <trkpt lat="42.547" lon="3.04952">
        <ele>3</ele>
        <time>2020-08-06T09:33:53Z</time>
      </trkpt>
      <trkpt lat="42.54771" lon="3.04911">
        <ele>3</ele>
        <time>2020-08-06T09:34:31Z</time>
      </trkpt>
      <trkpt lat="42.55114" lon="3.04837">
        <ele>4</ele>
        <time>2020-08-06T09:37:25Z</time>
      </trkpt>
    </trkseg>
  </trk>
</gpx>